GFSSGP_700_spd_000.txt.gz
Wind_Speed
12 7 7 10 8 9 12 6 7 5 4 2 5 9 7 6 6 3 8 10 13 15 16 16 15 15 11 9 7 4 5 5 5 2 2 2 4 3 5 5 5 6 7 8 9 9 10 12 11
12 9 6 10 9 14 11 1 8 9 7 5 8 9 6 4 5 7 9 11 13 16 18 17 15 14 11 7 5 2 5 4 4 2 3 3 4 5 6 6 7 9 9 9 10 10 10 11 11
12 10 6 8 12 16 8 6 6 2 4 6 9 11 6 5 5 8 10 12 13 16 18 19 16 14 11 7 3 2 2 3 3 4 3 4 5 7 9 9 9 10 11 11 11 11 11 11 10
9 9 7 12 10 12 17 12 12 2 4 6 10 11 8 5 6 9 11 13 14 16 17 18 18 15 11 7 4 3 3 4 4 5 4 4 6 9 10 11 12 12 12 12 12 12 12 11 12
10 9 8 11 13 11 10 5 6 9 6 4 8 12 10 8 8 9 11 14 16 17 17 18 18 16 13 8 6 5 5 5 7 7 6 7 8 10 11 12 13 13 13 13 13 12 11 11 12
11 10 7 12 10 8 7 6 5 14 11 8 10 9 10 11 10 10 11 14 16 17 17 16 17 16 14 11 8 8 8 8 9 8 8 9 10 11 12 14 15 14 14 14 13 12 12 12 12
12 12 11 11 10 9 4 5 7 12 12 10 10 11 14 12 11 9 13 14 17 18 17 17 16 16 15 13 10 9 9 10 10 10 10 11 11 13 14 15 15 15 15 13 13 12 13 13 13
13 12 13 12 13 10 1 7 7 7 13 9 10 13 14 11 12 13 17 17 17 18 18 17 17 16 15 15 14 11 10 10 10 12 12 13 13 14 15 14 14 15 15 14 13 13 13 13 13
14 14 15 13 11 12 6 4 5 4 8 10 13 16 15 16 17 18 19 19 18 18 17 17 17 16 16 15 14 14 13 12 11 10 10 10 10 12 12 12 14 15 15 15 14 13 14 14 15
15 17 16 12 12 14 13 11 8 10 13 14 17 19 18 18 17 19 20 19 19 19 18 17 17 17 17 16 15 15 15 15 14 12 11 10 10 10 12 13 15 16 17 16 15 14 14 14 14
20 19 14 11 14 16 18 18 14 13 15 16 16 14 16 16 18 20 18 17 20 21 19 19 19 18 17 18 18 17 16 16 16 15 14 13 12 13 14 16 17 18 19 18 17 16 15 14 14
22 20 16 13 12 18 21 22 22 19 16 13 18 16 17 13 15 17 19 21 20 22 22 22 22 22 21 20 21 20 19 19 18 17 17 17 18 17 18 20 19 20 20 19 18 17 17 16 16
21 19 16 16 13 20 24 24 22 27 22 18 19 19 18 17 18 20 21 22 22 22 22 22 25 25 26 25 23 24 22 21 20 18 17 17 17 16 17 19 20 20 20 19 19 18 19 19 19
23 20 19 18 15 19 23 25 28 20 13 21 22 16 16 17 18 21 21 21 21 21 20 22 25 27 29 29 25 25 24 22 22 20 18 17 18 18 18 17 17 18 18 18 18 18 18 19 21
22 22 22 19 18 20 16 21 14 10 17 19 17 14 16 17 19 20 22 22 23 23 21 22 24 25 25 23 23 24 23 21 20 20 20 19 20 21 21 20 21 23 23 20 19 19 20 20 21
16 17 18 14 14 14 18 18 6 7 8 11 15 14 18 20 21 22 23 21 20 20 20 21 18 17 18 17 17 20 20 21 20 21 21 21 22 22 23 23 24 26 27 29 27 25 25 26 26
16 15 14 12 9 9 18 6 1 8 11 9 10 15 20 21 21 21 22 22 21 21 17 12 13 15 18 19 19 19 20 20 20 22 23 24 26 27 29 30 31 32 33 33 31 29 29 30 30
18 15 9 11 9 12 17 11 5 10 18 15 13 18 21 22 21 21 22 23 18 11 11 13 14 15 17 19 19 20 20 20 20 21 23 25 28 31 34 35 33 33 32 30 31 32 33 34 34
20 11 8 5 10 12 13 13 12 12 18 15 16 20 22 23 21 18 13 8 12 14 15 16 17 18 19 19 20 20 21 21 21 22 23 23 25 27 30 32 32 33 34 31 32 34 36 35 37
25 21 9 7 5 7 10 15 18 18 18 16 21 19 15 15 15 9 8 10 12 14 16 18 19 19 18 18 19 20 21 21 21 20 22 25 26 28 29 31 32 33 34 34 35 37 39 41 39
23 19 12 10 7 11 15 18 15 17 18 20 19 17 14 11 9 8 8 10 12 13 14 14 14 15 16 16 18 19 20 21 21 20 21 24 28 31 32 35 36 37 38 38 40 41 43 44 41
25 18 14 15 14 9 4 6 15 21 17 16 13 11 12 12 10 8 10 11 13 13 11 11 13 18 21 23 23 23 23 23 24 23 23 25 29 31 32 34 35 35 38 39 41 42 42 42 42
22 18 18 16 14 12 16 8 9 21 22 21 13 12 13 12 10 11 12 13 12 11 14 17 20 21 23 25 25 26 26 26 27 28 28 28 29 32 33 35 36 37 38 39 39 39 40 41 42
21 18 14 11 9 5 20 17 9 21 12 17 14 13 14 13 12 12 12 12 14 18 20 21 22 25 29 27 26 25 25 25 26 27 27 28 30 31 33 35 36 37 39 40 42 42 42 40 39
22 16 3 3 3 6 4 14 21 10 8 6 10 10 14 13 12 13 13 15 19 21 21 24 28 32 32 32 28 24 25 25 27 29 31 32 33 35 36 38 39 40 41 42 42 42 42 41 41
26 19 6 6 4 3 9 8 9 9 16 18 15 14 13 12 13 13 16 19 20 22 26 29 30 31 28 27 25 24 24 25 27 29 31 33 35 36 37 39 41 41 42 43 44 46 47 47 47
25 24 16 5 4 2 6 9 11 8 9 19 20 16 13 12 10 11 17 21 24 28 29 31 33 30 28 26 25 25 25 27 30 32 34 35 37 38 39 40 42 43 44 46 47 48 48 48 49
15 23 11 10 3 4 4 6 10 8 12 18 18 15 12 10 12 18 22 27 31 32 34 35 32 30 30 30 29 29 30 33 34 35 37 39 41 42 43 43 43 44 44 46 47 48 49 50 49
22 18 10 7 4 4 1 3 1 9 10 10 10 10 9 13 17 20 26 32 34 34 32 32 30 31 32 30 31 33 35 35 37 40 43 45 46 46 46 46 46 45 44 45 46 47 48 47 47
24 20 17 6 5 5 1 3 3 4 4 11 8 9 14 15 20 28 33 32 30 32 33 33 34 34 33 33 34 37 39 41 42 45 47 48 48 47 46 45 44 43 43 43 44 45 45 47 48

GFSSGP_700_spd_003.txt.gz
Wind_Speed
11 10 6 10 9 9 11 3 4 5 3 3 6 6 8 8 9 4 9 11 12 15 17 19 18 17 16 13 9 6 6 6 5 6 5 4 2 2 3 4 5 6 8 9 9 9 10 10 12
11 10 4 10 9 12 11 6 1 6 8 9 7 6 6 8 8 8 9 11 12 14 16 19 20 19 17 12 8 5 5 4 3 4 4 3 2 4 4 5 7 8 9 10 10 10 10 11 11
11 10 4 6 11 14 7 10 1 4 5 6 8 8 7 9 8 8 9 11 13 15 17 18 19 19 17 12 8 6 5 4 3 5 4 3 3 5 5 6 8 9 10 11 11 11 11 11 11
9 10 5 12 10 10 14 10 6 7 4 5 8 10 9 9 9 8 8 11 14 15 16 17 18 19 17 12 8 7 7 7 5 6 8 6 5 6 7 8 10 11 12 13 12 12 11 11 11
10 10 8 11 14 9 6 7 9 10 6 6 9 8 9 10 10 9 9 12 15 16 16 16 16 18 18 15 10 8 8 9 8 7 7 8 7 8 9 11 12 13 14 14 13 12 12 10 11
11 11 11 13 13 11 7 7 8 14 10 10 13 7 8 11 11 11 9 13 15 17 17 16 16 16 16 16 12 9 8 9 10 10 9 9 10 10 11 12 13 14 15 15 13 13 12 11 13
15 12 16 15 14 11 4 1 8 14 10 9 12 11 12 10 10 11 12 15 16 17 17 17 16 15 14 15 14 12 10 10 11 12 12 11 12 12 12 13 13 13 14 14 13 14 13 12 14
16 14 19 17 13 12 6 4 6 17 14 10 10 11 11 12 12 14 16 16 16 16 17 16 16 15 15 14 14 14 12 11 11 10 11 11 12 12 12 13 11 12 12 13 13 14 14 13 13
17 18 20 17 12 12 10 8 7 12 12 12 11 11 12 14 15 16 16 16 15 15 16 16 16 15 15 15 15 15 14 14 12 11 10 10 9 10 10 11 10 11 13 14 14 14 14 14 14
20 22 20 14 13 15 15 13 12 15 16 12 11 14 15 17 18 18 17 17 13 15 16 17 18 17 16 16 17 16 16 16 14 13 12 10 10 10 11 12 12 14 15 15 15 15 15 15 14
23 25 16 14 14 18 20 20 19 18 17 13 15 16 17 18 17 16 14 15 16 17 17 18 19 19 18 18 18 19 18 17 16 14 13 12 11 12 13 14 15 16 17 17 16 16 16 15 15
26 23 18 18 15 20 22 25 26 22 20 17 16 16 17 17 16 16 15 17 19 19 18 18 19 19 19 19 19 19 19 17 16 14 12 11 11 11 12 14 15 16 16 16 16 16 16 17 17
28 23 20 18 18 20 23 28 27 29 21 22 22 21 16 18 18 18 19 21 18 17 18 17 18 19 21 21 19 17 16 15 15 13 12 11 10 10 9 9 10 11 13 14 15 15 14 15 17
26 23 22 21 18 20 23 27 31 25 19 25 29 28 20 18 17 18 18 18 18 19 19 20 18 18 19 18 16 14 14 15 14 13 14 13 12 11 11 11 11 13 16 17 18 19 18 17 18
26 23 24 25 20 22 22 29 26 8 20 27 26 28 24 22 20 18 19 19 20 18 17 16 18 16 14 13 13 12 13 15 14 14 16 16 16 16 18 18 18 19 21 23 25 26 25 23 23
21 21 23 20 16 21 19 27 6 10 11 17 22 24 21 19 17 16 18 20 20 18 18 18 16 12 14 15 15 13 12 13 14 15 17 19 21 22 24 25 24 25 27 29 31 32 31 29 28
18 16 16 15 11 12 14 16 6 8 10 12 15 17 17 15 16 16 17 19 18 17 14 11 11 12 15 17 18 17 16 15 14 15 18 20 24 27 30 31 30 30 32 32 33 33 33 32 32
19 19 19 17 7 8 14 17 9 7 15 17 16 16 16 16 17 18 17 16 14 7 8 9 11 12 13 15 17 17 17 17 16 16 18 22 24 27 30 30 29 31 32 31 32 34 35 36 36
19 19 17 12 9 15 15 18 15 12 15 15 22 17 16 17 18 15 14 10 8 10 11 12 12 13 13 13 13 14 15 15 17 19 20 23 26 29 30 31 31 31 31 32 34 36 37 39 41
25 23 19 11 8 11 13 16 17 20 20 16 12 14 15 14 12 13 9 9 10 12 12 13 14 13 12 12 13 14 16 17 18 20 20 21 23 25 29 32 33 34 35 36 37 40 41 43 44
27 28 23 21 12 13 19 28 24 26 20 15 13 14 14 14 15 9 8 10 11 11 12 13 13 13 14 16 17 19 20 21 22 22 24 25 26 27 29 32 34 35 38 38 39 41 43 45 44
28 27 21 17 14 14 11 9 19 15 18 15 13 11 12 13 11 9 9 9 11 12 12 15 18 18 19 21 24 24 23 24 24 25 26 28 29 30 31 33 34 36 37 38 38 40 43 44 47
26 19 16 16 17 20 21 14 9 16 23 20 15 12 11 11 11 10 9 10 10 13 17 20 21 22 24 27 28 26 25 24 25 26 27 29 31 33 34 36 37 39 40 41 42 42 43 45 46
25 16 14 16 17 8 24 20 12 18 14 16 17 14 12 12 12 10 9 9 12 15 18 19 22 25 28 28 27 25 24 24 25 26 28 29 32 34 36 38 40 42 43 45 46 47 47 47 47
24 17 3 3 3 6 7 11 26 10 9 6 11 11 10 11 11 10 9 11 14 16 19 23 25 28 30 27 25 25 24 25 25 27 29 31 33 35 37 40 41 43 45 46 47 48 49 51 52
28 26 9 6 4 4 8 9 9 7 11 14 12 13 10 10 9 9 9 11 15 19 24 26 29 29 27 25 25 25 24 25 28 30 33 36 38 40 41 42 43 44 46 47 48 50 51 51 52
30 27 24 6 8 3 7 10 15 11 8 13 17 15 11 8 8 9 10 17 21 25 26 25 27 27 27 27 26 25 26 28 31 35 38 41 43 45 46 47 47 47 48 49 50 51 52 53 55
21 26 17 12 3 4 5 8 12 2 6 8 10 12 10 8 9 12 17 21 24 24 23 25 27 27 28 29 29 28 29 31 35 38 41 44 45 46 47 47 48 48 48 49 50 50 51 53 54
30 20 20 10 9 3 2 4 3 6 6 4 5 6 5 7 12 16 21 26 23 21 23 25 28 30 30 31 30 31 34 39 43 44 47 48 47 47 48 48 48 48 48 48 48 49 50 51 51
28 25 23 15 7 8 3 5 3 1 11 9 5 5 7 12 15 22 28 22 18 20 24 28 31 32 32 33 35 37 39 41 45 49 51 49 48 48 48 47 46 46 46 46 46 46 47 49 49

GFSSGP_700_spd_006.txt.gz
Wind_Speed
9 13 9 8 8 8 12 5 9 7 5 1 4 6 6 8 10 6 10 11 12 14 15 16 18 18 16 14 11 8 5 4 3 4 5 2 4 3 2 2 3 3 4 5 7 9 9 9 10
9 11 7 8 7 10 9 12 5 8 8 7 5 5 7 8 9 9 11 10 12 13 14 15 18 18 16 13 11 8 7 5 4 4 5 2 2 3 2 2 4 5 6 6 7 9 9 10 10
10 11 8 4 10 9 5 11 5 7 8 7 6 5 6 7 9 9 11 11 13 14 14 15 17 18 18 14 10 7 6 5 5 5 5 2 4 5 4 3 5 6 7 8 8 9 11 11 12
11 12 8 8 7 6 11 10 13 6 7 8 6 6 5 6 7 9 10 12 14 15 15 15 16 17 17 15 10 7 6 6 6 7 7 4 6 6 6 5 6 7 8 9 9 10 11 11 12
13 13 8 7 10 8 4 8 14 12 9 7 5 6 5 7 8 8 8 12 15 16 17 16 16 16 16 16 14 9 7 6 6 7 7 8 7 9 9 8 9 9 10 10 10 10 10 10 12
15 14 13 12 10 9 5 6 10 13 12 8 9 7 6 5 8 9 8 12 15 15 16 15 15 16 15 15 15 14 11 9 9 9 9 11 10 10 11 10 10 11 11 10 10 10 11 11 12
16 15 16 14 14 9 8 4 7 14 16 11 10 10 9 6 8 6 10 13 14 14 14 15 15 15 15 15 14 14 13 12 10 10 9 11 11 11 13 12 11 11 10 10 10 11 12 13 14
19 18 18 16 14 11 10 8 6 9 14 13 11 12 10 8 9 9 11 14 13 13 13 14 14 14 15 14 14 13 12 12 12 11 10 9 9 9 10 9 9 9 9 10 11 11 12 13 14
19 19 21 17 14 12 9 13 9 10 16 17 14 13 13 12 11 12 13 14 13 12 14 14 15 15 15 15 15 14 13 13 12 11 10 9 8 8 8 8 8 9 10 11 12 13 14 14 15
22 24 22 16 12 16 14 16 15 15 17 15 16 17 15 15 15 15 17 15 10 12 14 14 15 15 15 15 15 15 14 13 13 11 10 10 8 8 8 9 10 11 12 14 15 15 16 17 16
28 30 21 16 13 17 17 16 20 21 19 14 18 18 17 15 16 14 14 11 11 14 14 15 15 15 15 16 15 15 14 12 12 11 10 9 8 8 8 10 11 13 15 16 17 17 18 18 20
29 26 23 17 13 18 18 20 22 28 23 18 18 20 20 19 17 14 13 14 15 16 16 17 18 16 17 18 17 16 14 11 10 10 10 9 8 8 7 7 8 9 10 12 13 14 15 16 18
31 27 22 18 17 18 21 21 22 33 25 21 22 24 23 20 18 19 17 18 19 17 17 18 18 16 17 18 18 16 14 11 9 8 10 9 9 9 9 9 9 11 13 14 14 15 16 17 19
30 25 22 23 21 21 22 24 27 26 26 24 28 29 29 29 22 19 19 16 18 16 14 15 14 14 15 15 13 12 12 13 12 11 13 12 12 12 13 13 13 13 17 18 20 22 24 25 26
25 25 24 25 24 21 24 33 26 18 19 26 30 33 28 27 24 22 20 18 18 18 18 17 18 17 15 13 14 12 11 12 13 14 16 17 17 18 20 21 21 21 24 26 28 29 31 32 33
20 25 27 26 19 18 21 32 19 10 19 19 19 20 19 20 21 20 18 17 17 18 18 18 18 16 14 15 15 14 13 12 13 14 17 20 22 24 26 27 26 28 30 32 33 33 34 33 34
18 20 18 16 10 14 16 27 6 10 14 12 11 9 15 19 20 18 16 15 15 16 16 14 13 12 14 14 14 14 14 13 12 13 16 19 23 26 29 29 28 29 29 29 32 33 36 35 36
23 20 17 20 9 14 18 24 9 11 13 12 12 11 12 16 17 16 15 15 13 11 7 9 11 12 13 13 13 12 12 12 13 15 16 18 21 24 27 29 30 30 31 32 34 35 36 39 40
19 20 16 12 10 18 15 21 18 15 16 16 14 16 18 18 17 16 11 10 8 8 9 10 11 11 11 10 8 9 10 12 15 17 18 19 21 23 25 27 29 32 34 35 37 39 40 40 43
23 16 21 19 16 17 18 21 19 17 19 18 16 16 17 19 16 10 10 8 6 8 9 9 9 9 8 9 10 12 15 16 17 19 21 23 25 26 28 30 32 33 35 36 37 39 42 42 41
32 28 19 19 17 22 24 28 19 11 18 23 17 18 16 14 11 10 7 6 6 7 7 7 8 10 11 13 15 18 20 20 20 21 23 25 27 29 30 32 33 35 37 39 40 42 43 46 44
33 25 21 17 18 14 12 11 29 24 18 14 16 16 13 12 11 8 6 5 5 6 8 11 13 14 17 19 22 22 20 19 19 20 22 24 26 28 31 33 35 37 39 40 42 43 45 48 50
30 23 21 20 19 20 22 14 9 16 16 14 16 14 11 10 9 8 6 5 5 9 11 13 16 19 22 24 24 22 20 20 20 22 23 25 28 30 32 34 37 39 41 42 45 45 46 48 51
28 18 6 11 13 7 20 18 15 8 6 12 17 15 11 10 10 8 5 4 6 10 13 17 20 23 25 24 22 20 20 20 21 22 23 25 28 31 34 37 39 42 44 45 47 47 48 49 51
30 18 2 3 4 6 6 9 22 8 10 11 9 16 13 12 12 8 4 6 8 12 16 21 23 23 23 21 21 21 22 22 23 25 28 30 33 36 38 41 43 45 46 47 48 49 50 51 53
25 28 8 6 4 4 8 9 5 5 9 13 12 14 15 12 10 6 7 6 10 15 20 21 21 22 22 22 23 24 26 27 29 31 33 36 40 43 45 45 46 46 47 49 50 51 53 54 55
21 34 22 2 3 1 6 10 14 14 10 7 13 15 16 10 8 8 8 8 14 19 20 20 21 21 23 24 26 27 29 30 30 33 38 41 44 47 49 48 48 48 49 50 50 51 51 52 53
25 30 18 15 3 4 4 8 11 5 3 6 14 16 16 12 9 8 8 12 17 21 18 20 21 23 26 28 30 31 32 32 34 38 41 45 50 51 50 50 51 50 49 48 47 47 47 49 49
30 32 22 12 9 4 1 3 4 6 6 5 9 12 12 9 8 9 12 20 23 19 18 21 24 27 30 32 34 34 34 35 39 43 50 56 53 50 50 49 48 47 47 47 48 48 49 51 51
30 27 31 17 6 9 5 13 17 10 5 13 13 12 9 8 11 12 19 23 22 17 21 25 28 31 34 36 38 38 38 40 43 49 59 50 47 47 47 46 46 47 48 49 50 51 52 54 55

GFSSGP_700_spd_009.txt.gz
Wind_Speed
8 10 14 3 8 8 12 8 9 6 4 3 4 2 5 6 8 5 12 12 12 12 13 14 15 16 15 10 9 7 4 3 2 1 1 1 2 3 3 2 2 2 2 3 4 5 6 6 8
9 9 12 5 6 9 8 12 7 8 8 6 4 3 4 5 5 7 10 11 12 13 13 14 14 15 14 10 7 7 7 6 4 2 1 1 2 4 3 2 4 4 3 4 5 5 7 8 7
11 10 10 3 7 7 4 10 12 9 8 7 6 5 4 3 5 6 8 10 12 14 14 15 14 13 14 13 8 6 5 5 4 3 1 0 2 4 5 3 6 6 5 5 6 7 8 8 8
13 12 9 5 6 4 9 10 14 9 8 9 8 5 4 3 4 6 6 9 13 14 14 15 14 14 15 15 12 8 5 4 3 3 1 1 2 4 6 6 8 7 8 8 7 8 9 10 9
15 15 9 6 6 7 4 9 14 14 10 8 9 7 4 4 3 5 5 8 12 13 13 14 14 15 15 14 14 12 8 5 4 4 3 3 3 5 8 8 9 9 10 9 9 10 10 11 11
16 16 13 13 9 7 7 6 10 17 14 10 8 10 7 4 3 4 5 7 10 11 12 13 13 14 14 14 13 12 11 9 7 5 5 5 6 7 9 10 10 11 11 10 10 11 11 12 12
19 18 18 15 12 8 8 9 8 11 16 13 10 9 7 7 6 6 5 8 9 10 11 12 12 12 12 12 12 12 11 10 9 8 6 5 7 7 8 10 10 10 10 10 10 12 13 13 14
20 20 21 18 14 10 8 12 9 9 11 15 14 11 12 11 10 8 8 8 9 10 9 11 12 12 12 11 10 10 10 10 9 8 7 6 5 6 6 8 9 8 10 11 12 13 14 14 15
21 23 24 21 16 11 10 12 13 13 13 14 15 16 14 12 11 10 10 10 9 10 9 10 11 12 12 12 12 11 10 10 10 9 7 6 6 7 7 9 10 11 12 14 15 16 16 16 17
24 28 25 22 16 13 12 12 16 18 16 14 13 15 16 15 14 14 15 13 10 10 10 12 12 14 14 14 13 13 11 11 10 9 8 7 7 8 9 10 12 13 14 15 15 16 16 17 18
28 33 23 22 19 17 15 12 17 21 21 14 17 18 19 16 16 14 15 14 13 14 13 15 15 16 16 16 16 16 13 12 10 9 8 8 8 8 9 10 11 11 12 13 14 14 15 16 17
32 32 25 22 19 18 16 16 15 24 22 18 19 21 20 20 19 18 17 16 16 15 16 17 18 17 16 15 17 18 16 14 11 10 8 7 8 8 8 10 11 12 12 13 14 14 15 15 17
35 32 24 20 20 19 20 18 18 25 26 25 23 24 25 25 21 17 18 21 19 19 18 16 15 15 14 13 17 16 14 15 14 12 11 10 9 10 11 13 14 14 16 19 19 21 22 22 24
34 28 25 23 23 22 24 21 23 14 19 24 29 29 31 30 27 24 21 20 19 18 16 15 15 15 15 15 15 13 12 13 14 15 15 15 16 16 18 19 20 21 23 25 26 27 29 30 31
30 27 25 24 22 23 22 28 21 19 23 22 27 30 33 33 30 24 22 21 20 19 19 19 19 17 17 16 15 13 13 12 13 16 17 19 20 23 25 26 26 28 30 31 32 32 33 34 36
24 25 26 26 22 18 19 31 15 14 9 16 17 18 26 25 20 18 19 19 19 18 18 19 19 18 18 15 16 15 15 14 14 15 17 20 22 24 25 27 28 31 32 33 34 34 35 35 37
22 21 24 20 19 17 16 23 6 7 6 8 9 12 13 13 12 14 16 17 17 16 17 17 15 12 11 11 14 15 16 16 16 16 16 18 20 22 23 25 27 29 31 33 34 35 38 38 38
24 25 16 17 8 11 14 23 16 9 13 13 14 13 11 9 11 14 15 15 16 14 11 8 9 9 7 7 8 9 10 11 12 14 16 18 20 22 23 24 25 26 27 29 31 33 35 36 38
21 22 20 18 14 17 15 21 15 12 14 16 18 17 16 14 13 13 15 13 10 8 7 6 6 4 3 3 4 6 7 10 12 15 17 19 21 22 24 25 26 27 28 30 33 35 36 37 40
19 17 20 15 14 16 20 26 18 15 15 20 20 18 16 16 14 13 11 8 7 5 3 3 2 2 4 5 7 9 12 13 15 16 18 20 22 23 24 26 27 29 30 32 35 39 41 41 42
29 24 17 13 11 17 23 26 17 12 16 19 24 21 17 16 14 10 10 8 5 3 3 3 4 5 6 8 11 13 15 16 16 17 18 20 21 22 24 27 29 32 35 37 39 42 44 47 45
33 27 22 15 13 7 12 9 24 18 17 19 18 18 17 16 13 12 10 7 5 4 4 5 6 8 10 13 16 16 15 15 15 16 18 20 22 24 26 29 32 35 38 41 42 44 46 48 51
27 25 20 16 17 17 18 9 10 17 19 18 13 17 17 15 13 11 10 7 5 4 4 7 9 12 16 18 16 15 14 15 17 18 20 22 25 28 30 33 36 39 42 44 46 47 47 49 51
25 18 17 13 11 7 19 15 13 3 5 6 14 18 15 13 12 12 9 6 5 4 7 11 15 17 18 18 16 15 16 17 19 20 22 25 28 31 34 38 41 43 45 46 46 47 48 49 51
25 19 1 1 6 5 4 9 20 16 13 3 6 14 15 13 12 12 8 7 4 5 10 16 19 19 19 17 17 18 19 21 22 24 26 28 31 35 39 42 44 45 45 45 45 46 46 47 48
27 28 9 5 4 2 10 8 4 2 4 6 12 15 16 14 13 11 9 7 5 8 14 20 21 21 20 19 21 22 24 26 29 30 31 34 36 39 46 43 41 42 43 45 45 46 47 47 48
26 23 25 2 1 1 6 8 10 12 10 10 11 20 18 15 11 11 9 7 8 12 19 21 22 22 21 23 25 27 29 31 32 32 34 37 39 46 47 43 42 43 44 44 45 45 45 46 47
26 26 17 10 4 3 4 7 8 5 7 4 12 19 20 17 12 10 9 9 11 17 22 22 22 23 23 26 28 32 33 33 33 35 39 41 46 49 45 42 42 43 43 44 45 47 48 50 52
30 21 17 14 6 3 1 2 3 8 15 7 10 19 19 14 11 10 11 12 15 21 25 22 23 24 26 29 33 35 34 33 36 40 43 48 47 44 43 42 43 43 44 45 48 50 54 57 58
26 34 28 12 4 13 2 6 13 19 9 8 14 18 17 15 13 13 14 14 22 22 22 22 26 27 29 33 36 36 35 38 42 46 48 49 46 43 42 42 43 45 47 50 53 57 59 62 63

GFSSGP_700_spd_012.txt.gz
Wind_Speed
9 10 11 5 4 7 12 8 9 8 6 7 7 6 3 3 3 2 8 9 10 12 12 13 14 15 14 11 7 6 3 1 2 2 2 2 4 4 4 5 5 5 7 8 9 9 10 10 11
10 10 10 5 5 11 11 10 12 12 10 7 5 6 4 3 2 3 6 8 10 12 14 14 14 14 15 11 6 4 4 3 3 2 2 3 5 5 5 6 7 7 9 9 10 10 10 11 12
12 10 10 4 7 8 6 8 13 12 11 8 6 7 4 2 2 2 4 6 9 12 13 14 14 14 13 12 8 4 3 2 1 1 3 5 6 6 6 7 9 10 10 10 11 12 12 13 14
14 13 11 4 8 6 10 9 17 13 10 10 8 6 7 4 2 3 3 5 8 10 11 12 13 13 12 11 11 7 3 3 2 2 3 5 6 7 7 9 10 12 12 12 14 14 14 14 15
16 14 10 7 7 8 9 13 12 15 11 11 12 9 8 5 6 5 4 5 7 8 9 10 11 12 12 12 10 9 8 5 4 4 5 5 7 8 9 10 11 13 14 15 15 15 16 16 16
16 17 13 12 9 8 10 12 11 16 16 11 13 14 10 7 6 6 6 6 7 7 7 8 10 11 11 11 10 9 8 7 5 4 5 7 9 9 10 11 13 13 14 16 16 16 17 16 17
21 14 17 15 12 10 9 13 11 13 17 15 14 13 12 11 10 9 8 8 8 8 8 7 8 9 9 10 10 9 8 8 7 6 5 6 6 8 10 11 12 13 13 15 16 16 16 17 17
23 20 17 16 13 10 10 13 15 12 14 16 16 10 8 13 13 13 11 9 10 9 10 9 9 9 10 10 11 11 10 10 9 8 7 8 7 7 8 9 10 10 11 14 15 16 16 17 18
24 19 22 19 15 10 11 12 15 17 15 17 17 18 18 16 13 11 11 12 13 12 12 11 12 11 12 13 13 13 13 12 11 10 10 9 9 9 9 10 11 13 14 16 17 18 18 19 19
29 23 24 18 16 16 17 14 15 18 19 15 18 19 21 17 17 15 15 16 17 16 15 15 15 15 15 16 16 16 16 15 14 12 11 11 11 11 12 13 14 15 17 17 19 20 20 20 21
31 29 23 25 21 20 20 17 18 19 23 19 20 22 21 18 17 16 16 16 16 17 18 18 18 19 18 18 18 17 17 18 16 14 13 12 12 12 13 14 14 15 16 17 18 19 19 20 21
32 35 27 26 24 23 21 23 19 22 24 24 22 24 24 22 19 18 18 19 16 16 19 19 20 19 19 18 17 17 18 17 17 16 15 15 15 14 14 15 16 17 19 20 23 23 24 25 26
38 28 29 29 25 25 23 24 23 26 21 25 25 27 27 27 25 22 19 17 19 19 21 21 18 16 16 15 16 19 15 14 14 17 17 18 19 19 18 19 21 22 23 26 27 28 29 30 31
25 35 31 27 26 24 25 26 30 13 13 27 28 31 31 30 28 26 24 23 21 19 20 19 16 17 18 17 18 19 16 14 14 16 18 19 21 23 24 24 25 26 28 31 32 33 34 35 36
32 23 21 27 27 26 25 30 29 17 22 20 23 31 33 35 32 29 27 26 23 20 21 21 21 20 19 20 21 20 18 16 16 17 18 19 21 23 23 25 27 29 31 33 35 37 37 38 38
31 26 28 24 22 25 23 27 17 19 11 11 17 22 28 32 32 28 25 21 19 19 20 20 20 19 19 20 20 20 19 18 19 18 18 19 20 21 22 23 26 28 30 32 33 34 35 36 38
26 27 30 23 18 20 23 19 11 13 14 12 13 16 15 17 16 16 15 14 16 17 18 19 17 14 13 13 15 18 18 17 18 17 17 18 19 20 22 24 25 27 28 29 30 31 32 32 34
27 25 18 23 17 20 20 25 21 16 14 15 16 15 11 10 10 12 13 13 14 16 17 14 10 9 9 10 11 13 13 13 14 15 18 20 22 23 24 25 26 26 27 28 30 31 33 35 39
29 24 21 16 18 15 17 22 21 16 17 15 19 18 15 13 12 12 11 12 12 12 9 7 6 5 6 7 8 9 10 13 15 17 20 22 23 24 24 25 25 26 28 30 32 34 36 38 42
24 22 21 16 19 18 16 24 22 18 17 18 19 20 16 14 17 17 14 12 9 8 7 6 5 6 7 7 9 11 13 16 18 20 20 21 21 22 23 24 26 28 30 33 36 40 42 44 45
23 21 18 14 10 13 17 24 19 19 19 21 21 21 21 17 15 15 13 11 10 10 8 7 7 7 7 9 10 12 15 16 17 17 18 20 21 23 25 27 30 32 35 38 41 44 47 49 47
26 19 15 13 8 8 3 7 11 12 13 17 21 20 22 21 18 15 13 12 12 11 9 8 8 8 10 12 14 16 16 16 16 17 18 20 22 25 27 30 33 37 40 42 44 45 47 48 50
24 21 18 11 10 11 12 8 10 7 12 16 18 16 20 21 19 16 13 14 13 11 10 8 8 9 12 15 16 15 14 15 16 19 21 24 26 29 31 34 36 39 41 42 42 42 42 44 46
17 19 13 9 5 9 16 13 7 6 1 7 16 17 19 20 18 16 16 16 14 11 9 8 9 12 15 17 16 15 15 17 19 21 24 27 29 31 33 36 37 41 38 38 38 40 41 42 43
25 22 5 6 5 6 7 9 15 5 7 2 6 15 19 18 17 17 18 16 14 11 9 9 13 17 18 18 16 17 19 21 23 26 27 28 29 32 35 37 39 38 37 38 39 40 41 43 44
32 24 6 5 6 5 11 8 3 2 4 12 13 16 20 19 18 19 19 17 14 12 10 12 17 21 21 20 19 21 23 26 29 30 28 29 32 34 37 37 37 38 39 39 40 41 43 44 45
24 25 9 3 2 3 6 6 9 9 5 10 12 22 23 20 18 20 19 17 15 13 12 16 20 23 22 22 23 26 28 31 32 31 32 35 37 39 40 38 37 38 39 40 40 42 43 46 49
25 27 11 6 5 5 5 5 4 2 6 5 13 19 25 22 21 21 19 16 15 15 15 20 23 24 23 24 26 29 32 35 34 34 36 38 40 42 39 38 38 39 40 41 43 45 48 51 54
21 25 13 11 4 3 3 4 11 5 8 3 10 18 25 24 21 20 18 16 16 16 17 22 25 24 25 28 30 33 36 37 37 39 41 43 43 41 39 38 39 40 41 43 46 49 52 55 58
21 16 19 12 6 4 1 2 11 7 7 3 7 18 24 23 20 19 18 17 17 17 21 23 25 26 28 30 33 36 38 38 39 42 44 44 41 39 39 40 41 42 44 46 49 52 56 59 61

GFSSGP_700_spd_015.txt.gz
Wind_Speed
11 8 8 8 2 8 15 14 8 7 5 10 9 10 6 5 5 3 5 6 8 10 11 12 13 13 14 13 9 6 5 4 3 3 2 4 5 7 7 6 6 7 8 9 10 11 13 14 15
13 10 8 7 5 13 14 14 10 9 7 8 9 8 5 1 5 4 4 4 7 9 11 12 13 13 12 11 8 5 4 3 2 3 4 5 6 8 7 7 8 8 8 10 11 13 14 15 16
14 12 7 5 7 13 8 8 8 10 8 10 4 6 6 3 6 5 4 4 6 8 10 11 12 12 12 11 10 6 4 4 4 4 5 6 7 9 9 10 10 11 10 11 13 15 16 16 17
15 10 10 10 12 9 14 6 10 8 6 10 9 4 10 9 8 7 5 5 6 8 9 10 10 11 11 10 10 9 7 5 6 6 6 7 9 10 11 12 12 12 12 13 15 16 17 18 19
16 12 13 15 13 10 10 13 13 16 13 12 13 5 5 10 11 10 8 7 6 8 9 9 10 10 9 9 9 8 8 7 7 8 9 9 10 11 13 13 14 14 14 15 17 17 19 20 21
16 12 16 17 14 10 10 11 12 11 10 10 10 14 9 13 11 11 10 9 7 7 9 10 11 11 11 9 9 9 9 9 9 8 8 9 11 13 14 14 15 16 16 17 18 18 18 19 20
20 16 21 20 17 15 12 12 9 12 9 8 15 11 8 17 14 13 11 11 9 8 9 10 12 12 13 12 11 10 11 10 10 10 10 10 9 10 12 13 14 16 17 17 17 17 17 18 19
20 19 23 21 19 18 13 11 11 13 13 15 16 6 8 18 15 15 14 13 12 11 11 12 14 14 15 15 15 14 12 13 14 14 14 13 12 12 12 12 12 14 15 16 16 17 18 18 21
27 23 25 23 19 18 13 11 10 17 18 18 17 18 19 17 17 15 14 13 14 15 14 16 16 17 18 19 17 18 17 16 17 16 16 16 15 15 15 14 15 16 17 18 19 20 21 22 23
29 27 28 20 18 18 14 15 13 17 14 13 13 15 20 20 17 16 14 15 16 17 18 18 17 18 19 21 20 20 19 17 18 17 17 17 17 17 18 18 19 19 19 20 20 20 20 21 21
27 34 23 22 21 20 19 18 14 18 23 16 13 14 15 22 18 18 17 17 17 17 17 18 18 19 20 21 20 21 19 19 20 17 17 18 18 18 18 19 20 20 21 21 21 21 22 23 23
33 28 30 24 23 20 22 22 21 19 23 21 24 21 24 23 20 21 19 18 18 19 19 18 18 19 21 19 18 18 19 20 18 17 17 18 19 19 20 20 21 22 23 24 24 25 26 27 28
33 31 28 27 25 22 23 28 30 27 22 22 25 26 27 26 28 26 23 20 19 18 19 20 20 19 18 17 18 19 20 19 18 18 17 18 19 21 22 23 24 25 26 27 28 29 31 32 33
28 30 31 26 23 25 25 29 26 28 19 19 21 24 31 31 30 28 28 24 23 24 23 21 19 17 18 20 21 21 20 20 18 20 18 18 20 21 22 24 26 27 28 29 31 32 33 34 35
32 29 23 33 28 26 23 32 33 27 17 24 23 24 32 35 33 32 29 28 28 28 26 22 20 19 21 23 23 22 20 20 19 20 19 19 20 21 22 24 25 27 28 29 30 31 32 33 34
37 33 36 26 25 25 23 33 18 10 19 15 18 20 26 32 35 36 33 31 30 27 23 21 19 19 21 23 22 21 20 19 19 20 20 19 20 20 22 24 26 27 29 30 31 32 33 33 34
32 36 37 26 26 24 24 27 18 18 24 20 14 14 19 21 23 24 24 24 22 20 18 17 18 19 18 19 19 18 18 19 19 20 20 20 21 23 25 27 29 30 31 31 32 32 34 35 37
33 37 29 30 25 25 27 30 24 18 17 16 15 15 20 16 14 15 16 16 16 16 16 17 17 14 12 12 13 15 16 17 18 20 21 22 24 26 28 30 30 31 31 31 33 34 35 37 41
31 28 30 23 23 28 29 28 26 21 23 19 17 17 21 18 15 14 15 15 14 15 15 14 11 9 9 10 10 11 12 14 17 21 22 24 26 27 29 29 30 30 32 33 35 38 40 41 43
33 31 29 22 21 21 19 22 24 24 24 21 20 19 23 22 19 17 16 16 14 13 12 11 9 8 8 8 10 12 15 18 20 22 23 25 26 26 27 28 29 31 33 36 39 41 42 43 44
34 32 29 27 20 19 16 25 28 28 24 27 23 22 24 22 20 19 19 16 14 13 12 11 10 9 9 9 11 14 17 19 20 20 20 22 23 25 27 30 33 35 37 38 40 42 43 43 41
40 30 25 23 13 13 14 9 13 19 27 26 26 29 29 27 24 21 20 17 15 14 13 12 10 9 9 10 13 15 17 17 17 18 20 22 25 27 30 33 35 37 38 39 41 41 40 41 42
29 26 23 18 14 8 12 9 18 14 20 20 21 25 29 26 27 23 20 17 16 16 14 12 11 9 9 12 15 17 17 17 17 20 23 25 29 32 32 34 35 36 38 38 37 37 38 39 41
22 29 19 12 7 8 17 18 15 18 17 16 22 25 27 28 27 24 20 18 18 17 15 13 11 10 11 14 16 16 15 16 19 22 25 30 32 31 31 34 35 37 36 35 35 37 38 40 41
31 36 9 6 5 7 9 16 16 5 12 9 9 19 22 24 25 22 20 21 20 18 16 14 12 11 14 16 19 17 17 19 23 26 30 32 31 32 34 35 36 36 34 35 37 38 39 40 42
33 27 13 7 9 12 9 9 9 18 19 19 13 11 20 23 23 21 22 22 21 19 17 15 13 15 17 20 20 19 21 24 28 30 34 35 34 36 37 37 36 35 36 37 38 40 41 43 44
28 26 7 5 6 11 11 11 6 10 7 10 17 19 21 23 22 22 24 23 21 20 18 16 16 18 20 23 22 23 26 29 32 35 38 37 38 40 39 39 37 37 38 40 41 42 43 44 46
26 21 11 4 7 5 9 9 6 10 5 7 16 17 22 24 23 24 25 24 22 20 19 19 18 20 23 25 24 27 30 32 36 39 41 42 42 43 41 39 38 38 39 40 41 43 44 47 49
29 18 9 7 1 3 6 6 12 8 2 5 11 16 19 27 26 23 24 24 21 20 20 20 21 23 26 27 27 30 33 35 39 42 44 44 44 43 40 39 38 39 40 41 44 45 47 50 52
21 24 18 12 7 7 4 6 16 5 2 2 5 10 18 25 25 23 24 23 20 20 21 21 23 26 29 29 30 33 35 38 42 45 45 45 44 42 39 40 40 41 43 46 47 48 50 52 54

GFSSGP_700_spd_018.txt.gz
Wind_Speed
11 9 8 8 2 3 9 16 9 1 6 10 11 10 4 4 6 3 4 4 6 9 10 12 13 13 14 13 12 9 8 7 5 3 3 4 6 7 7 8 7 7 7 8 9 9 11 11 13
12 11 7 7 5 8 11 10 9 9 13 12 8 7 0 1 9 7 4 4 6 9 10 11 12 13 13 13 12 9 7 6 6 5 5 5 6 7 8 9 7 7 8 10 10 11 13 13 15
13 12 8 5 8 11 7 7 7 13 9 8 4 5 4 5 8 8 5 5 6 8 9 11 12 13 14 13 12 11 9 7 7 7 7 7 7 8 9 9 10 11 11 12 12 13 14 15 17
15 11 10 13 14 13 9 14 10 11 13 6 7 2 10 11 11 8 7 7 6 7 9 11 11 13 14 14 13 12 11 10 9 8 8 9 10 11 11 12 13 13 13 14 14 15 16 17 19
16 14 14 14 16 13 12 8 16 17 14 9 9 10 6 9 12 11 10 9 9 8 7 9 11 12 13 14 14 14 13 12 11 10 10 10 11 12 13 14 14 14 15 16 16 17 18 19 19
17 13 14 19 17 15 11 10 14 12 6 13 13 14 10 12 14 13 12 11 11 10 8 9 11 13 14 15 15 15 15 14 14 13 12 12 12 12 14 14 15 16 17 18 18 19 19 19 19
21 19 20 18 20 17 8 12 16 7 15 5 16 11 11 12 16 15 12 11 12 12 11 9 12 13 14 15 16 16 16 16 16 16 15 14 14 14 14 14 14 15 16 17 17 17 18 18 19
23 20 24 23 22 21 12 17 19 17 18 14 14 8 10 12 13 15 14 13 13 15 14 12 13 16 15 15 18 18 18 18 18 18 18 16 15 15 15 15 16 16 17 18 18 19 20 20 20
19 26 28 25 23 19 14 16 15 13 18 17 17 18 16 16 15 17 13 13 14 14 14 16 18 17 15 15 18 18 18 18 18 18 19 18 17 16 15 15 15 15 17 17 18 18 18 17 18
31 29 36 22 18 19 19 14 17 15 15 17 8 8 16 19 22 18 15 14 13 13 14 17 18 17 19 19 19 18 17 16 17 17 17 17 16 16 16 15 16 16 16 16 17 17 18 18 19
31 39 29 24 23 18 24 24 17 18 17 17 13 13 14 15 21 17 16 15 16 15 14 15 16 17 17 20 20 18 17 16 17 18 17 16 16 16 16 16 16 17 17 18 19 19 21 22 23
30 32 27 29 23 22 27 29 30 24 23 18 18 24 25 22 24 17 18 18 17 16 17 17 18 17 19 19 19 18 19 18 18 16 16 16 16 16 18 19 19 20 21 21 23 24 26 27 27
37 32 30 28 28 27 20 29 33 30 27 24 23 23 24 25 25 22 24 21 18 19 18 18 18 18 19 18 18 19 20 18 18 16 16 16 17 17 18 19 21 22 23 24 26 27 28 29 29
25 36 35 29 28 27 30 29 28 31 24 23 23 17 20 23 27 28 23 25 24 24 24 23 21 21 19 18 21 21 21 21 19 18 16 16 17 19 19 21 22 23 25 26 28 29 30 30 31
27 26 29 37 28 31 23 33 32 30 25 22 24 20 25 27 31 28 29 26 25 28 26 26 25 22 21 20 22 23 22 22 21 19 19 19 18 19 20 21 23 24 26 29 31 32 33 33 33
21 30 34 38 30 33 27 38 33 20 10 15 18 17 21 25 26 31 31 31 29 30 29 27 23 22 20 22 22 23 24 21 21 19 20 20 20 22 24 25 26 28 31 32 33 34 34 34 35
29 32 45 39 34 22 29 37 34 21 20 18 22 19 21 22 21 24 24 27 28 29 26 23 20 19 20 23 22 22 21 20 18 19 20 20 21 24 26 28 30 32 33 34 33 33 35 36 37
31 30 33 35 36 31 30 33 30 16 13 23 18 15 20 26 19 16 16 18 20 20 18 17 17 19 20 18 17 17 16 16 17 18 20 21 23 26 28 29 30 31 32 33 34 35 36 40 43
32 29 29 37 24 32 35 36 38 30 25 24 22 17 19 28 19 15 15 16 16 16 16 17 18 16 14 14 13 13 13 14 16 18 20 23 25 27 28 29 29 30 33 35 37 39 40 40 41
35 32 34 27 28 29 34 36 29 30 32 25 23 20 22 32 19 17 18 16 16 16 16 15 15 12 11 10 10 10 12 15 17 20 22 23 24 25 25 27 29 31 34 37 39 40 39 39 41
37 41 36 30 30 27 28 32 30 29 28 25 29 20 26 32 21 20 20 19 18 17 15 14 13 11 10 9 10 11 14 15 18 19 19 20 21 23 26 29 32 35 36 36 37 37 38 37 35
41 45 42 31 32 22 25 5 21 22 34 34 29 28 31 35 24 23 21 20 20 18 17 16 13 12 11 10 10 12 14 15 17 18 18 19 22 26 29 33 34 33 35 36 36 36 36 37 38
42 34 46 39 30 23 17 13 25 15 22 27 32 29 35 37 28 24 24 22 21 19 17 16 14 12 10 10 10 11 14 15 16 17 20 23 26 28 33 32 33 34 35 36 35 34 36 37 39
41 33 37 40 27 7 21 20 8 19 25 23 26 28 34 35 30 27 26 24 23 21 20 18 15 13 11 10 10 13 16 17 18 20 23 27 29 32 33 34 36 36 36 35 35 35 36 37 38
36 39 12 7 3 4 25 18 10 7 25 21 23 25 31 33 29 27 26 26 24 23 21 18 16 14 12 11 13 17 19 18 20 24 27 30 33 36 37 37 39 38 37 36 36 37 38 39 40
47 38 7 5 8 6 16 12 8 23 14 19 19 17 25 27 24 24 27 27 25 24 22 19 17 14 13 14 17 21 21 21 24 28 31 34 37 39 40 41 40 39 38 37 38 38 39 41 42
26 45 35 11 20 12 10 7 13 16 20 22 23 22 18 18 21 25 27 26 26 25 23 20 18 16 16 17 20 24 23 25 28 31 34 37 40 42 43 43 41 39 38 39 40 41 42 44 44
20 39 18 8 7 7 11 21 10 21 19 17 20 21 16 18 22 26 26 26 27 26 22 20 19 19 19 21 23 26 26 28 31 34 36 40 43 45 44 43 41 39 40 41 42 44 45 47 46
25 19 16 6 3 4 5 4 15 17 14 13 16 16 16 21 24 25 24 26 28 25 23 20 20 21 22 24 27 29 29 31 34 36 39 43 45 46 45 44 41 41 41 42 45 47 48 48 48
29 15 8 2 3 5 4 5 15 14 8 8 12 12 15 20 25 25 24 25 25 24 23 21 21 22 24 27 29 31 32 34 37 40 43 45 47 47 47 44 43 42 43 46 48 49 48 49 50

GFSSGP_700_spd_021.txt.gz
Wind_Speed
12 11 10 9 3 3 6 13 9 7 7 13 5 10 6 4 2 6 3 4 5 6 9 11 13 14 15 16 16 14 11 10 8 6 5 5 5 5 6 7 7 8 8 7 8 9 9 10 12
13 13 11 9 4 6 6 8 11 6 8 11 11 10 2 0 3 7 7 2 2 5 8 10 12 14 15 16 16 16 15 12 10 8 7 6 6 6 7 7 8 8 9 8 9 10 11 11 12
14 14 12 5 6 9 5 7 2 5 4 11 11 6 4 7 8 9 7 5 4 4 7 9 11 13 15 16 17 16 17 16 14 12 10 9 8 8 8 8 9 9 10 11 12 12 13 13 14
15 13 13 13 13 8 11 9 11 8 6 11 13 5 6 8 9 8 10 7 6 5 4 7 10 12 14 16 17 16 15 15 15 15 13 11 10 9 10 11 12 11 12 13 14 14 15 16 16
17 16 16 15 16 12 7 16 16 14 13 12 15 8 7 7 7 11 11 10 8 7 7 6 8 11 13 14 15 16 16 15 15 15 15 14 13 11 10 10 11 13 14 14 15 15 16 17 17
20 18 17 20 21 13 8 10 15 20 12 9 10 11 10 9 11 11 13 13 10 8 8 7 8 11 12 13 14 16 16 16 16 15 15 15 14 13 12 11 11 12 13 14 14 14 14 14 14
24 22 23 22 22 20 10 10 14 16 12 11 10 9 9 7 10 11 13 13 11 10 9 8 9 12 12 13 14 15 15 16 16 16 16 16 15 14 13 11 11 11 11 11 11 13 13 14 14
26 26 28 27 24 23 11 9 15 18 18 16 9 6 5 9 10 11 13 13 12 11 11 10 10 13 13 12 13 15 15 16 16 16 16 16 14 13 13 13 12 11 11 11 11 12 12 12 12
28 31 36 35 29 26 13 12 16 19 21 20 15 11 10 12 13 14 14 14 13 12 13 10 11 13 12 11 13 15 15 15 14 16 16 15 13 11 12 12 11 11 11 11 11 11 12 12 14
34 41 42 35 27 25 18 14 20 19 23 18 17 9 6 15 15 21 18 15 14 13 14 13 11 11 12 11 14 16 15 13 13 14 14 12 12 11 9 10 10 10 11 13 13 14 16 17 18
38 45 37 35 28 22 22 22 23 26 26 22 16 16 9 14 10 13 16 20 17 16 13 12 14 14 13 13 15 15 13 13 13 14 11 10 10 11 11 12 14 14 15 16 18 19 20 21 22
35 39 38 36 27 30 30 22 27 31 33 25 20 23 24 22 21 19 17 17 19 19 16 13 14 15 15 17 18 17 14 16 14 14 13 12 12 12 14 15 16 17 18 19 20 21 22 24 24
35 33 31 34 33 32 30 28 25 33 36 35 29 22 27 27 26 24 26 22 20 19 18 15 16 16 17 18 19 20 20 19 18 15 15 14 15 15 15 17 19 20 21 22 23 24 25 26 27
23 34 39 36 35 32 34 36 29 34 31 30 29 24 23 25 25 26 27 24 21 23 22 21 19 20 20 21 21 20 23 22 20 17 16 15 16 16 16 18 19 21 23 24 26 28 29 30 29
32 32 32 43 38 36 28 36 39 36 32 32 21 20 23 25 27 27 28 26 25 22 23 22 22 23 22 21 22 23 23 23 21 19 18 15 17 17 19 19 21 24 25 27 28 29 29 30 30
29 29 40 35 39 37 31 45 36 30 29 23 15 18 19 20 22 23 24 25 26 26 25 24 23 24 24 22 21 24 24 23 21 19 18 17 18 19 20 22 24 27 29 29 30 30 30 32 34
26 29 28 38 33 34 36 40 38 35 30 22 13 18 20 21 20 20 22 24 24 26 26 24 24 24 23 24 22 23 23 21 17 17 18 19 19 20 22 24 27 29 29 30 30 32 34 35 37
26 33 34 33 38 32 35 37 33 30 22 23 24 19 23 27 22 19 18 18 19 21 23 23 23 21 21 20 21 20 18 17 16 17 18 18 19 21 23 25 27 28 29 31 33 34 37 40 39
26 23 26 30 23 27 42 44 40 30 25 23 21 21 19 23 21 19 18 16 17 18 19 18 17 18 19 19 16 16 15 15 14 16 16 19 20 22 24 25 26 29 31 34 36 37 36 36 37
32 35 37 32 25 22 34 37 34 38 36 30 27 27 25 28 22 22 20 18 16 16 16 15 15 15 14 13 13 13 12 12 13 16 17 18 20 21 22 24 27 30 33 35 35 35 35 36 39
36 37 39 36 25 31 29 38 44 37 35 34 34 34 29 31 26 24 22 18 16 16 16 15 15 14 14 14 12 11 12 12 14 16 17 17 18 20 23 26 29 32 33 33 35 36 36 35 34
35 35 32 32 24 22 22 13 41 43 39 39 34 31 30 34 30 30 23 20 19 19 18 17 16 15 14 12 11 11 11 12 14 15 15 16 19 22 25 27 30 32 33 34 35 36 37 36 35
41 28 28 26 30 34 36 18 34 25 42 45 38 36 35 37 31 32 23 21 21 21 20 18 16 15 13 12 11 9 9 11 14 15 15 17 21 24 27 30 32 33 34 35 35 36 36 36 37
30 29 28 22 25 18 41 28 17 31 36 26 28 40 37 38 35 35 29 25 24 23 21 20 19 16 14 12 10 7 9 13 15 16 18 21 24 27 30 33 35 36 37 37 37 36 37 37 39
29 25 5 8 8 13 18 27 29 19 24 28 25 38 43 38 36 35 31 28 27 25 23 22 20 18 15 12 9 9 13 16 16 19 23 25 28 30 33 36 38 39 39 39 38 37 38 39 40
33 37 15 7 8 9 28 12 21 22 11 27 21 23 34 37 35 32 27 29 29 27 25 23 21 18 15 12 11 12 16 19 20 23 26 29 31 34 37 39 41 41 41 40 39 39 40 41 42
36 36 49 8 15 10 10 18 22 26 18 22 26 26 22 20 25 28 29 29 29 27 25 23 22 19 16 14 14 16 19 22 24 26 29 32 34 37 39 41 42 42 41 40 40 40 41 43 45
29 34 27 13 5 5 16 12 14 27 27 24 25 26 23 19 20 24 26 29 30 28 26 25 23 20 18 17 18 20 22 25 27 29 31 34 36 39 41 42 43 42 41 40 41 42 44 46 46
34 23 27 23 23 4 5 6 15 31 26 25 24 23 21 18 19 23 26 29 28 26 26 25 22 20 19 19 20 23 25 28 29 31 34 36 39 41 43 44 43 42 41 41 43 46 47 48 47
30 38 36 19 16 9 8 2 19 23 20 16 15 16 19 18 20 22 25 26 25 25 26 24 22 21 20 21 22 25 28 31 32 34 37 39 41 42 44 44 44 42 42 43 46 48 48 48 48

GFSSGP_700_spd_024.txt.gz
Wind_Speed
14 13 11 9 7 6 8 4 8 5 7 8 7 7 11 10 6 2 1 1 3 4 6 8 11 12 14 14 15 15 16 13 11 11 11 9 7 5 5 5 6 7 7 8 7 7 8 8 10
15 14 12 10 8 9 5 3 6 8 10 10 8 9 4 6 6 3 4 4 3 3 4 7 9 11 13 14 14 14 14 15 14 12 11 11 10 7 6 6 6 7 8 8 8 9 9 10 11
17 16 13 8 12 14 4 3 4 2 4 10 12 14 7 6 8 6 4 4 4 3 3 5 7 9 11 13 14 14 14 14 13 13 13 12 10 8 7 6 6 8 8 10 10 10 11 11 12
18 16 15 16 18 14 11 2 4 10 5 7 13 17 9 8 9 7 6 7 6 5 3 3 5 8 10 12 14 14 13 13 13 13 12 12 12 10 8 8 8 9 10 11 11 11 12 12 12
20 20 19 19 21 14 12 7 6 13 15 12 12 11 9 10 10 8 9 8 8 8 5 4 4 7 9 10 11 13 13 13 13 13 12 12 11 10 9 8 7 9 10 11 11 12 12 11 11
23 23 21 27 27 17 15 4 6 15 15 13 14 14 13 11 10 9 9 9 11 11 8 5 5 7 8 9 9 11 13 13 13 13 12 11 11 9 8 7 7 8 8 8 8 8 8 9 10
26 27 31 30 27 23 15 8 8 15 15 13 11 9 11 11 13 11 9 10 10 12 11 8 6 7 9 9 9 10 12 14 14 12 13 12 10 9 9 8 8 8 8 8 9 9 9 10 10
28 29 34 34 31 28 19 11 7 13 15 14 15 8 8 10 12 11 10 11 11 12 11 8 7 8 9 9 9 10 13 13 13 12 13 12 10 9 9 7 7 8 8 9 10 10 10 11 12
32 34 41 39 35 28 23 14 10 13 18 17 17 15 10 10 11 12 13 11 10 12 12 10 9 10 10 9 10 11 13 12 12 13 13 12 10 9 8 8 8 8 9 9 10 11 12 13 14
36 44 47 40 36 30 24 23 17 15 21 22 18 23 16 13 12 12 16 14 13 12 13 12 11 10 10 10 10 12 13 12 12 13 13 11 10 10 10 9 10 11 12 13 14 15 17 19 20
39 49 44 42 36 31 30 29 23 15 23 26 25 20 18 14 13 17 16 18 18 16 15 13 12 10 11 10 11 12 13 13 13 13 13 12 10 10 10 11 11 13 15 16 17 18 18 19 20
41 44 43 40 37 34 32 29 28 27 23 24 27 23 20 21 18 15 15 19 16 19 19 16 13 12 11 12 13 14 14 14 14 13 13 13 12 12 12 12 13 14 14 16 17 18 19 20 21
39 40 40 40 39 38 30 37 36 33 25 23 25 28 25 27 25 23 21 24 23 22 19 17 15 14 14 15 16 17 16 16 16 15 14 14 13 14 14 14 15 15 16 17 19 21 23 23 23
33 34 37 37 39 40 40 40 40 39 30 29 32 35 33 29 32 32 31 30 29 26 24 21 19 18 18 19 19 19 19 18 18 17 15 14 13 14 15 15 16 17 18 20 23 24 25 25 25
35 36 32 38 38 37 31 45 48 41 37 34 36 33 28 31 31 31 31 35 34 29 25 23 20 20 19 21 22 23 22 21 21 19 16 14 15 17 17 17 18 19 21 23 24 26 27 27 27
25 33 36 33 32 39 32 58 41 40 38 39 37 34 28 32 28 30 27 25 26 26 25 26 24 22 22 23 24 24 22 22 22 19 16 15 16 17 18 19 20 21 23 25 25 27 29 30 31
26 26 27 31 34 29 37 54 42 36 38 42 43 28 27 24 28 26 19 21 25 28 27 28 27 26 26 27 24 22 22 22 21 17 16 17 17 18 19 21 21 23 25 26 28 31 32 33 34
27 31 30 30 26 22 40 48 45 39 37 37 37 27 23 23 24 21 20 23 22 23 25 29 30 28 28 25 20 22 21 21 18 16 17 16 17 19 20 21 22 23 26 28 31 33 35 35 33
33 25 33 31 22 27 31 38 42 43 43 39 32 30 30 25 23 26 26 23 21 21 24 28 28 27 23 19 19 21 19 17 16 15 15 16 17 19 20 21 22 25 28 30 32 33 33 35 35
35 38 37 28 20 25 27 37 36 42 44 37 30 29 24 30 30 25 25 23 20 19 21 21 21 20 19 19 19 18 17 14 13 13 15 17 18 20 20 21 23 26 29 31 32 32 33 35 37
33 37 32 27 26 30 31 46 38 37 40 39 39 38 31 32 33 29 25 22 20 19 19 17 17 17 17 17 17 15 13 12 13 13 15 17 18 19 20 23 25 28 31 32 32 33 34 35 37
35 32 28 27 18 13 7 17 34 34 36 41 37 43 37 37 38 33 29 24 20 21 20 17 17 17 16 16 15 13 12 12 12 12 15 16 17 19 22 25 27 29 31 32 33 34 35 35 37
29 20 21 22 21 22 32 20 35 34 36 38 39 43 39 39 43 39 32 27 24 22 22 19 17 16 15 16 15 13 11 9 9 11 14 16 19 22 25 26 28 31 32 34 35 36 37 38 38
25 20 22 23 17 13 45 21 32 39 40 33 34 42 39 39 42 40 35 32 30 24 24 20 18 19 19 16 14 12 9 8 9 11 14 17 21 24 26 29 31 33 35 36 37 38 38 38 39
29 23 5 6 9 13 14 23 46 15 32 20 27 31 40 42 43 39 37 34 31 26 25 22 21 20 19 17 14 12 10 9 11 13 16 20 23 26 30 32 34 36 37 39 40 39 39 38 39
32 33 9 7 4 7 16 16 29 32 40 24 23 36 37 44 48 40 38 34 32 27 27 24 23 22 19 17 15 13 11 13 15 17 20 23 27 30 33 36 38 39 40 41 41 40 39 39 41
24 32 44 10 18 6 11 27 40 38 29 32 29 33 34 43 45 40 37 36 32 27 28 26 25 23 20 18 16 14 14 16 18 21 24 26 29 32 35 38 39 40 42 43 42 41 41 41 44
36 25 15 20 6 10 9 15 24 24 38 33 30 34 30 31 42 39 37 35 30 27 29 28 26 23 20 18 17 17 17 18 21 24 27 29 32 35 37 39 40 42 43 43 42 42 43 45 46
31 42 23 23 21 5 4 12 29 32 32 32 26 30 25 25 30 34 34 31 28 29 31 28 26 24 21 19 19 19 19 21 24 27 30 31 34 37 39 40 42 43 43 42 43 44 46 47 48
30 45 43 19 20 15 5 16 28 31 27 33 25 24 25 25 22 24 26 26 27 30 30 28 27 24 22 21 20 20 22 24 27 30 32 33 36 39 40 41 43 43 43 42 44 46 47 49 50

GFSSGP_700_spd_027.txt.gz
Wind_Speed
16 15 12 11 7 6 6 5 7 7 4 8 6 8 10 11 5 3 7 3 1 2 4 6 8 9 11 12 12 12 13 13 12 10 10 9 8 6 5 4 4 5 5 5 6 5 6 8 8
18 16 14 12 10 9 6 5 4 2 6 6 5 9 10 12 8 7 4 4 3 2 3 4 6 7 9 11 11 12 12 11 12 13 11 9 7 6 4 3 4 5 6 6 6 7 7 8 9
20 18 16 10 14 19 6 9 4 6 4 8 9 9 11 12 10 7 5 4 3 3 2 3 5 6 8 9 10 10 11 11 11 10 11 10 9 6 4 4 5 6 6 7 8 9 9 10 11
22 20 17 19 20 12 13 8 3 5 3 9 10 9 10 12 12 11 8 6 5 5 4 2 3 5 7 8 9 10 11 11 11 10 10 8 7 6 6 5 6 6 7 8 9 10 11 12 12
23 23 22 21 25 21 16 12 9 7 6 11 14 13 10 11 13 12 11 8 7 7 6 4 2 4 6 7 8 10 11 11 11 10 9 8 7 6 5 4 5 5 6 7 8 9 9 10 11
26 26 23 30 29 21 17 12 10 10 7 12 13 16 15 12 12 12 12 12 11 10 9 7 4 3 5 6 7 9 11 10 11 10 10 10 8 7 5 5 5 5 5 6 7 8 9 10 10
29 29 33 33 32 26 19 16 11 12 9 14 14 15 17 16 13 13 12 11 11 11 11 9 7 5 5 7 7 8 9 10 10 10 11 11 10 8 7 6 6 7 8 8 9 10 11 11 11
29 30 35 37 36 31 20 18 13 11 8 12 13 13 14 14 15 15 14 13 12 12 12 10 9 7 7 7 7 8 9 10 10 10 11 12 10 9 7 6 5 5 7 8 8 9 10 11 11
31 33 41 42 37 31 22 22 17 15 13 11 14 16 14 15 15 15 14 14 11 11 12 12 11 9 8 8 8 9 10 10 10 11 11 10 10 8 7 6 7 7 7 9 10 11 12 13 14
34 41 46 41 37 33 27 26 20 19 16 14 17 18 16 17 16 14 18 16 14 12 12 12 13 11 10 9 9 10 11 11 10 11 11 11 10 10 10 9 10 10 10 11 12 12 13 14 15
38 46 42 41 36 35 33 33 30 26 23 17 18 19 20 22 23 22 20 17 15 15 12 13 13 13 11 10 10 11 12 12 11 11 11 11 12 11 11 11 12 12 12 13 13 15 15 16 17
38 41 42 42 38 38 37 33 33 33 30 22 15 19 21 21 25 27 25 23 20 16 15 16 16 14 13 12 12 13 14 15 13 13 12 12 13 13 12 12 13 13 13 13 14 16 18 19 20
36 39 39 39 39 40 39 40 38 39 34 30 25 22 21 23 24 25 22 25 26 22 17 15 18 17 16 14 14 16 18 18 16 16 14 15 15 14 14 15 15 15 15 15 17 19 20 21 21
29 32 39 39 38 40 42 44 40 43 36 36 30 28 27 27 26 26 27 26 27 25 23 20 21 20 19 19 18 19 20 20 19 18 17 16 15 14 15 16 16 16 17 18 20 21 22 22 21
30 35 35 34 36 39 39 49 52 44 39 41 39 34 32 32 30 32 36 34 34 33 29 27 25 25 24 23 23 23 22 22 21 19 16 15 15 15 15 17 17 18 20 21 22 22 23 23 24
22 30 33 31 32 30 33 60 42 39 41 44 45 41 39 38 31 33 35 35 33 30 28 30 29 28 27 26 26 25 25 23 21 19 16 14 14 15 16 17 18 19 21 23 23 24 26 27 28
22 28 23 19 25 27 32 46 36 38 37 45 47 47 45 40 32 35 34 33 30 27 25 26 27 30 30 29 28 26 25 23 22 20 17 15 15 16 17 18 20 22 23 24 25 28 30 30 31
19 26 28 28 22 22 32 48 44 38 29 38 44 47 46 40 31 31 32 28 25 22 21 24 28 32 33 32 29 26 25 23 21 20 17 16 16 17 18 20 21 23 24 26 28 30 32 32 30
32 22 17 21 19 27 34 42 38 39 45 43 43 43 42 36 29 28 26 27 25 22 22 24 25 28 31 30 27 25 24 22 21 19 17 16 16 17 19 21 22 24 25 27 29 31 32 33 33
39 38 37 36 28 26 35 48 43 41 43 46 45 44 41 34 34 31 26 26 24 23 22 23 24 25 25 25 23 23 23 22 20 17 15 15 16 18 20 21 22 24 27 29 30 32 33 33 34
32 33 27 29 27 32 33 53 46 42 39 39 46 43 39 34 34 31 31 26 23 21 20 21 19 20 20 21 22 23 23 20 16 14 14 15 17 18 20 22 24 26 28 30 31 31 32 34 36
34 30 27 28 22 15 11 14 36 29 38 40 40 44 41 36 36 33 33 30 25 19 17 19 18 18 19 19 21 20 17 15 14 13 14 14 17 18 20 23 26 28 29 31 31 32 33 36 38
23 22 15 19 21 25 36 19 23 21 37 41 41 38 42 41 41 37 35 31 29 24 21 19 19 20 20 19 19 18 16 14 13 12 12 14 16 19 22 25 27 29 31 32 33 34 36 38 39
23 18 17 15 18 15 26 22 35 33 41 34 33 31 36 40 42 41 39 35 32 27 24 20 20 21 20 19 18 16 15 13 12 11 11 14 17 20 24 27 29 31 33 35 36 37 39 40 39
29 23 4 7 8 8 1 20 46 15 23 34 26 23 31 37 41 45 43 40 36 31 25 22 22 22 21 20 18 17 15 14 11 11 13 16 19 23 26 29 32 34 36 37 38 39 41 41 40
34 35 8 6 5 4 21 18 46 45 45 43 26 23 28 38 42 45 43 36 33 31 27 24 22 24 24 21 20 17 16 14 13 13 16 18 22 25 29 32 34 37 38 39 41 42 42 40 40
20 33 40 11 12 4 10 28 34 37 44 37 32 27 24 35 36 40 38 33 33 30 27 24 23 26 25 22 20 19 17 16 15 17 19 22 25 28 31 35 37 40 41 42 43 43 42 41 41
29 18 10 18 5 6 13 21 24 19 18 32 35 29 28 29 31 34 37 35 34 32 29 25 26 27 25 23 22 21 19 18 18 19 22 25 28 32 34 37 39 42 43 44 44 43 42 43 43
34 33 18 15 18 4 5 13 34 37 39 32 20 31 29 31 30 33 35 36 34 34 29 26 29 29 27 24 23 22 21 20 21 23 25 28 31 34 36 39 42 42 43 44 43 43 44 45 46
35 38 39 19 13 23 25 34 25 28 25 29 28 26 25 26 19 20 28 32 34 32 28 28 30 29 27 26 24 23 22 22 24 26 28 31 34 36 39 41 42 43 43 42 43 44 45 46 48

GFSSGP_700_spd_030.txt.gz
Wind_Speed
18 16 14 12 9 7 7 5 5 7 5 8 7 10 8 7 10 5 10 8 5 2 1 4 6 7 8 9 10 10 9 10 11 11 9 7 6 4 3 1 1 1 2 3 3 4 5 5 7
20 17 16 13 11 11 8 8 8 8 7 7 8 8 6 6 8 8 10 6 4 2 1 3 5 5 7 9 9 10 10 10 10 10 10 8 5 3 2 1 1 1 2 3 3 5 6 7 8
21 18 17 11 16 23 7 11 8 10 7 7 9 9 8 8 6 8 9 8 6 3 2 3 3 4 6 7 8 9 9 9 9 8 7 7 6 5 3 2 2 2 3 4 5 5 6 8 9
22 20 19 20 22 13 17 14 8 9 7 5 4 8 9 10 10 10 9 8 7 4 4 2 2 3 5 6 7 8 8 8 8 7 7 6 5 5 3 2 2 3 4 6 6 7 8 9 10
23 23 24 23 27 27 15 14 9 10 8 5 7 11 10 10 11 13 12 11 9 6 5 4 2 2 4 6 7 7 8 8 8 8 8 7 6 5 3 3 3 4 4 4 5 5 6 7 8
24 25 24 29 31 25 18 16 14 13 12 8 6 9 13 12 13 15 14 12 10 9 9 7 5 4 3 5 6 7 8 9 9 9 10 9 8 6 5 3 3 4 4 5 6 7 8 8 9
26 29 31 31 32 26 20 19 15 13 15 11 8 11 12 15 14 14 15 14 11 11 11 9 8 6 5 5 6 7 7 9 9 9 9 10 8 6 4 3 3 4 4 5 6 7 8 9 9
25 29 33 35 35 32 22 20 17 16 13 11 10 9 11 14 17 17 17 15 14 13 12 11 10 8 7 6 7 7 7 8 8 8 9 9 8 6 5 4 4 4 5 5 6 6 7 8 10
26 29 36 38 36 34 25 23 22 19 17 13 11 10 9 11 13 18 18 17 15 13 13 13 12 11 10 8 8 9 8 9 8 8 9 9 8 7 7 6 6 6 7 7 8 9 9 9 11
29 34 37 38 35 34 28 27 20 21 21 17 13 12 12 11 15 15 19 19 15 13 13 14 14 14 13 11 10 10 9 9 9 9 9 10 10 9 8 8 9 9 9 9 10 10 10 10 12
32 38 35 36 33 32 34 32 28 27 29 17 17 15 15 13 12 18 19 18 17 16 14 12 14 14 14 13 13 11 11 11 11 11 11 11 12 12 11 11 11 11 12 11 11 12 12 13 15
32 34 35 38 38 37 36 34 34 35 34 27 19 22 18 15 14 14 20 23 22 19 18 16 14 14 14 14 14 14 14 14 13 13 13 13 14 14 13 12 13 12 13 13 13 14 16 18 17
30 31 33 37 38 38 39 41 39 40 36 36 32 26 25 21 19 19 21 24 25 25 19 18 16 15 16 16 16 17 17 17 17 16 16 16 16 15 14 13 14 13 13 14 15 17 19 19 19
27 25 29 35 38 39 40 42 42 43 39 38 38 35 31 28 26 24 25 24 25 24 23 23 19 18 18 19 18 20 21 21 20 19 18 18 17 16 16 16 15 16 16 16 18 20 21 21 21
27 29 30 33 31 32 33 46 49 43 42 42 41 40 37 35 32 30 26 28 28 27 27 24 22 22 23 22 24 24 25 24 22 20 19 18 17 16 17 17 16 17 17 18 19 20 22 22 23
17 22 26 24 25 30 29 50 30 23 36 42 40 42 44 40 38 35 30 32 34 35 33 32 31 29 27 25 27 28 27 26 24 21 20 18 17 17 16 17 17 16 18 19 20 22 23 24 25
21 21 18 17 16 20 22 37 35 33 34 38 38 43 47 46 44 41 32 32 32 33 33 31 28 27 28 28 30 29 28 28 24 21 20 18 17 16 16 17 16 17 19 21 23 24 25 26 27
15 19 19 17 18 21 29 40 39 41 39 38 39 42 48 50 49 44 37 34 35 32 30 29 30 28 28 29 30 29 30 29 25 22 20 18 17 17 16 16 17 19 20 22 25 27 29 28 27
25 22 22 20 16 24 32 41 43 43 43 47 46 42 46 50 49 47 41 36 32 29 27 26 24 21 25 29 31 30 29 27 24 21 21 18 19 17 16 16 18 19 22 25 27 29 29 29 29
29 30 33 36 34 35 43 55 48 45 46 46 47 45 45 44 44 45 40 35 29 25 27 26 23 20 21 24 24 25 25 26 24 21 20 19 18 17 16 17 18 21 24 27 28 29 31 30 30
32 34 34 35 31 33 35 58 50 45 45 42 44 45 42 45 43 38 36 32 28 26 26 24 21 19 20 21 23 25 26 25 24 21 19 17 15 15 16 17 20 23 26 28 29 30 31 31 32
31 28 26 27 23 14 9 15 39 37 33 30 38 40 40 40 41 40 38 35 31 27 23 20 19 18 18 20 20 21 21 22 20 20 16 14 14 14 16 18 21 24 27 29 31 32 32 33 34
25 23 20 16 20 25 28 17 22 22 35 35 32 33 35 34 36 39 39 36 32 29 24 19 17 17 18 18 19 20 21 21 19 17 16 13 13 14 16 19 22 26 29 31 33 34 35 36 37
27 19 18 18 19 15 26 21 41 34 42 43 27 21 29 30 31 37 40 38 33 33 29 23 19 17 18 19 20 20 20 19 17 15 13 13 13 15 17 21 25 28 31 33 35 37 37 38 39
20 15 4 7 8 8 6 21 46 13 10 18 16 28 24 28 30 39 43 41 37 34 30 23 20 17 19 20 19 19 19 19 18 17 15 13 14 16 20 23 27 31 33 36 38 39 39 40 41
26 32 10 5 4 4 17 13 31 40 39 39 40 30 20 21 31 33 40 43 40 36 30 24 21 20 20 20 20 20 21 21 19 17 15 15 16 19 23 26 30 33 36 38 41 40 41 41 42
20 30 35 20 17 5 10 30 40 37 35 32 32 34 25 27 20 28 36 38 40 36 31 26 23 22 21 22 22 21 21 21 19 17 17 18 20 23 26 29 33 36 38 40 42 42 42 42 43
31 19 11 21 5 5 10 22 30 23 16 10 17 22 28 24 25 25 33 34 37 34 29 27 25 24 24 25 24 23 23 22 20 19 19 21 23 26 29 32 36 38 40 43 43 43 44 43 43
27 34 20 12 10 4 4 10 24 9 8 16 29 29 18 23 26 21 21 28 35 30 30 27 25 25 26 26 25 24 24 23 22 22 22 25 26 29 32 35 38 40 43 44 44 44 43 43 44
29 35 39 21 9 15 18 36 40 31 21 22 25 23 20 16 25 22 25 27 35 32 30 27 26 26 27 27 26 25 25 25 24 24 26 27 29 31 35 38 39 42 44 45 45 43 43 44 45

GFSSGP_700_spd_033.txt.gz
Wind_Speed
18 17 14 12 8 7 7 5 6 6 7 10 9 11 12 9 10 9 10 11 8 5 3 3 4 5 5 7 7 7 7 6 6 6 6 3 2 1 1 2 2 3 3 2 3 3 3 4 5
20 17 15 13 10 11 8 8 10 8 8 10 11 10 12 10 11 7 11 12 8 5 4 3 4 4 4 6 6 7 6 6 5 5 5 5 4 2 1 1 2 3 3 2 2 3 4 5 6
21 19 16 10 15 22 6 8 12 10 7 7 10 11 10 10 10 12 13 11 7 6 4 2 2 2 3 4 5 6 6 6 6 5 5 4 3 2 1 1 2 2 2 3 3 4 5 6 7
22 20 18 18 20 12 16 11 11 11 9 8 9 8 11 10 11 12 12 10 14 10 6 4 2 0 1 3 4 5 5 6 6 6 6 5 3 2 0 1 2 2 3 4 5 5 6 7 8
24 23 23 20 26 25 14 12 15 13 10 10 10 9 8 10 11 12 13 14 13 11 8 6 4 3 2 3 4 5 6 6 6 5 5 5 4 2 2 3 2 2 3 4 3 4 4 5 6
25 25 21 29 30 24 20 17 18 14 12 10 8 7 9 10 10 12 13 15 15 13 11 9 7 6 5 4 5 5 5 6 6 6 6 6 4 3 2 2 3 3 3 3 4 5 5 6 7
25 27 28 28 30 24 22 21 18 19 18 14 12 10 9 12 12 12 15 16 15 15 13 12 11 9 8 6 6 6 5 6 6 6 7 7 5 4 3 1 2 2 4 3 4 4 5 5 6
24 26 26 31 33 30 25 21 20 19 20 18 16 10 11 12 14 15 15 15 16 17 17 15 13 12 10 8 7 7 7 6 7 6 7 7 6 4 4 3 3 2 3 4 4 5 6 7 9
24 27 31 33 32 30 23 22 23 23 20 18 17 13 10 10 12 13 16 17 17 17 17 16 15 14 13 11 9 8 9 8 8 7 7 8 7 6 5 5 5 6 6 6 7 8 9 9 10
26 30 31 32 30 30 28 25 22 18 24 22 21 19 15 12 13 13 15 17 17 17 18 18 17 16 15 13 12 11 10 9 8 8 9 10 9 8 7 7 7 7 7 8 8 9 10 11 12
28 32 30 31 29 30 31 30 29 26 26 26 25 25 21 20 17 18 17 17 18 17 16 16 17 18 17 16 15 15 13 12 10 10 11 11 12 11 10 9 10 9 9 9 10 10 12 13 14
27 28 29 31 32 33 33 32 31 33 31 29 27 26 26 25 22 19 22 21 20 17 18 17 16 16 16 16 16 17 16 15 14 13 13 13 14 14 13 12 12 11 11 11 12 12 14 15 16
27 27 29 32 34 35 36 39 39 39 33 36 37 30 28 26 26 25 23 23 22 22 22 19 18 16 15 15 16 17 18 19 18 17 15 15 15 16 16 15 15 13 12 13 13 14 15 17 17
26 24 26 30 33 36 38 39 39 41 36 38 39 41 34 31 30 29 28 25 25 23 25 25 21 18 17 16 17 17 20 22 21 20 19 17 17 16 17 17 16 15 14 14 15 16 17 19 20
22 25 27 29 29 34 32 41 44 34 36 38 39 42 42 39 34 34 30 27 27 27 26 24 25 25 20 20 21 22 23 24 24 24 21 19 18 16 16 17 16 16 16 15 16 17 17 19 21
16 19 23 21 23 27 28 43 35 29 28 35 39 40 44 44 43 40 36 33 29 30 28 27 26 25 25 25 26 26 25 26 26 25 23 20 18 17 16 15 16 15 15 16 16 17 18 20 21
21 21 19 19 17 20 24 32 25 24 33 37 36 34 43 48 47 46 44 39 34 34 34 33 32 30 27 29 31 31 28 27 27 25 24 21 19 18 16 15 15 14 15 16 17 18 20 21 23
16 20 22 20 18 21 29 40 36 31 33 35 35 36 40 46 50 48 46 43 40 37 35 31 28 29 29 29 32 33 30 27 28 25 24 22 18 19 17 14 14 15 15 16 18 21 23 24 23
23 20 20 20 18 28 35 44 40 35 39 42 41 41 41 43 42 49 49 48 45 41 36 34 29 28 29 31 34 33 31 29 28 25 24 21 20 16 21 14 14 15 16 18 20 23 25 25 26
24 27 30 28 27 29 39 54 48 44 44 43 42 43 42 42 39 44 48 50 47 43 37 35 27 27 28 28 27 27 27 28 27 26 22 18 25 18 22 16 15 15 16 19 22 25 26 27 28
28 31 32 34 31 33 38 60 49 43 42 42 41 41 41 41 42 42 43 47 46 43 35 31 28 27 28 26 26 25 26 28 27 25 22 17 24 19 18 15 15 15 18 21 24 26 28 30 30
27 26 24 23 19 12 11 17 34 40 40 34 29 26 36 35 37 38 42 44 43 41 34 32 30 27 27 24 24 23 22 23 25 22 21 19 19 18 15 14 15 17 19 23 26 28 30 32 33
24 23 20 22 20 23 22 13 32 19 28 28 24 20 28 26 29 31 35 42 38 37 33 33 29 26 24 22 22 21 21 23 23 23 22 24 18 15 13 14 16 18 22 25 28 31 33 34 35
15 18 19 20 21 14 25 20 45 26 30 23 21 19 25 21 24 26 28 37 40 39 36 35 29 23 21 20 21 20 20 23 22 25 20 21 17 14 14 15 17 21 24 27 30 33 36 37 38
22 10 3 6 8 8 11 18 43 22 16 29 26 28 12 18 22 24 28 35 40 42 38 36 31 23 20 19 21 22 22 22 21 24 18 18 15 14 15 17 20 23 26 30 33 36 38 39 39
21 28 11 6 5 5 16 13 31 35 31 35 31 30 28 20 17 20 28 31 38 41 38 37 32 24 21 19 21 23 24 22 24 23 22 18 16 16 17 19 22 25 29 32 36 38 40 41 41
13 27 26 25 28 16 21 36 42 46 42 31 26 18 23 23 20 21 27 29 38 41 37 33 32 27 23 20 22 23 23 26 27 24 21 19 18 18 20 22 25 28 32 35 38 40 41 42 42
28 14 10 20 5 9 8 15 26 32 13 20 23 24 17 16 22 22 23 24 33 43 39 35 32 28 25 22 22 23 24 28 24 23 22 20 19 21 23 25 28 31 35 38 40 42 43 42 42
24 32 25 22 19 6 9 16 25 28 16 10 9 16 15 14 21 25 28 24 30 37 40 37 34 31 27 24 22 25 25 25 24 23 22 21 22 23 25 28 31 34 37 40 42 44 44 43 42
28 31 36 21 16 15 16 40 23 23 17 24 36 31 26 13 20 29 26 24 29 34 36 37 32 30 27 24 24 26 26 25 24 24 23 23 24 26 28 30 34 37 40 42 44 44 43 43 43

GFSSGP_700_spd_036.txt.gz
Wind_Speed
20 17 15 12 5 7 10 7 9 5 7 18 15 12 10 10 8 10 11 12 11 9 7 5 3 3 3 4 5 5 5 4 4 4 4 4 3 2 1 2 3 4 4 4 3 4 5 6 7
20 18 16 13 9 12 11 10 10 8 10 13 14 13 12 10 13 10 8 15 12 9 6 5 3 2 2 2 3 4 5 5 4 4 4 4 3 2 2 1 2 3 4 4 5 6 6 6 7
21 19 15 9 14 19 10 11 10 12 10 10 14 14 14 15 13 13 10 15 12 8 7 5 4 2 1 2 3 4 5 5 4 4 4 3 3 1 3 4 5 5 6 6 6 7 7 7 8
21 20 19 16 19 14 14 9 14 13 11 12 14 11 15 12 14 13 16 16 12 9 9 7 6 5 2 1 2 3 4 5 5 4 3 3 4 4 4 4 5 6 6 6 7 7 7 8 9
22 23 17 18 24 19 12 15 17 14 13 14 15 9 12 13 13 16 18 18 14 13 13 12 9 6 5 3 3 4 4 5 5 5 5 5 5 5 5 6 6 5 5 5 5 6 6 6 7
23 23 17 26 24 19 22 18 17 18 15 13 14 14 14 13 14 16 17 17 17 18 18 15 12 10 8 6 5 5 5 5 5 5 6 6 5 4 4 5 5 5 5 5 5 6 7 7 7
23 23 25 24 23 22 23 22 23 20 20 14 17 11 12 16 15 14 16 17 19 20 20 18 16 14 12 10 8 7 6 6 6 5 6 6 5 5 3 2 3 3 4 4 4 5 5 5 6
26 20 21 23 27 27 20 23 24 23 16 22 18 14 12 16 17 16 15 15 17 19 20 20 18 16 15 13 11 9 8 8 8 7 6 6 6 6 4 3 3 3 3 4 4 5 6 7 8
24 20 24 26 23 21 25 25 25 25 24 25 22 22 21 20 17 16 16 16 17 19 22 21 20 19 17 15 13 12 10 10 9 8 8 8 7 7 7 6 6 5 5 6 7 7 8 9 10
26 22 23 22 24 25 23 25 25 22 27 25 25 23 24 22 21 19 17 17 19 21 22 22 22 21 20 18 16 15 13 12 10 10 9 9 9 8 8 8 8 8 8 8 8 9 10 10 11
27 24 22 29 30 32 31 29 29 28 27 27 24 24 28 25 23 23 22 21 20 20 19 21 23 24 22 20 19 18 16 15 13 12 12 12 11 10 10 10 10 10 10 9 10 11 11 12 13
26 27 30 29 31 31 29 28 30 32 32 24 32 33 31 29 27 26 25 23 21 19 20 20 19 21 22 21 20 19 19 18 17 16 15 15 14 13 12 12 13 12 12 11 12 12 13 14 15
23 25 28 30 30 30 32 35 35 37 32 33 34 36 36 35 32 30 28 29 28 24 21 19 20 19 20 18 18 18 19 19 20 19 17 17 17 16 16 15 15 14 14 14 14 13 14 15 16
23 25 28 30 31 33 35 37 37 40 32 36 36 41 39 38 36 34 33 32 31 29 28 26 24 21 20 19 18 18 19 20 21 20 19 20 19 19 19 18 16 15 14 15 15 14 15 17 18
23 24 26 29 29 32 32 40 43 35 35 37 38 41 44 43 39 39 36 35 33 31 31 31 28 25 23 21 20 21 22 23 23 23 22 22 22 20 19 17 17 16 15 15 14 14 16 18 20
12 16 13 19 22 25 28 33 22 22 28 37 37 38 43 46 47 42 40 39 38 36 33 32 31 29 29 25 24 24 26 26 25 26 26 24 22 22 20 16 15 15 15 14 14 15 17 19 21
13 12 14 16 18 20 24 23 24 24 28 34 35 32 37 45 49 52 49 45 42 39 37 34 32 30 29 29 29 30 31 32 30 29 28 25 23 22 21 17 14 14 14 14 15 15 17 20 22
9 15 14 15 9 19 26 33 35 33 32 34 34 36 41 38 43 50 54 52 48 45 41 38 35 33 32 31 33 34 34 35 32 31 30 26 24 22 18 19 15 14 13 14 15 16 18 20 22
15 12 15 15 16 26 32 36 34 36 39 40 39 41 40 40 41 44 54 55 55 52 48 44 40 36 32 32 33 35 34 33 33 33 31 27 25 21 18 21 18 14 13 15 16 18 19 21 24
19 20 22 21 18 21 28 49 41 43 43 41 41 41 41 40 41 41 43 53 55 55 53 49 43 40 34 32 33 34 36 35 34 34 32 29 22 21 23 20 19 15 15 16 17 19 20 23 25
20 22 21 22 22 25 30 50 26 15 23 27 32 35 37 39 41 40 40 47 53 56 54 50 45 40 35 33 33 32 32 32 33 34 32 28 22 21 26 25 20 15 15 16 18 20 23 25 26
18 17 18 16 12 11 6 18 31 27 25 26 28 27 27 25 29 33 37 43 49 53 52 49 46 42 35 33 33 31 30 30 32 33 29 26 24 16 19 22 19 16 16 17 19 21 24 26 28
13 13 10 11 16 21 22 12 33 17 23 25 28 30 30 19 23 27 31 37 44 46 47 47 45 40 34 34 33 31 30 31 29 29 29 28 26 23 21 19 17 16 17 19 20 23 26 28 31
13 12 11 13 12 11 25 24 38 27 22 16 3 3 11 19 23 22 27 35 40 46 45 43 41 37 35 35 33 32 29 26 27 30 27 23 24 25 21 18 17 18 19 21 23 26 29 31 34
15 10 3 4 7 8 4 15 39 27 19 21 30 28 22 20 21 19 26 31 37 44 46 42 39 37 36 34 32 29 27 25 26 29 24 29 21 24 20 20 18 19 21 23 26 29 32 34 37
15 19 8 6 6 9 4 15 21 20 17 23 32 32 29 27 24 20 23 27 34 39 44 43 39 37 35 32 30 27 27 27 29 24 26 27 24 20 21 19 20 22 24 26 29 32 35 37 40
11 21 19 25 31 22 19 35 41 34 29 29 25 23 23 11 21 26 24 25 32 36 42 43 39 37 36 32 27 26 25 25 25 22 26 27 24 22 20 21 22 24 26 29 32 35 37 40 42
20 9 7 13 6 10 16 29 25 24 18 15 15 20 15 17 15 22 27 26 31 33 39 43 40 37 36 32 28 24 24 26 23 28 27 24 23 22 22 23 24 26 29 32 35 37 40 43 44
20 28 22 16 17 6 14 13 10 16 13 16 17 18 17 19 17 18 26 28 30 31 39 42 40 38 35 32 27 24 24 24 28 28 30 26 24 24 24 25 26 29 31 34 37 40 43 44 45
19 23 24 20 17 24 33 44 20 20 20 19 17 21 28 24 18 19 28 29 30 32 39 44 40 37 34 31 27 25 23 25 25 31 27 25 25 25 26 27 28 31 34 37 39 42 44 44 45

GFSSGP_700_spd_039.txt.gz
Wind_Speed
20 17 14 11 6 9 15 14 12 7 8 12 12 14 9 13 6 13 11 17 12 10 8 5 2 2 6 5 6 6 6 6 6 7 7 6 5 5 3 3 4 4 5 5 6 5 5 5 5
21 17 14 8 11 18 16 14 11 9 9 10 13 13 11 8 15 13 7 13 13 12 8 6 3 1 1 2 4 5 6 6 6 6 7 7 6 4 4 4 4 4 5 5 5 4 5 5 6
20 17 11 10 20 23 16 9 10 11 7 6 9 15 9 9 14 15 9 12 14 11 9 6 4 3 3 2 1 4 6 6 7 6 6 7 7 7 5 5 5 5 5 5 4 5 5 6 7
20 18 14 18 21 18 18 10 11 7 7 10 10 9 14 14 15 14 12 13 14 13 11 7 6 8 6 4 3 1 4 6 7 7 7 7 8 8 8 7 6 6 6 7 7 7 6 7 8
20 15 18 21 27 22 15 14 13 10 9 7 11 11 10 18 16 15 13 16 17 14 12 11 11 11 9 5 4 3 4 5 5 6 7 8 7 7 8 8 7 7 6 6 5 5 5 5 6
17 17 21 27 27 22 21 16 12 13 11 11 12 11 10 17 18 16 18 19 18 19 18 16 16 14 12 10 8 7 6 6 6 6 6 7 7 7 8 7 7 6 6 5 5 5 5 6 6
21 20 26 26 24 23 22 17 19 15 15 13 12 13 12 18 21 20 19 19 19 21 21 20 19 17 16 13 11 9 8 7 8 7 7 7 6 6 6 6 5 5 5 5 5 5 5 5 6
20 22 28 28 29 28 20 20 18 17 18 18 19 14 13 20 21 20 20 20 20 21 22 21 20 20 18 16 14 12 10 9 10 10 8 8 7 7 6 6 6 5 5 6 6 6 7 8 8
26 23 30 28 28 25 19 19 17 16 22 19 16 18 22 21 20 22 21 20 21 21 22 22 22 22 21 19 17 15 13 12 11 11 10 9 8 7 7 7 7 7 7 8 8 8 8 8 9
28 25 26 21 21 24 19 18 14 20 24 25 19 24 28 25 23 23 22 23 23 22 22 23 24 24 24 23 21 19 17 15 13 13 12 11 10 10 9 8 8 8 8 9 9 9 9 10 10
20 30 18 21 24 25 18 20 20 19 19 20 22 19 25 27 27 26 25 24 26 24 25 24 25 25 26 25 24 23 20 18 16 15 14 13 12 11 12 12 11 11 10 10 11 10 11 11 12
23 20 24 20 20 28 28 22 24 23 27 19 18 26 29 31 29 27 27 26 25 27 25 24 24 25 26 26 25 24 23 21 20 18 17 16 14 13 14 14 14 14 13 13 13 12 12 13 14
21 20 17 24 24 28 27 29 29 25 26 31 31 32 40 33 33 32 30 28 28 28 28 24 23 22 22 23 23 23 24 22 22 20 19 17 16 16 16 17 17 16 15 15 14 14 14 15 15
7 18 21 22 26 28 30 32 30 32 29 34 35 40 37 38 38 34 33 33 32 31 30 28 25 24 22 22 20 22 22 21 21 21 20 19 18 18 19 19 19 18 17 17 16 16 16 16 17
21 24 23 27 28 27 26 36 38 32 33 35 35 36 38 42 42 43 36 35 35 33 33 32 32 30 28 24 22 22 22 23 22 21 21 21 20 20 20 22 19 18 17 17 17 16 16 17 18
10 14 17 11 19 20 23 28 11 10 21 27 33 36 39 43 45 47 46 42 40 39 36 36 37 34 32 29 26 25 25 26 24 24 23 24 24 23 23 22 20 19 18 17 17 16 17 17 18
14 13 15 15 14 12 17 18 12 19 25 24 23 26 27 36 42 47 49 43 41 44 44 42 39 35 33 31 31 29 28 28 28 28 28 27 27 26 25 23 19 19 19 17 17 16 17 18 20
16 17 17 15 9 13 19 28 27 26 28 29 29 29 29 32 37 42 49 54 44 39 48 47 45 40 35 34 34 32 30 33 33 33 32 31 31 29 26 22 21 17 17 17 16 16 17 18 19
12 10 13 14 14 22 27 32 29 28 33 36 35 35 37 37 34 37 41 52 59 58 54 51 49 45 40 37 35 34 34 36 36 36 33 33 32 30 25 22 22 21 16 17 16 16 17 18 19
16 17 18 19 18 20 24 41 35 37 39 38 38 39 38 37 38 37 39 44 49 58 60 58 54 51 47 43 38 35 39 37 36 36 32 35 32 30 27 24 21 22 19 19 17 16 17 18 20
17 18 17 18 19 24 29 45 20 14 19 22 26 31 32 34 38 38 39 42 44 49 58 61 59 56 52 48 43 42 39 36 35 34 35 35 33 30 28 27 23 23 23 20 17 17 18 19 20
13 12 14 15 12 9 3 17 25 25 25 24 24 23 24 27 30 32 42 41 42 43 48 58 61 62 56 52 48 45 38 34 33 32 32 33 30 32 27 23 22 27 21 19 18 18 19 21 23
9 7 7 9 13 20 22 14 32 13 20 20 19 21 21 22 23 25 32 34 40 43 47 54 58 60 57 54 51 43 39 37 34 32 31 32 33 31 28 23 23 22 21 20 20 20 21 23 26
10 6 10 10 10 10 22 25 36 14 12 11 12 17 11 8 16 19 29 32 37 44 47 52 53 52 55 55 48 41 41 37 33 32 31 31 33 31 27 26 28 23 21 21 21 22 23 26 29
12 6 2 5 6 8 4 14 32 16 17 19 14 16 19 23 24 21 22 30 34 38 46 53 49 49 51 48 44 39 41 34 32 32 28 30 32 29 25 23 25 25 22 22 22 24 26 29 32
15 14 7 5 7 12 9 13 16 12 13 14 19 24 23 25 27 37 28 29 33 36 40 47 47 47 45 44 41 43 38 33 32 31 31 30 28 28 29 27 26 24 23 23 25 27 30 32 35
7 17 13 19 25 17 16 29 33 29 27 20 21 23 25 21 19 24 31 30 30 32 37 40 43 46 42 40 42 40 33 32 30 31 32 30 27 27 26 23 24 24 24 25 27 30 33 36 38
14 4 5 10 5 10 12 27 25 24 22 18 21 17 16 16 15 21 21 26 31 28 31 35 40 45 42 41 40 35 31 29 29 30 30 24 25 25 26 26 24 24 26 28 30 33 36 39 41
18 23 14 12 12 6 12 12 9 12 16 17 15 18 18 15 19 21 23 28 29 29 30 35 40 45 45 41 36 32 29 27 26 27 25 23 28 27 29 24 25 26 28 30 33 36 39 41 43
17 18 21 14 11 16 23 41 37 32 27 25 21 16 13 16 20 28 21 24 27 29 31 35 41 45 44 38 34 31 28 26 25 29 24 30 25 28 29 26 26 28 30 32 35 39 41 42 44

GFSSGP_700_spd_042.txt.gz
Wind_Speed
17 15 13 10 7 8 14 17 10 6 6 13 12 12 12 7 7 9 7 12 14 11 9 6 3 2 6 9 9 8 8 9 9 8 8 8 8 7 6 5 4 2 2 3 2 3 3 3 4
18 15 12 8 11 15 20 13 13 11 11 11 18 19 13 3 13 10 3 9 14 12 10 7 4 2 6 8 8 8 7 8 8 9 9 8 8 8 7 5 4 4 3 4 3 3 3 4 3
19 16 12 7 17 22 18 7 9 8 16 13 2 7 8 12 12 19 9 8 12 12 10 9 6 3 5 6 7 6 5 6 7 8 9 9 8 7 7 6 5 4 4 4 4 4 5 5 5
18 17 17 19 22 17 17 11 9 12 9 7 10 7 17 13 11 16 13 10 12 13 12 10 7 6 8 6 5 4 5 6 7 7 7 9 9 9 7 6 6 6 6 5 5 5 5 5 5
20 18 17 17 26 23 19 15 9 13 7 6 8 10 10 15 18 15 13 14 15 14 13 10 9 9 9 8 6 7 7 8 8 8 8 9 9 8 8 7 7 6 6 5 5 4 4 4 4
23 24 15 24 26 19 18 16 19 14 12 7 14 14 9 13 18 16 15 16 17 16 12 11 11 13 12 11 10 11 7 8 9 9 9 9 9 9 9 8 7 6 6 6 5 5 5 4 4
27 27 25 22 23 20 20 15 16 12 14 14 9 12 15 18 17 18 16 16 18 18 16 17 17 16 15 13 12 11 10 8 7 9 10 10 9 8 7 7 6 5 4 4 4 3 4 4 4
26 25 26 24 25 26 18 14 24 21 17 13 18 19 9 15 17 21 19 19 20 20 19 18 19 19 18 16 15 14 11 10 8 8 9 9 8 8 7 6 5 5 5 5 5 5 5 5 5
22 26 27 29 24 24 18 22 18 24 22 16 20 23 18 16 15 20 21 21 21 20 21 20 21 21 20 19 18 16 15 13 11 10 10 9 7 7 7 8 8 8 7 7 7 6 6 7 7
28 32 30 22 17 21 23 25 23 21 23 26 13 19 29 22 18 20 22 22 23 23 23 22 24 23 23 22 21 19 18 18 15 13 12 11 10 8 7 8 8 9 10 10 9 9 9 9 9
28 32 21 25 16 26 24 20 21 24 21 24 23 19 23 28 27 23 23 24 25 25 25 25 26 25 25 23 23 22 22 20 19 16 15 14 12 11 10 10 11 11 11 11 11 11 11 12 12
23 16 23 22 17 25 33 32 24 21 29 24 17 21 21 28 28 32 30 28 27 28 28 28 27 25 26 24 24 25 25 23 22 19 17 16 14 13 12 13 13 14 15 14 13 12 13 13 13
20 19 20 22 27 27 29 34 41 35 27 29 30 33 30 30 31 30 28 29 28 26 31 30 28 26 25 25 24 25 26 25 24 22 20 18 16 15 14 15 16 16 16 16 17 16 15 15 15
8 19 22 19 24 36 36 35 31 34 30 32 33 39 42 42 37 34 32 31 32 30 32 31 28 28 26 25 24 23 24 24 22 21 19 17 16 16 16 17 17 18 18 17 18 17 17 16 16
24 20 19 25 29 30 25 35 37 29 28 31 32 33 40 43 44 42 38 35 34 32 28 34 31 31 29 26 25 23 22 24 21 22 19 16 16 16 17 18 19 19 19 19 19 19 18 17 17
19 18 20 20 17 22 22 40 25 5 15 24 32 35 35 36 39 40 41 41 36 36 36 35 36 35 33 32 29 27 25 26 23 23 22 20 18 19 20 20 20 20 20 19 19 19 18 18 17
15 13 15 11 14 14 21 27 12 9 22 27 25 24 29 36 40 41 41 43 44 42 41 36 33 41 37 35 34 31 29 31 29 27 28 25 22 22 23 24 23 22 21 20 19 19 18 18 18
12 19 15 16 11 16 21 29 28 25 24 27 27 29 31 32 33 36 42 44 48 49 46 44 42 45 40 37 35 33 32 34 33 31 30 31 26 26 27 26 26 24 21 20 19 20 18 18 18
16 12 12 11 10 18 24 34 34 31 33 34 35 36 34 32 31 33 35 38 46 51 47 44 51 53 48 42 40 39 35 35 35 33 32 31 26 29 28 29 27 25 23 21 20 19 19 18 17
18 17 18 19 17 21 28 38 35 32 33 33 32 33 33 33 32 31 34 36 38 45 55 52 48 52 55 50 45 40 39 38 35 34 33 31 28 29 27 30 27 26 25 21 21 20 19 18 18
17 16 15 18 20 26 27 39 11 6 13 13 18 20 24 27 30 33 37 38 40 40 45 59 59 57 54 54 50 46 45 42 38 36 32 31 28 29 29 29 28 26 24 24 23 23 20 18 19
10 11 13 14 11 6 4 12 30 25 25 27 29 25 26 27 28 31 33 37 42 41 42 43 57 63 56 56 56 52 50 47 41 37 33 30 28 29 30 29 29 26 24 25 25 22 22 20 20
11 10 13 10 11 17 17 10 29 24 28 27 21 20 20 17 25 26 23 28 34 42 40 41 42 49 54 56 61 57 53 50 44 40 36 33 29 29 31 30 29 28 26 25 25 23 23 22 21
11 10 11 9 8 7 14 20 23 12 2 5 4 6 14 21 25 25 33 35 32 36 44 46 44 42 48 52 59 60 55 51 47 42 37 33 30 30 33 32 31 31 27 28 24 24 22 23 24
12 5 2 4 4 7 0 17 24 12 13 21 23 25 17 23 20 22 28 29 25 30 36 40 48 45 46 53 55 55 56 54 48 42 37 33 32 31 31 32 32 29 26 26 25 25 24 25 26
14 11 5 5 2 4 14 11 12 13 15 16 16 24 23 30 34 35 34 35 32 33 33 36 47 48 48 52 48 44 51 50 48 42 37 34 32 30 30 32 29 27 27 28 27 26 25 26 29
8 17 3 6 12 8 10 17 27 19 19 18 21 24 22 23 25 25 28 34 32 30 34 32 36 49 52 49 40 45 47 41 39 37 36 32 29 29 31 29 26 29 29 29 26 26 26 29 31
9 5 4 5 2 5 7 20 20 16 13 10 13 14 15 21 23 27 33 35 22 22 24 31 31 32 43 42 43 46 41 37 37 35 33 30 29 31 30 28 27 28 27 26 27 27 28 32 35
20 16 8 5 7 3 5 5 6 17 24 27 33 40 32 18 22 27 32 29 26 25 20 27 27 29 36 39 45 40 36 35 33 32 30 28 29 27 28 26 31 25 27 27 27 28 31 35 39
13 12 15 8 6 12 14 22 29 21 23 31 37 27 25 25 21 19 29 26 25 22 20 24 26 27 35 40 41 34 32 31 31 29 29 28 27 27 29 31 26 28 26 26 28 30 34 38 41

GFSSGP_700_spd_045.txt.gz
Wind_Speed
17 15 14 12 7 8 11 8 5 9 12 10 13 9 9 6 9 8 4 9 10 8 8 9 7 4 1 6 9 11 13 10 9 8 8 8 8 8 7 6 4 3 2 2 1 1 2 2 2
18 16 14 12 10 13 15 5 9 9 18 16 17 15 10 10 11 9 3 6 9 8 9 9 7 4 1 7 9 8 7 6 8 8 8 8 7 6 6 6 5 4 3 2 2 2 2 1 2
19 18 16 12 16 21 15 6 16 14 14 14 12 16 18 12 16 14 10 5 9 10 11 10 8 5 1 7 7 7 6 7 8 8 9 9 9 7 5 5 5 4 3 4 3 4 4 3 3
21 20 19 19 20 20 20 9 3 11 13 12 11 3 12 11 12 15 15 12 12 13 12 12 9 5 6 9 6 5 7 8 9 9 9 9 9 8 7 5 4 4 4 3 3 3 4 4 4
24 23 24 22 29 21 14 11 4 16 10 8 13 10 8 17 16 14 19 15 12 14 13 12 10 7 8 9 7 7 10 8 8 8 9 9 10 9 7 6 5 3 3 3 3 2 2 2 3
24 24 18 30 29 20 20 17 11 16 16 12 10 15 11 12 12 16 20 17 15 15 14 13 9 9 9 10 10 9 9 9 8 8 8 9 8 8 8 7 6 4 3 3 3 2 2 3 4
27 27 31 28 24 19 15 8 13 23 18 18 10 13 15 17 12 14 19 17 16 15 16 16 12 12 12 13 13 11 10 9 8 7 8 9 7 6 6 6 6 6 5 4 3 2 1 2 3
29 28 31 31 31 27 15 16 15 26 24 19 16 15 19 12 15 15 19 20 18 17 18 19 16 16 16 16 16 14 12 11 9 8 8 8 7 6 5 6 6 6 6 5 5 5 5 4 5
26 31 33 34 31 30 21 19 11 22 21 20 25 18 20 18 15 17 20 24 21 19 20 20 19 18 18 18 18 16 15 14 12 11 10 8 7 6 6 6 7 7 7 7 6 7 7 7 7
34 38 39 32 30 24 19 24 19 19 23 22 22 23 21 22 20 19 19 21 23 23 24 22 21 22 21 20 20 19 18 17 16 15 12 10 7 7 6 6 7 8 8 8 8 9 9 9 9
35 39 37 29 18 21 29 25 22 20 23 26 29 25 24 24 30 25 22 23 23 23 24 25 26 25 23 22 22 21 21 20 18 17 16 14 11 9 8 7 7 8 9 9 10 10 11 11 11
31 34 29 23 24 27 29 30 29 28 29 25 29 31 28 25 28 29 31 27 26 25 24 27 26 27 26 24 23 22 22 21 20 20 19 18 15 13 12 10 9 10 10 10 12 12 13 13 14
27 26 21 20 28 31 32 34 35 36 33 35 34 34 33 25 30 34 32 33 32 33 32 30 28 28 28 27 26 25 24 24 22 21 21 19 18 17 14 13 13 12 12 13 13 13 13 14 13
16 17 21 27 28 34 37 39 38 41 35 35 33 35 37 30 32 32 36 33 32 31 34 35 33 30 30 28 27 26 26 25 24 23 22 20 17 17 14 13 14 16 16 16 15 16 16 16 16
20 18 21 30 30 32 40 44 45 34 31 37 43 41 43 41 40 42 37 37 36 35 33 37 35 30 31 28 27 26 26 26 23 21 21 18 17 16 15 14 16 17 17 18 18 18 18 18 17
20 20 24 19 19 22 27 44 29 22 25 29 33 36 37 46 50 48 44 42 40 37 36 37 39 38 34 33 29 27 28 25 25 22 22 21 20 18 18 17 18 19 18 19 20 20 20 19 19
19 20 18 12 11 15 22 29 20 19 27 32 29 29 31 36 40 47 48 45 44 44 42 39 41 43 38 34 33 31 31 29 29 27 26 24 23 22 21 21 22 22 21 21 21 21 22 21 20
19 15 13 15 10 16 21 29 27 20 23 28 30 30 29 29 33 36 40 41 41 44 46 45 41 43 44 41 36 35 34 33 30 31 28 26 26 23 25 26 24 22 23 23 22 21 21 22 21
17 9 13 16 7 16 21 28 30 29 30 33 32 34 32 29 25 27 30 34 39 43 46 45 42 42 42 46 45 40 38 37 34 34 31 26 25 21 27 27 25 23 23 22 23 23 22 22 21
13 18 19 19 17 19 29 39 37 34 32 30 25 29 29 27 28 30 32 34 35 37 41 48 46 43 45 45 48 46 41 40 36 35 33 28 25 23 25 25 26 24 24 23 22 23 22 22 22
20 21 20 19 22 24 31 42 29 17 17 14 12 14 17 20 24 27 30 34 36 39 40 43 49 46 44 47 47 51 48 42 40 39 36 30 27 24 25 26 27 25 25 23 23 23 23 24 23
16 16 13 13 13 9 6 12 29 20 24 23 20 19 21 22 22 24 27 30 36 43 42 42 50 54 49 44 47 52 54 49 46 43 39 34 29 27 26 27 28 28 26 25 24 24 24 26 24
10 9 11 14 15 19 23 12 19 17 16 11 13 14 13 10 11 16 17 21 25 31 40 45 44 53 58 55 50 48 54 51 47 44 41 39 34 32 29 29 30 30 27 27 27 25 25 25 27
10 13 12 9 9 5 16 18 5 2 1 5 7 6 8 13 18 23 24 26 28 28 26 35 43 45 50 63 61 56 53 57 52 48 44 42 37 36 33 31 32 33 30 29 27 30 30 27 26
11 6 2 1 2 7 4 12 24 8 14 15 19 23 19 21 24 27 28 28 29 31 31 31 34 46 44 43 58 61 56 60 56 47 44 42 37 37 35 33 31 33 33 32 31 28 28 27 27
17 8 4 4 3 4 6 12 8 16 20 15 13 13 15 20 22 26 30 35 38 40 35 32 30 34 46 48 47 50 56 54 51 45 44 43 39 38 37 33 32 31 33 31 29 28 30 29 29
10 13 5 3 7 3 9 13 21 11 13 16 21 22 21 22 26 23 32 36 42 44 42 37 36 32 33 47 49 46 47 48 46 41 41 39 39 40 38 35 33 32 33 31 32 30 31 29 29
5 6 6 5 2 5 8 11 20 15 18 16 13 16 17 19 24 30 36 41 36 41 40 30 24 31 31 39 46 48 47 44 41 37 33 36 37 37 36 34 33 28 32 30 28 31 31 30 30
20 13 6 5 6 4 4 7 7 10 18 25 30 33 35 33 29 26 33 38 39 39 30 27 23 23 27 34 40 44 44 39 34 33 32 34 33 34 34 33 29 30 31 31 28 30 29 30 31
13 20 17 7 4 11 8 13 11 15 14 29 43 51 51 37 24 32 35 36 37 38 33 26 21 24 27 30 34 41 42 38 31 31 31 31 32 32 32 29 36 36 32 35 30 27 29 30 33

GFSSGP_700_spd_048.txt.gz
Wind_Speed
19 17 15 13 9 10 13 8 14 4 5 9 11 6 8 10 6 6 3 11 15 14 12 9 9 5 3 3 8 10 10 6 6 6 6 6 6 6 5 5 4 3 2 2 2 1 0 1 4
20 19 17 14 12 16 16 11 7 10 8 9 13 16 8 10 10 8 3 12 15 15 12 10 10 8 4 2 7 7 7 7 7 7 7 7 7 6 5 5 4 3 3 2 1 0 1 3 4
23 21 19 14 18 26 17 8 6 6 10 12 13 16 17 15 17 13 8 4 11 12 12 10 10 9 5 2 6 5 6 7 7 7 8 7 7 6 5 4 3 3 2 2 2 2 3 3 4
26 23 22 22 23 25 22 10 9 9 11 14 12 13 13 20 23 18 14 9 8 11 11 11 10 8 4 3 3 2 7 9 6 7 6 7 8 7 5 3 2 1 1 2 2 3 3 4 5
27 26 28 25 31 28 22 19 12 7 7 15 16 13 8 13 15 16 16 14 11 13 13 13 12 10 4 4 5 4 8 9 8 8 7 7 6 6 6 5 4 3 2 2 2 2 3 4 4
28 29 22 32 33 28 22 14 12 9 9 15 17 16 12 10 13 12 17 15 12 15 16 15 14 10 6 5 7 8 7 8 8 8 7 8 7 6 5 5 5 5 4 3 2 3 4 5 6
30 30 33 32 31 27 21 18 15 13 18 19 17 18 19 16 15 12 10 15 14 16 18 18 17 12 11 8 9 12 10 8 9 7 7 8 7 6 6 6 6 6 6 5 4 3 3 4 5
30 31 33 34 32 29 19 18 17 15 15 21 22 23 23 18 19 18 13 12 15 18 19 20 18 15 14 12 13 14 12 10 11 9 8 7 7 7 6 6 5 5 5 5 4 5 5 6 6
30 34 37 36 33 31 20 21 18 9 14 25 26 24 21 18 18 18 17 17 18 18 21 21 22 19 17 16 15 15 14 13 12 12 11 9 6 6 6 6 5 5 5 6 6 6 6 7 9
36 41 40 36 34 25 27 26 25 17 13 23 25 23 26 26 22 24 21 18 17 20 19 20 21 20 19 17 17 17 17 16 15 14 13 12 10 8 6 6 6 6 6 6 7 7 8 9 10
38 41 41 34 34 28 32 26 26 19 21 25 26 25 27 24 26 24 23 23 22 18 21 20 21 21 20 20 19 19 18 18 18 17 16 14 13 11 10 9 8 8 7 7 8 8 8 10 10
36 38 35 32 29 27 28 31 31 25 24 28 29 30 26 25 32 34 32 28 25 25 24 24 24 22 22 21 21 21 21 21 20 20 19 17 16 15 13 12 11 10 9 8 10 11 11 12 12
38 34 34 31 27 30 33 33 34 36 27 29 33 36 37 36 33 35 37 30 30 31 28 28 26 25 24 23 23 23 23 23 22 23 21 20 18 17 16 15 15 12 13 11 11 12 14 14 15
25 33 28 28 31 34 37 39 39 41 34 31 35 36 38 40 44 41 40 39 37 35 37 35 34 32 31 30 28 26 25 24 23 24 23 21 20 18 17 17 15 15 14 13 13 14 16 17 16
24 15 21 26 29 33 37 44 49 42 37 40 38 39 39 39 43 46 45 43 39 37 34 37 39 37 34 32 30 28 26 25 23 22 22 20 18 18 17 17 15 16 15 15 16 16 17 18 19
17 21 23 22 21 24 28 50 43 36 38 41 43 44 46 45 44 43 44 44 41 38 38 35 35 36 35 31 30 29 27 26 24 22 22 21 20 19 18 17 17 18 18 20 20 19 18 20 21
21 16 19 18 16 23 27 37 30 22 30 34 33 34 40 45 48 51 51 49 44 42 40 39 38 39 38 35 33 31 30 30 27 25 24 25 24 21 20 19 21 22 22 22 21 20 20 21 22
17 22 22 19 17 17 23 30 25 23 26 29 29 32 35 37 36 40 51 57 52 47 44 43 42 43 41 37 36 35 33 33 31 30 27 27 24 22 21 23 23 23 22 20 20 20 19 20 22
12 13 14 17 15 22 26 30 31 30 32 31 30 28 28 26 21 31 39 48 53 53 54 52 45 44 46 44 40 41 38 37 36 34 31 29 25 23 21 22 23 24 22 21 20 19 19 20 21
13 19 20 19 20 23 29 35 32 29 31 31 28 30 32 32 28 29 32 35 41 45 50 51 50 51 46 46 45 40 42 41 39 36 35 32 29 26 21 22 22 23 24 22 21 21 20 20 20
13 14 18 21 22 25 32 40 34 26 23 21 13 16 20 22 27 29 32 34 35 37 38 40 45 52 51 48 44 44 45 44 43 40 37 37 33 27 25 23 22 23 24 25 23 23 22 21 22
14 17 20 22 18 10 11 10 29 20 18 18 17 17 18 18 18 20 24 29 36 39 40 42 42 43 56 54 51 48 48 49 46 42 39 38 37 32 28 24 23 23 25 28 28 25 24 23 24
15 15 13 13 15 19 19 10 12 16 11 8 11 9 5 8 13 12 12 16 21 28 33 40 45 45 47 53 56 53 49 48 45 45 43 40 41 36 33 29 27 24 26 30 32 28 27 26 24
16 13 11 13 12 5 6 11 9 1 7 8 6 8 7 10 17 20 20 20 21 23 26 30 34 47 48 53 54 54 52 49 43 43 44 42 39 38 37 33 29 28 29 32 33 32 31 28 30
16 10 1 2 1 6 3 6 15 7 6 11 11 14 18 11 13 19 23 23 27 29 29 27 25 27 39 51 55 61 58 51 48 43 41 43 42 41 40 36 32 29 30 34 33 36 34 31 33
18 10 3 4 3 4 4 7 3 2 11 15 17 15 16 16 18 20 25 25 27 31 32 34 34 30 28 33 44 53 60 56 49 50 45 42 42 44 43 37 33 31 33 35 36 38 36 40 31
14 10 8 3 5 2 7 7 12 12 5 8 14 20 20 22 23 24 25 27 30 31 32 34 35 36 33 37 39 45 51 49 48 49 48 46 43 40 40 37 35 33 37 38 38 36 38 28 37
8 10 6 5 1 4 6 7 13 7 13 13 9 13 17 20 23 25 30 30 34 38 41 41 38 36 34 36 35 40 44 45 41 41 43 45 42 41 38 38 36 38 40 38 36 38 43 31 33
19 10 6 4 4 3 4 8 6 6 13 19 27 30 33 42 42 41 46 45 47 46 40 35 34 37 32 27 29 33 36 40 40 40 38 38 40 40 37 36 38 40 38 31 38 42 40 33 31
12 19 14 5 3 6 2 15 6 7 15 19 39 38 34 29 32 31 29 25 34 37 37 37 35 34 29 25 26 28 30 34 36 37 36 36 34 32 32 35 36 37 32 36 38 41 40 28 34

GFSSGP_700_spd_051.txt.gz
Wind_Speed
21 20 18 16 10 10 13 9 10 9 9 6 5 5 6 8 8 7 5 15 11 13 13 10 8 5 6 4 8 11 11 9 9 8 7 6 6 5 5 5 4 3 3 2 3 2 2 1 2
23 21 19 16 13 17 16 14 9 8 10 9 5 7 11 9 10 6 7 13 16 16 14 13 11 9 7 5 7 8 9 9 9 8 8 7 7 5 5 4 5 4 2 1 1 0 1 1 2
24 22 21 16 21 28 11 11 10 10 12 10 8 10 11 15 13 10 5 9 13 13 14 13 11 10 7 4 4 4 7 9 8 8 8 7 7 7 6 5 4 3 3 3 2 2 2 3 3
26 24 24 23 25 26 25 4 8 14 12 9 10 13 11 13 18 17 13 8 7 13 14 13 11 10 8 2 2 1 5 7 8 9 8 8 7 7 6 4 4 4 3 3 2 3 3 4 4
28 28 29 26 34 29 23 18 8 10 12 10 10 14 13 14 13 18 20 12 7 9 13 13 12 12 8 2 1 3 1 5 8 9 8 8 8 8 7 6 5 4 4 4 4 4 3 4 5
30 32 22 35 34 30 26 19 20 17 12 11 10 15 13 13 14 13 16 17 12 10 14 15 15 14 10 5 4 5 5 4 6 7 7 9 9 8 7 6 6 6 5 4 4 4 5 5 5
33 35 35 32 33 32 25 23 21 18 19 16 13 17 14 17 15 14 14 17 17 11 16 17 17 16 12 9 7 6 8 6 6 8 6 8 8 8 8 7 7 6 6 5 4 4 4 6 6
32 34 36 36 33 34 26 24 21 21 21 20 18 21 19 14 19 15 15 15 16 17 16 19 19 18 14 12 11 8 9 9 7 8 9 8 7 7 8 8 7 6 6 6 5 5 5 6 7
31 35 37 35 32 32 25 22 23 24 16 19 24 24 23 20 19 24 22 19 16 15 14 18 19 21 17 16 14 12 12 11 10 9 9 9 8 6 5 7 7 7 7 7 6 6 6 7 8
35 40 39 33 32 29 30 27 24 23 16 16 21 24 27 25 22 21 21 19 19 17 19 19 20 22 20 18 17 15 15 14 13 13 12 12 10 9 7 6 6 7 7 7 7 8 8 8 9
40 42 37 34 34 32 32 25 33 28 24 19 19 23 25 26 24 25 25 23 18 18 17 20 19 20 20 19 19 18 17 16 15 15 15 14 13 12 11 9 8 8 7 7 8 9 10 11 12
38 40 37 36 34 30 35 28 32 33 30 26 23 25 28 27 27 24 26 23 20 20 20 19 20 21 20 19 19 19 18 18 18 18 17 17 15 15 13 13 12 11 10 9 10 10 11 12 13
39 37 36 35 31 34 36 31 33 37 35 31 29 28 30 32 31 31 30 30 30 29 26 24 24 23 22 21 19 19 19 19 19 20 20 19 18 17 16 15 14 14 13 11 11 12 12 13 14
30 35 33 32 32 32 32 34 37 38 37 37 37 33 34 34 32 33 34 36 38 37 35 30 28 28 27 24 22 21 21 20 21 22 22 20 19 19 19 18 16 15 15 13 13 14 14 14 16
31 15 32 33 28 30 32 40 44 38 34 37 41 39 37 39 38 40 38 38 42 41 39 36 34 34 34 33 30 28 24 25 23 23 22 20 19 20 19 18 16 16 16 14 14 16 16 16 18
16 23 17 26 30 29 27 48 33 29 35 38 40 45 42 40 40 40 41 40 40 43 44 44 41 37 35 36 35 31 27 25 25 23 21 20 19 19 19 17 16 17 17 17 18 18 18 19 20
20 14 27 21 21 20 27 37 33 28 31 35 34 40 48 49 48 46 44 43 43 43 43 44 42 39 36 33 33 32 29 28 27 27 24 21 20 20 20 19 19 20 20 21 21 20 20 19 19
17 21 17 20 15 21 26 32 33 28 27 29 28 33 37 42 41 43 47 49 49 45 43 44 43 42 40 38 36 35 34 31 31 30 28 25 24 24 23 22 22 22 22 22 22 22 20 18 18
17 14 17 18 19 25 29 33 31 27 32 34 31 28 30 33 30 36 39 43 53 57 58 53 47 45 45 45 43 41 39 35 33 32 31 28 28 28 26 24 23 22 22 23 25 22 20 19 19
17 13 14 16 20 23 30 35 33 31 34 30 26 25 27 29 28 30 32 36 42 45 50 56 55 49 48 49 46 46 44 42 38 35 34 32 33 32 30 27 24 24 24 25 24 23 22 21 21
20 13 15 18 19 21 27 35 28 23 25 24 17 15 20 27 28 27 32 35 37 40 41 46 53 56 57 54 49 49 48 51 46 43 38 36 35 34 30 30 26 26 26 25 24 25 25 22 23
12 11 13 16 15 9 12 10 28 20 15 19 16 13 15 14 16 17 20 25 35 39 40 40 41 44 47 51 59 59 56 52 49 44 40 35 34 34 33 31 28 29 27 25 25 27 29 27 26
12 11 11 12 12 15 16 7 11 9 10 2 6 8 10 9 10 12 15 19 23 28 36 42 44 44 44 44 47 51 57 56 51 44 42 40 38 37 36 33 34 32 28 25 25 26 32 30 31
13 11 10 12 10 3 4 10 9 5 9 4 2 7 9 9 12 15 18 18 18 19 20 23 32 38 43 48 48 49 49 53 54 52 47 43 41 39 36 33 32 35 34 29 27 26 30 34 36
14 11 3 3 1 4 2 5 11 6 6 7 10 11 13 17 19 18 19 19 18 17 19 22 24 24 25 31 39 53 52 52 49 49 51 47 43 42 39 38 35 34 35 33 31 29 32 35 39
14 11 4 4 1 3 4 7 0 9 10 10 15 15 14 16 19 20 22 23 25 25 24 27 29 29 27 27 26 29 44 54 52 51 46 50 45 42 41 35 39 38 36 37 35 33 36 36 39
10 10 9 1 2 2 4 8 12 14 12 10 13 14 16 20 21 23 27 30 30 31 29 30 31 29 27 28 29 31 35 38 41 47 51 47 47 44 44 41 40 37 39 38 38 38 39 39 40
9 7 5 6 2 3 4 9 9 4 7 12 16 18 21 24 28 30 30 33 35 36 35 36 38 38 35 34 35 37 38 35 39 39 43 44 42 45 47 45 43 38 37 40 41 43 40 42 39
15 12 7 4 2 3 3 6 3 4 11 16 20 26 32 35 39 39 40 37 36 36 42 43 41 40 35 36 33 29 30 31 36 38 34 39 37 39 42 41 39 38 38 40 43 43 42 45 45
18 15 13 4 4 3 1 8 4 3 17 28 35 26 31 28 25 23 26 29 29 28 31 31 30 33 31 32 30 27 27 29 32 33 32 35 38 37 37 36 37 39 41 41 41 40 46 42 45

GFSSGP_700_spd_054.txt.gz
Wind_Speed
22 20 19 16 10 11 12 9 6 10 7 7 7 8 8 10 6 3 3 13 15 11 13 10 10 9 6 5 8 11 10 11 10 9 8 9 8 7 7 7 7 6 5 4 4 4 3 3 1
23 21 20 17 15 17 15 15 11 6 8 8 9 8 6 8 8 5 3 12 15 13 16 12 12 12 9 8 7 9 10 10 9 10 10 10 10 10 8 7 5 4 4 4 4 3 3 2 2
26 23 21 17 22 28 11 13 11 12 11 9 8 5 4 6 8 7 7 14 14 15 17 15 12 12 10 6 6 7 8 10 10 10 9 9 10 10 9 8 7 6 4 4 4 3 3 3 2
28 26 24 25 26 25 24 4 10 11 11 12 11 6 8 5 8 11 9 11 12 14 15 15 14 12 9 6 5 4 7 9 10 11 10 10 9 9 9 8 8 6 5 4 3 4 4 3 3
30 29 30 27 35 31 21 16 11 12 14 13 13 10 8 10 9 10 13 13 10 11 14 15 14 13 11 6 4 3 2 5 7 8 9 11 10 9 8 8 7 7 6 5 4 3 3 3 4
32 33 26 36 36 31 28 17 20 14 12 12 12 12 7 10 9 10 10 15 16 12 13 16 15 14 12 7 5 3 2 3 4 6 6 9 11 11 10 8 7 7 6 6 6 6 6 6 6
34 36 37 36 35 33 26 23 22 21 20 16 13 12 9 8 11 11 12 14 16 16 13 16 16 16 15 10 8 6 3 5 3 5 6 5 7 9 10 9 9 8 7 7 6 6 5 5 5
33 34 36 38 36 32 28 25 22 21 24 21 16 15 13 12 10 14 13 13 14 16 15 17 18 17 17 14 10 9 5 7 6 4 5 6 4 4 6 8 9 9 8 8 8 7 7 6 6
33 34 38 39 35 32 29 25 24 25 24 22 21 19 17 16 14 12 17 17 15 12 15 14 18 20 20 17 14 12 9 9 9 7 7 7 7 5 3 3 4 6 7 7 8 9 8 9 8
35 40 40 34 31 30 32 30 20 23 24 22 19 22 22 19 18 16 14 17 19 15 11 15 17 18 19 19 17 16 14 13 11 10 10 10 9 8 7 6 4 3 3 4 5 6 7 8 8
40 42 38 33 29 30 34 27 26 25 24 21 17 23 24 21 21 20 18 16 18 17 18 16 18 18 19 20 20 19 17 16 14 13 12 12 12 11 10 9 9 8 7 6 6 6 7 7 8
38 40 35 31 31 33 34 30 30 27 27 25 23 21 23 22 22 21 20 19 19 20 19 17 16 19 18 19 19 18 18 18 17 16 15 14 14 14 13 13 12 12 11 11 9 8 9 9 9
39 37 35 32 33 36 34 33 31 30 27 31 30 26 23 24 26 27 26 24 25 24 22 21 21 20 19 20 19 19 18 19 19 18 16 15 16 16 16 15 15 15 14 14 13 12 11 12 12
30 37 33 32 35 36 36 36 35 33 31 34 35 30 26 27 27 29 30 30 28 26 26 27 27 28 27 24 21 20 20 19 19 18 17 17 17 18 18 18 17 16 16 16 15 14 13 14 14
30 19 29 35 32 30 31 37 39 31 32 32 34 36 33 30 31 32 31 32 32 32 32 33 30 31 32 32 28 25 23 22 21 20 19 19 18 19 19 19 18 17 18 18 16 15 15 16 17
20 27 19 25 33 32 27 39 17 19 31 30 31 36 41 39 36 36 37 38 38 39 38 35 33 33 33 34 34 31 30 28 26 23 23 20 18 19 20 20 18 19 20 18 18 18 19 19 20
20 12 31 27 19 21 32 35 25 26 32 33 31 33 38 42 45 42 42 41 40 40 40 40 38 36 35 35 35 35 33 31 29 27 26 24 21 21 21 20 20 21 21 20 20 21 21 21 21
17 17 14 23 23 24 27 35 34 29 28 28 28 29 32 37 41 43 45 45 45 44 45 45 45 42 39 37 37 36 34 32 31 28 29 27 25 24 23 22 22 22 23 22 22 22 22 22 22
13 14 17 14 19 20 24 30 32 28 29 30 29 26 25 25 26 32 38 46 51 53 54 49 47 48 44 42 41 41 37 35 34 31 31 30 29 27 26 25 23 23 25 25 24 25 23 23 23
11 14 12 11 14 19 25 33 31 27 29 28 28 26 24 27 30 32 36 39 43 44 44 52 56 50 48 47 44 47 44 43 39 36 33 33 32 31 30 29 27 27 26 28 27 25 24 25 25
18 16 13 13 14 19 25 31 21 19 18 16 20 21 22 25 28 32 35 34 36 40 41 43 45 49 57 57 53 52 50 50 49 46 40 37 37 34 33 32 32 31 30 29 27 26 25 25 26
19 15 15 13 10 5 8 8 19 15 12 16 18 13 14 14 15 16 19 20 27 35 40 40 40 41 41 43 54 58 56 55 51 49 44 42 41 40 38 35 33 31 32 32 30 28 26 26 29
7 9 9 8 8 10 11 5 7 6 8 8 8 8 10 13 14 15 16 17 19 21 22 30 36 40 40 39 42 49 57 62 63 59 55 51 45 42 37 34 34 32 32 34 33 31 28 26 28
5 7 5 9 8 2 4 9 4 6 13 11 8 6 7 8 10 11 14 16 18 18 19 20 19 18 29 38 42 44 46 45 46 48 50 51 49 45 43 40 38 35 32 35 36 34 34 31 29
14 9 2 2 1 3 2 6 8 7 9 8 6 7 11 15 17 19 19 18 19 19 20 20 20 19 18 20 22 28 32 37 46 46 43 45 43 44 45 39 44 39 30 29 32 35 36 34 32
14 11 5 4 1 3 5 8 3 8 12 7 9 15 16 16 18 19 22 23 24 24 25 26 26 25 25 26 27 28 27 24 26 35 44 43 43 43 44 43 42 37 37 36 35 36 36 38 37
10 9 9 3 1 1 4 6 8 7 6 5 10 12 15 18 22 25 27 29 31 32 33 34 33 34 33 33 31 29 28 27 27 29 32 35 42 44 42 42 41 42 37 41 36 37 38 39 41
7 8 5 5 2 2 5 7 4 5 2 7 13 18 21 25 29 33 36 38 39 40 39 37 39 40 40 39 38 36 35 32 31 30 31 33 35 38 40 44 45 43 44 42 41 39 39 39 42
13 10 4 5 2 3 2 2 4 6 5 17 24 26 28 26 28 34 29 30 32 34 40 41 41 41 42 45 47 43 37 36 34 35 33 33 35 35 37 40 41 45 45 45 42 39 40 41 44
13 12 10 3 4 4 2 4 4 2 18 20 25 23 21 25 29 31 32 30 27 29 29 28 27 28 32 31 27 30 34 36 34 33 33 32 33 34 35 38 41 41 41 42 40 40 41 41 44

GFSSGP_700_spd_057.txt.gz
Wind_Speed
22 20 17 15 9 9 12 9 7 7 10 10 9 14 13 9 7 7 5 14 12 14 12 8 8 8 7 5 6 9 11 9 9 9 9 9 10 9 9 8 7 7 8 7 8 7 6 5 3
24 22 19 16 13 16 14 14 9 9 10 11 11 10 12 10 7 5 6 15 14 17 16 13 12 13 10 8 8 9 11 10 9 9 9 10 10 9 8 7 5 5 5 6 6 5 5 4 3
27 24 22 17 20 24 12 13 11 11 8 10 13 12 9 8 7 6 6 12 18 18 19 17 15 14 11 9 8 7 9 10 11 10 10 9 9 9 9 8 6 5 5 5 5 4 4 3 2
30 27 25 24 24 24 24 7 13 14 10 12 14 10 9 6 7 8 9 13 16 15 19 18 15 14 11 10 7 7 7 9 9 10 11 11 9 9 9 10 9 8 7 5 5 5 4 4 3
32 31 29 27 34 29 18 12 12 14 12 11 14 12 9 5 4 6 12 10 14 14 16 17 16 15 12 9 3 2 3 4 7 7 9 11 12 11 10 10 9 8 7 7 6 5 4 3 3
35 35 26 36 37 32 26 20 20 14 11 12 15 15 10 4 3 4 10 15 13 15 16 16 17 17 15 10 6 3 3 2 3 5 5 7 9 11 10 10 9 8 8 7 7 7 6 5 4
38 39 39 38 36 33 28 23 21 19 16 13 13 16 13 6 6 4 9 13 15 16 16 17 17 18 17 13 10 6 4 1 3 1 3 3 4 6 8 8 8 9 9 8 8 7 6 6 5
37 37 33 40 38 35 27 25 22 22 20 17 17 16 16 11 8 7 7 12 13 15 15 17 19 18 18 17 13 11 7 3 5 4 2 2 3 2 3 5 6 6 7 8 8 8 7 6 6
36 33 36 40 36 33 29 25 23 23 23 21 21 19 19 14 12 8 6 11 12 11 13 16 18 20 20 19 16 14 12 8 7 7 5 4 4 4 3 3 2 3 4 5 5 5 6 6 5
36 40 40 36 34 29 30 27 20 20 22 23 23 22 22 20 17 14 10 9 12 12 10 13 15 19 21 20 19 17 16 14 11 10 9 8 7 7 7 6 6 5 4 4 4 5 6 5 5
39 41 38 33 32 28 29 26 25 25 21 23 22 23 22 24 21 19 15 13 11 13 15 15 13 14 16 18 20 19 18 17 15 14 13 11 10 10 10 10 10 10 9 8 7 7 5 6 6
38 40 37 32 29 27 30 29 29 24 21 24 22 20 24 25 25 22 20 19 18 16 17 19 17 17 19 19 19 20 20 20 19 17 16 15 14 13 14 13 13 13 13 13 12 12 10 8 9
38 36 36 31 33 29 32 32 28 25 24 24 25 24 23 25 24 23 23 24 21 19 17 20 20 19 17 19 20 19 20 20 21 19 19 18 17 16 16 16 16 16 16 17 15 14 13 12 11
28 35 32 30 32 32 35 34 30 27 25 26 27 27 28 28 27 26 26 25 25 23 21 22 21 21 21 22 22 20 21 21 21 20 21 21 20 19 18 19 19 19 19 19 18 17 15 14 14
28 20 30 32 31 32 35 37 39 28 29 31 30 29 30 30 31 30 29 30 29 29 28 27 28 28 28 29 29 27 24 23 22 22 22 22 21 20 20 21 22 21 20 20 19 18 17 16 16
23 21 20 27 32 34 29 36 22 19 29 30 29 31 33 34 35 36 35 36 35 34 34 32 33 34 32 30 30 29 30 29 27 27 26 25 24 23 22 22 23 22 22 21 20 20 19 19 19
21 18 30 21 19 20 29 34 31 29 30 25 25 28 33 35 38 40 40 40 39 40 40 39 39 37 34 32 30 31 32 32 32 31 31 29 28 26 23 23 24 23 23 22 22 22 21 21 22
22 21 13 24 27 24 23 27 29 28 28 25 24 26 30 32 32 36 41 44 44 44 45 44 43 40 38 36 35 35 35 32 31 31 32 31 30 28 27 26 25 25 24 23 24 24 23 23 24
19 17 21 17 23 16 21 24 28 25 26 26 25 23 23 26 26 31 39 45 48 50 50 48 46 44 42 42 41 40 36 32 31 30 31 31 30 30 31 28 27 27 25 24 25 26 26 25 25
14 14 13 13 12 15 20 24 23 21 23 25 25 23 23 24 26 29 33 38 42 45 48 51 52 51 51 49 45 44 42 41 36 35 33 34 32 32 32 32 30 30 29 28 28 28 27 28 27
15 14 13 9 9 11 18 19 11 13 16 19 19 19 21 23 24 28 32 35 38 39 42 44 45 46 46 49 53 53 50 49 45 42 40 36 34 33 32 31 33 34 35 33 32 30 30 30 28
19 16 13 9 5 4 6 5 6 11 12 14 15 14 13 15 18 19 17 19 20 26 34 37 37 38 40 40 43 46 50 53 54 52 45 43 41 40 38 37 37 37 37 38 35 33 33 31 31
15 12 11 8 5 6 6 4 2 7 7 8 8 10 13 13 15 16 14 15 15 17 20 24 29 35 39 41 38 37 39 41 42 48 53 51 49 47 45 42 41 39 40 39 38 36 35 35 34
13 12 7 4 3 2 5 9 2 7 13 12 10 9 9 8 8 10 11 12 14 16 18 19 21 23 24 32 39 40 38 37 38 38 41 42 45 48 52 53 48 45 41 38 39 38 37 37 36
12 9 2 1 1 3 4 7 4 9 11 11 9 7 7 10 13 16 18 19 19 19 19 19 19 21 23 24 27 32 34 35 37 41 44 46 45 40 37 41 43 45 45 40 42 39 38 39 39
15 10 3 4 3 2 7 7 5 11 10 9 7 9 10 11 14 17 19 20 22 23 25 25 24 25 25 26 28 29 30 31 32 31 30 35 40 43 41 36 39 41 45 45 46 46 38 34 38
12 8 8 3 1 1 4 4 6 8 9 6 4 6 11 16 19 21 23 26 28 30 32 33 34 33 32 32 33 34 35 36 36 34 31 30 30 33 40 43 40 39 40 43 43 41 33 39 39
7 9 6 6 2 3 4 5 6 14 7 1 7 12 20 23 26 28 30 31 32 35 35 37 40 40 38 37 37 37 38 39 39 36 33 32 29 30 33 35 40 43 40 39 41 41 40 36 38
12 11 5 6 3 3 1 2 7 10 3 11 15 21 24 26 26 26 28 30 30 31 29 26 28 28 28 32 37 41 44 45 44 43 40 37 34 32 33 36 38 42 43 42 40 40 41 41 41
12 11 12 4 5 3 2 2 11 10 10 18 19 23 26 28 27 28 28 26 23 21 19 19 18 19 22 26 30 33 34 33 32 33 34 35 37 35 35 37 39 39 40 41 41 40 40 41 42

GFSSGP_700_spd_060.txt.gz
Wind_Speed
20 18 16 14 6 8 12 8 10 7 10 14 10 14 12 12 10 8 7 15 16 15 14 10 6 8 9 9 11 12 12 9 8 7 7 7 7 8 8 7 8 9 9 8 8 6 6 4 3
22 20 17 16 11 14 14 13 8 8 12 13 11 15 13 7 10 9 8 13 16 16 14 11 8 7 8 9 9 10 11 9 8 7 6 6 7 7 7 7 7 7 7 8 7 5 4 3 3
25 22 18 12 16 21 11 12 10 13 11 13 13 14 14 13 11 9 8 15 13 17 17 16 13 11 9 8 9 8 9 10 8 8 8 6 7 7 8 8 6 6 5 4 4 3 3 2 2
27 25 25 20 22 20 17 7 13 15 11 14 15 9 11 11 11 10 10 11 16 19 20 18 16 14 11 10 7 5 5 6 8 7 9 9 8 8 8 8 7 6 5 4 4 3 3 3 2
31 25 23 25 28 21 20 18 14 17 14 15 16 8 12 10 11 12 11 12 16 17 18 19 17 16 13 12 7 3 3 3 4 4 6 8 9 9 8 8 7 7 7 6 6 5 3 3 2
34 29 25 30 29 25 24 21 18 17 15 13 15 15 12 9 9 10 14 11 12 15 16 17 18 18 17 14 10 5 6 2 0 3 2 5 7 8 8 9 9 8 8 7 7 6 5 4 4
40 32 33 29 28 26 28 26 26 19 16 11 15 13 13 10 9 8 10 15 14 13 17 18 18 19 20 16 14 10 8 3 4 1 1 1 2 4 6 7 8 9 9 9 8 7 5 5 4
41 26 29 30 30 29 24 28 26 23 17 19 15 11 13 13 11 9 10 13 15 14 13 18 20 20 20 20 17 15 13 7 6 7 3 2 2 2 1 3 5 6 6 7 7 6 5 4 4
41 27 33 32 29 25 27 25 26 25 23 21 19 20 19 17 14 11 10 10 12 13 16 14 18 21 22 22 20 17 16 14 11 9 9 6 5 4 4 3 3 2 3 4 4 4 5 5 4
38 31 30 26 25 25 26 24 26 23 23 24 23 22 23 21 17 16 13 11 13 13 12 15 18 19 23 23 23 20 19 17 15 13 12 11 9 8 7 8 7 7 7 5 4 5 4 5 6
38 31 28 30 32 27 24 22 23 21 19 23 24 24 26 26 23 20 17 15 13 17 16 16 16 17 20 22 22 22 21 20 19 17 16 14 13 12 11 11 11 11 11 11 11 10 9 7 7
35 39 29 31 29 28 25 25 25 22 20 23 23 24 27 28 28 26 22 20 19 18 19 19 20 18 18 19 21 23 23 23 22 20 19 18 17 16 15 14 15 15 15 15 14 14 13 13 12
40 28 36 28 29 27 27 27 27 26 25 21 25 25 26 28 28 27 26 25 23 23 21 21 22 21 20 21 21 21 21 23 24 23 22 21 21 20 19 18 18 19 19 18 18 18 17 16 16
34 28 26 31 25 31 27 27 28 29 23 23 26 26 28 27 27 27 26 26 26 25 24 22 21 22 23 21 21 20 21 20 23 24 24 25 24 24 23 22 22 22 22 22 21 21 20 19 19
20 23 30 25 30 30 29 33 37 29 23 26 27 27 28 30 31 28 28 29 29 29 29 27 25 23 24 24 23 24 25 24 22 24 25 27 26 27 26 26 26 26 25 25 24 24 23 22 21
23 15 17 31 31 30 29 26 21 25 31 29 29 29 30 32 34 34 34 34 34 34 32 31 30 29 29 29 29 29 30 32 31 27 25 25 26 27 28 27 28 28 28 27 27 26 25 24 23
21 17 25 15 24 28 31 20 22 26 20 19 23 28 31 32 35 36 37 38 38 38 37 37 37 36 34 35 36 33 32 33 34 35 34 32 31 29 29 30 30 31 31 29 29 28 26 26 25
25 24 20 21 19 22 25 25 25 20 21 22 26 26 25 28 31 36 39 40 41 42 43 43 43 42 40 40 39 38 35 33 35 35 36 37 35 35 35 33 32 33 32 30 30 29 27 28 28
15 21 13 15 24 24 23 22 24 22 22 23 25 26 25 29 31 33 36 39 42 44 46 46 46 45 43 44 42 41 40 35 35 32 33 35 35 36 35 36 37 36 33 31 31 30 30 30 30
13 16 14 16 17 19 15 20 19 18 22 25 24 24 25 27 29 31 33 37 41 44 47 47 48 48 49 48 47 44 43 41 39 36 35 34 34 35 34 35 35 37 37 34 33 34 32 33 32
13 15 16 10 15 13 12 12 15 20 21 22 22 22 23 24 26 29 30 32 35 37 39 40 42 44 45 45 48 50 52 51 48 45 41 37 37 36 34 37 36 37 38 38 36 36 35 35 32
15 17 14 11 8 6 7 4 10 11 13 14 14 16 17 20 22 25 26 26 24 25 28 32 36 38 38 37 39 41 43 44 42 44 44 44 45 44 43 40 40 39 38 37 37 38 38 39 38
13 17 13 10 8 5 7 6 6 9 10 12 14 16 16 15 15 16 17 18 18 18 18 19 21 26 32 36 39 39 39 39 39 40 40 41 46 50 48 45 45 45 42 41 42 40 40 42 42
19 15 10 8 5 4 9 8 9 13 15 15 14 14 13 12 12 13 14 16 17 17 17 18 20 21 24 25 26 30 38 40 41 39 38 36 37 38 42 49 50 52 50 46 45 44 42 43 44
24 16 5 3 3 2 8 7 2 15 19 17 15 13 10 9 11 13 15 17 19 20 22 22 23 24 24 26 27 26 27 34 41 43 44 44 45 44 41 41 43 48 49 49 51 50 45 44 43
18 9 2 3 4 3 6 7 5 16 15 18 14 10 9 10 12 14 17 19 21 24 25 26 27 28 28 28 28 28 28 30 33 34 36 38 40 40 42 46 47 46 45 47 48 49 48 47 45
16 8 8 4 2 1 5 6 7 19 14 14 10 8 9 12 15 18 21 23 26 28 30 32 32 34 35 35 34 34 33 33 34 36 37 38 38 37 37 40 42 45 47 45 45 46 47 48 47
12 12 5 5 4 4 5 4 6 16 18 11 8 10 13 16 20 23 25 27 29 30 32 32 33 33 34 36 39 38 36 36 38 39 41 43 42 40 38 38 39 41 46 47 45 43 43 45 47
11 11 6 6 2 2 2 3 11 19 10 3 7 13 17 21 24 25 26 25 26 27 28 27 26 24 24 25 26 28 32 37 42 45 47 46 44 42 39 38 36 37 41 44 47 46 43 41 42
14 12 10 3 3 3 1 2 19 15 1 8 12 16 20 22 24 24 22 19 18 18 17 15 13 13 15 17 19 23 27 32 36 39 41 42 42 42 41 41 40 38 36 41 43 44 44 42 41

GFSSGP_700_spd_063.txt.gz
Wind_Speed
18 16 14 11 7 10 15 14 10 5 7 9 12 10 9 12 8 10 9 14 12 12 11 10 7 9 9 9 9 9 9 8 6 6 6 7 7 7 7 7 7 7 7 8 8 8 6 4 3
20 17 15 8 12 17 16 15 9 7 8 9 11 11 12 8 14 12 9 13 17 15 14 12 8 8 7 8 8 9 11 9 8 7 6 7 8 8 8 8 7 6 6 8 7 6 5 4 4
22 19 11 11 18 22 15 11 12 9 7 7 5 13 10 9 15 13 12 11 18 18 19 16 12 9 9 7 7 8 9 10 9 9 8 7 7 8 8 7 6 6 7 7 6 5 4 3 2
23 21 17 20 20 20 17 7 11 11 10 12 11 7 12 13 13 11 11 15 16 20 21 19 17 14 12 9 6 6 6 9 9 8 9 9 8 7 7 7 8 8 8 7 6 4 4 3 2
28 20 22 22 26 20 19 11 6 11 8 7 14 6 7 12 13 10 11 11 17 19 21 20 18 15 12 11 7 4 4 6 7 6 7 8 8 8 8 8 8 8 8 7 5 4 3 2 2
32 26 23 30 26 25 20 17 12 12 9 7 14 5 9 11 14 13 10 10 12 15 16 18 17 17 14 13 12 7 4 3 3 4 4 4 6 6 6 8 9 9 9 7 6 5 4 4 3
35 28 32 28 26 24 25 19 18 15 11 9 10 9 10 15 14 14 14 11 9 12 14 16 18 19 19 16 14 12 9 4 2 3 2 2 2 3 5 6 6 7 8 7 7 6 5 4 3
39 27 31 32 29 26 22 21 20 19 15 14 17 10 11 17 16 14 13 15 14 12 12 16 18 19 21 20 17 15 13 10 7 6 6 3 2 2 2 3 4 5 5 5 5 6 6 6 5
39 30 35 35 31 25 20 20 19 18 16 19 13 18 17 17 16 16 14 16 17 15 12 11 16 19 21 22 20 18 17 16 13 11 11 9 6 5 5 5 5 4 3 4 5 5 6 6 6
39 33 35 26 26 25 20 22 18 25 26 18 20 20 21 20 19 15 15 15 15 15 16 16 16 16 20 22 22 22 21 20 18 16 14 13 11 9 8 8 9 9 8 8 7 7 7 7 6
38 31 28 23 28 26 20 19 17 20 18 20 19 17 24 22 21 19 16 15 17 17 16 16 16 19 19 21 22 23 23 22 21 20 18 17 15 14 13 12 12 12 13 12 12 13 12 12 11
24 35 17 27 29 30 29 15 21 16 16 19 23 29 25 25 25 23 20 18 18 18 21 20 19 17 18 20 22 23 23 23 23 22 21 21 20 18 18 17 16 15 15 16 16 16 16 16 15
33 15 23 17 29 31 23 22 18 19 21 27 27 24 25 26 29 29 26 23 22 20 20 22 23 23 22 19 19 21 22 23 24 24 24 25 24 23 22 22 20 18 18 19 20 20 20 19 19
22 18 17 19 21 26 26 20 24 24 19 27 25 25 26 28 29 32 32 28 27 25 24 24 24 24 23 22 21 23 24 23 23 24 25 27 28 27 26 25 24 23 22 22 23 24 24 23 22
10 25 12 21 18 21 26 24 30 22 23 25 26 28 27 30 30 30 31 30 29 29 29 28 26 24 24 25 24 25 24 23 23 24 25 26 28 30 29 28 29 28 26 26 27 27 27 27 26
20 16 25 22 22 26 24 22 20 27 28 27 25 26 28 28 31 32 30 31 34 34 32 31 29 27 26 26 26 27 26 25 26 28 29 27 27 29 30 31 31 31 31 29 30 30 30 29 28
24 21 23 16 26 23 30 16 20 20 22 24 27 29 29 30 30 33 35 37 35 34 34 33 33 32 32 32 32 31 32 33 32 33 33 34 33 30 31 30 30 31 32 32 32 33 33 31 31
26 28 22 27 17 29 25 22 14 16 23 22 17 20 26 30 34 35 37 39 40 39 40 39 39 39 38 39 39 37 37 37 37 36 35 34 36 37 37 36 35 35 34 35 33 34 35 34 34
21 23 17 20 18 16 25 21 23 18 23 23 23 23 24 28 28 35 39 39 39 39 40 41 43 43 42 43 43 45 41 41 41 39 36 34 33 35 39 39 40 40 39 38 37 35 36 35 36
12 21 20 17 21 20 16 21 19 20 21 21 23 26 26 30 32 32 34 36 37 38 39 40 42 43 44 44 45 49 43 42 42 41 40 39 37 35 36 37 38 40 39 38 39 37 37 37 37
17 18 21 9 20 14 11 17 19 20 24 24 25 26 28 28 29 32 32 34 36 37 38 38 39 41 42 43 45 47 49 44 45 43 43 42 42 41 40 38 39 39 40 40 38 39 39 38 37
17 15 16 12 12 11 14 4 14 19 21 22 23 24 26 26 27 28 30 30 31 32 32 33 34 35 36 37 38 38 40 41 39 40 40 40 41 42 43 43 43 42 42 41 41 42 40 41 41
11 17 13 11 10 4 9 7 10 14 15 17 19 21 21 20 20 21 22 22 22 23 24 24 25 26 27 29 33 35 38 39 39 38 37 38 40 43 45 47 49 48 48 48 45 46 45 43 41
15 16 10 6 4 5 13 13 13 15 17 17 17 18 19 19 17 16 16 17 18 19 19 19 20 21 22 22 24 25 27 28 32 34 37 38 39 39 41 41 47 52 54 53 50 48 49 48 44
20 18 5 4 5 4 9 8 3 14 16 15 14 16 16 15 14 14 15 16 17 18 19 21 22 24 24 24 25 26 27 27 28 31 34 38 40 42 43 41 41 42 47 53 55 54 55 52 50
19 15 4 5 7 7 7 9 4 19 19 21 18 15 14 13 13 14 15 17 19 21 23 25 26 28 28 29 29 30 30 30 29 28 29 32 35 37 40 40 41 42 45 49 49 50 54 54 52
23 8 7 1 2 3 9 7 10 16 18 20 17 15 14 14 14 15 16 19 21 24 26 29 31 32 33 35 35 36 36 35 34 33 33 34 36 38 39 41 41 40 41 42 49 51 50 50 50
9 9 4 3 3 5 7 6 5 20 21 19 16 15 15 15 16 18 21 23 25 26 28 29 31 33 33 33 34 34 36 38 39 39 39 39 40 42 43 44 44 42 41 43 43 47 50 48 47
10 5 6 4 3 3 4 5 5 16 21 15 13 12 14 16 19 21 23 25 26 25 24 24 25 25 25 25 25 26 28 29 31 34 38 42 45 46 48 48 47 46 43 42 42 44 45 48 49
12 10 10 5 5 3 4 5 10 18 18 9 7 9 14 17 20 22 24 24 23 20 19 18 16 15 14 16 18 20 20 22 24 28 32 36 37 40 43 44 46 46 47 46 44 43 40 41 42

GFSSGP_700_spd_066.txt.gz
Wind_Speed
17 14 12 9 6 7 13 14 8 3 7 12 12 15 11 6 10 8 9 12 11 12 12 10 9 10 10 10 10 9 9 8 7 7 7 7 8 8 8 8 8 9 8 9 9 8 7 5 3
17 17 15 11 10 15 13 13 12 10 10 16 17 12 15 5 11 6 8 12 15 14 14 12 11 10 11 9 10 11 10 8 9 8 7 8 9 9 9 9 9 10 9 8 8 8 6 6 5
18 17 15 9 14 19 15 14 14 13 14 8 3 9 9 6 12 14 9 11 16 16 16 14 11 10 9 6 7 10 11 11 9 10 10 9 9 9 9 10 10 10 9 9 8 6 6 4 4
19 21 20 19 16 19 18 6 12 9 8 13 12 9 15 11 12 14 12 12 14 17 17 17 14 12 9 6 5 7 8 10 11 11 11 11 10 9 9 9 10 10 9 8 8 7 6 5 5
30 25 25 18 21 16 16 9 12 9 6 6 15 5 10 14 14 12 12 14 16 17 19 19 17 14 12 9 5 4 4 7 10 11 9 9 9 9 10 10 10 10 9 9 9 8 7 7 6
37 30 16 29 21 21 17 12 9 13 8 8 15 9 9 13 16 12 12 11 18 15 20 21 19 18 16 13 9 6 3 5 7 8 8 7 8 9 9 9 10 10 10 10 9 8 8 7 6
36 35 27 23 21 22 20 16 18 16 11 9 9 9 11 12 15 14 13 12 11 15 17 20 20 19 18 16 15 10 7 4 2 5 6 6 5 6 7 7 7 7 7 7 8 9 9 8 7
37 33 26 27 26 20 18 20 17 18 14 12 13 5 14 14 14 15 14 12 11 11 15 16 18 19 20 19 16 13 10 9 5 3 2 3 4 3 3 4 5 6 6 7 7 7 6 6 6
26 30 40 35 24 24 14 21 20 16 20 13 14 15 12 12 16 14 13 12 13 12 13 14 16 18 19 20 18 17 15 14 11 9 7 7 6 4 4 4 5 5 5 6 7 7 7 7 7
34 37 38 26 22 24 20 11 22 27 23 16 20 20 15 14 17 16 16 14 14 15 16 17 14 12 16 18 20 21 19 17 16 13 13 12 12 10 7 7 7 8 9 9 9 9 9 9 9
36 34 41 25 26 23 26 19 20 15 19 22 15 21 23 18 19 19 17 15 15 15 16 15 18 22 17 17 19 21 21 20 19 18 17 17 15 14 13 13 11 10 11 12 13 13 13 13 12
26 32 19 20 23 25 25 20 22 16 16 15 23 25 25 23 21 20 18 17 18 17 17 17 18 17 17 18 18 20 21 21 22 21 19 21 20 19 19 17 16 15 15 14 16 17 17 17 17
32 13 22 16 27 29 28 30 17 20 17 20 23 23 26 23 24 24 21 20 20 19 18 17 20 20 20 18 17 18 20 22 23 24 23 23 24 23 22 22 21 20 19 19 18 20 21 21 21
21 16 14 17 24 29 29 36 23 20 21 24 27 28 26 25 24 25 26 26 24 23 22 20 20 21 21 20 21 20 21 21 21 22 22 25 26 26 25 25 26 24 23 24 24 23 25 25 24
7 25 13 24 24 24 31 30 35 25 25 23 30 29 26 27 26 26 27 29 29 27 26 26 23 23 22 22 22 25 23 21 22 23 23 23 23 24 26 27 28 27 27 26 27 27 27 27 28
23 19 15 21 20 20 19 24 29 29 24 24 24 24 26 26 25 25 27 28 30 30 30 31 30 28 26 24 23 24 25 26 26 26 26 25 25 25 26 27 29 29 29 29 29 29 29 29 30
26 16 27 19 23 19 27 20 12 14 24 28 26 24 23 26 27 28 29 31 31 33 32 33 32 30 27 28 29 27 27 28 29 30 29 29 29 30 32 32 30 30 31 29 29 30 30 30 32
26 30 23 27 26 27 29 31 7 18 23 21 20 23 28 27 27 28 30 34 36 37 35 33 33 33 34 34 34 32 31 31 32 34 34 35 35 33 34 34 34 35 36 36 32 32 33 32 31
17 21 21 22 20 23 31 30 25 14 21 20 23 20 20 23 25 30 36 36 36 36 36 36 37 37 37 37 38 40 37 35 35 36 37 39 39 37 36 35 34 36 37 37 38 36 36 38 35
16 15 25 12 22 17 15 25 27 22 29 27 25 27 25 25 25 33 35 34 35 37 38 38 38 39 41 41 41 43 45 44 40 40 41 41 42 40 39 39 35 36 38 39 39 37 37 38 37
22 18 26 20 14 15 14 18 21 26 29 33 29 27 29 31 32 34 32 32 34 35 34 35 35 36 37 38 39 39 45 44 42 36 37 38 41 44 43 42 40 39 38 40 39 41 37 38 38
22 14 18 19 16 11 21 4 20 25 31 31 28 27 31 32 31 31 32 30 31 32 33 33 33 32 32 33 33 34 35 39 39 35 33 34 35 37 40 46 45 43 44 43 42 41 43 40 42
15 19 12 18 13 4 15 7 11 19 29 27 28 30 31 28 28 27 27 28 27 27 27 27 27 26 26 27 28 29 31 33 35 36 36 34 34 36 34 36 41 45 47 48 48 47 47 49 48
22 18 14 9 8 4 14 15 16 27 24 22 24 25 23 22 22 20 19 20 20 20 21 22 23 23 23 23 24 24 24 23 25 28 31 31 31 32 35 36 34 35 39 45 49 51 53 53 51
23 24 7 4 4 4 12 16 12 12 15 20 22 21 20 18 19 17 16 17 17 18 19 20 21 22 23 23 24 25 26 26 27 28 29 29 29 30 33 36 38 39 39 40 41 42 43 47 52
24 23 4 5 5 5 12 7 3 18 17 18 20 21 17 16 15 15 16 17 18 18 18 20 23 25 26 26 27 29 29 29 29 31 32 31 31 31 31 34 36 37 36 37 39 41 45 48 47
26 20 13 3 2 6 10 8 12 20 23 23 21 16 15 15 15 15 17 17 17 18 20 23 25 28 30 30 31 32 32 33 34 35 35 35 34 34 34 35 38 38 38 38 40 40 41 42 44
23 22 7 4 2 3 8 9 13 27 29 26 23 19 17 17 18 18 18 18 20 22 24 26 28 29 31 32 34 34 34 33 33 33 33 34 35 36 37 38 40 42 44 45 44 44 44 44 43
13 16 9 4 3 1 2 2 5 15 22 22 18 18 16 16 17 18 20 23 24 25 26 26 26 26 26 27 27 26 26 27 27 27 29 29 32 34 36 38 41 44 47 48 49 48 45 45 44
13 8 13 5 4 3 1 1 4 9 15 19 17 12 12 14 17 19 21 24 24 24 23 22 21 20 20 19 17 17 20 20 21 21 23 25 27 28 29 29 31 35 37 39 39 38 37 41 44

GFSSGP_700_spd_069.txt.gz
Wind_Speed
18 13 14 12 10 7 13 13 2 11 13 16 16 12 11 11 7 6 10 12 14 13 12 12 12 11 11 11 12 10 9 8 8 8 8 8 9 9 9 10 10 9 8 9 9 8 7 5 4
19 16 14 13 8 12 14 16 6 12 13 16 17 15 10 10 7 6 10 17 15 15 14 13 13 11 10 9 12 14 12 10 10 9 9 9 10 11 12 11 11 10 8 8 7 7 6 5 4
16 16 17 13 15 17 13 8 12 13 15 12 16 14 9 13 14 7 11 15 17 17 18 16 14 13 10 8 10 12 14 14 12 11 10 10 11 11 10 11 12 11 10 9 7 6 6 5 5
24 16 16 16 14 23 18 11 16 16 14 11 13 13 12 11 11 11 12 13 17 18 20 17 15 14 10 6 7 9 11 14 13 12 12 12 11 10 11 11 11 11 11 10 9 8 7 6 5
31 21 19 19 21 24 16 3 8 12 10 14 16 13 13 11 11 13 15 15 14 19 21 20 17 15 12 7 5 6 7 10 14 14 12 9 10 11 12 12 11 10 9 10 10 11 9 8 8
44 38 22 27 26 22 14 9 13 9 13 18 12 14 13 14 14 14 14 16 15 18 22 22 19 17 14 10 7 5 4 5 8 11 10 10 10 10 10 9 8 9 10 11 12 12 11 10 9
42 38 36 32 28 22 16 10 13 14 13 15 10 14 14 13 15 14 14 14 17 15 21 22 20 18 16 14 11 7 5 4 2 4 7 9 10 10 9 9 9 10 10 10 9 9 9 9 9
37 37 35 23 27 22 12 11 16 15 17 14 11 11 15 14 13 15 14 13 12 13 17 19 19 18 17 16 15 13 11 9 6 4 2 5 6 8 9 9 8 9 9 9 9 9 9 9 9
35 31 25 34 28 26 15 13 22 17 22 14 14 14 10 14 14 14 14 15 14 11 12 16 18 18 18 19 18 17 15 13 11 8 5 4 2 3 5 7 8 8 8 8 9 9 9 9 10
30 38 43 35 33 28 14 11 21 20 25 16 11 14 11 14 16 14 14 12 13 14 12 11 14 16 18 18 20 20 18 17 15 12 10 10 9 7 7 7 6 6 9 10 10 10 11 11 12
34 41 38 33 34 28 17 8 10 18 22 24 14 17 17 16 17 17 14 13 13 14 16 17 16 14 14 15 17 18 19 19 17 15 15 15 13 12 12 12 11 11 10 9 10 12 13 15 16
32 36 31 28 23 22 25 11 18 14 16 23 20 14 19 19 16 16 17 16 14 14 15 15 15 16 16 16 16 15 17 18 18 18 19 19 17 16 15 16 17 17 17 15 13 14 16 16 17
32 20 25 18 29 17 25 21 22 20 14 15 14 19 21 19 21 20 18 16 16 16 15 15 13 13 14 15 16 15 15 16 18 19 21 22 21 19 19 20 20 21 21 20 19 19 18 18 18
26 20 17 26 21 22 30 23 22 25 19 19 15 18 20 22 21 23 23 22 21 21 18 16 16 16 16 16 18 18 19 18 18 20 20 21 21 20 21 22 24 24 24 24 23 23 23 23 22
7 21 13 28 26 22 30 28 34 27 26 24 22 22 23 25 24 23 25 26 27 26 23 22 22 21 20 18 19 19 19 20 21 22 22 21 22 23 23 23 23 24 25 26 27 27 28 27 26
18 19 19 23 24 27 27 36 35 34 29 27 30 28 27 26 26 25 24 26 28 30 31 29 27 26 24 23 22 21 21 22 23 23 23 22 22 22 23 24 24 26 26 26 26 26 28 29 28
24 20 28 22 25 24 31 32 19 31 36 33 31 29 29 29 28 26 25 27 29 29 31 34 32 30 27 25 26 26 27 26 25 25 24 25 26 28 29 29 28 29 29 30 29 28 28 28 29
27 26 32 31 27 22 24 32 14 20 24 30 30 28 24 23 24 26 28 30 29 31 32 32 32 29 29 30 29 29 28 29 29 28 28 29 31 33 33 32 31 31 31 31 31 31 32 32 32
22 22 23 25 27 22 28 27 29 26 22 22 24 22 25 26 27 31 31 30 30 32 33 33 33 33 34 33 33 32 32 30 31 31 32 33 34 36 37 36 34 33 33 33 32 33 33 34 34
17 19 25 17 21 23 20 26 31 32 37 30 25 22 24 26 29 31 33 35 34 33 34 35 34 35 36 38 39 40 39 38 36 37 38 39 41 41 41 41 39 36 36 36 36 35 34 34 35
18 17 18 20 15 24 19 22 24 32 35 33 33 30 30 31 33 34 34 32 30 30 32 34 34 34 35 37 38 38 38 39 39 40 38 36 38 39 42 44 42 41 40 37 39 41 40 37 38
19 15 8 16 21 15 16 6 21 30 33 37 36 32 30 33 35 36 34 31 29 31 32 31 32 32 33 34 34 34 35 35 34 36 37 35 34 35 37 38 40 42 41 40 40 42 42 44 43
19 15 11 17 18 13 15 12 29 14 34 36 34 33 33 34 35 35 34 31 30 30 29 30 29 28 28 28 29 29 29 31 32 32 34 34 32 33 34 36 35 35 36 38 40 41 44 45 46
16 11 13 19 12 5 18 23 12 29 24 26 33 35 36 36 35 31 31 28 26 26 25 25 25 24 24 24 25 26 27 27 27 27 27 27 28 29 29 30 33 33 36 37 37 38 39 40 42
27 24 5 2 3 5 13 18 28 12 20 23 25 27 29 30 30 23 22 22 20 19 19 21 22 23 22 23 25 26 26 26 27 27 27 28 29 30 30 31 30 30 34 36 36 38 40 40 42
29 22 9 6 4 4 11 15 21 26 19 20 23 24 24 25 22 21 20 19 18 18 19 21 22 23 23 24 27 28 28 29 30 30 30 31 32 32 32 32 33 31 32 35 34 36 38 39 40
22 16 13 2 4 3 10 11 11 16 23 22 20 19 21 20 18 18 17 17 18 18 19 20 22 23 24 26 29 30 30 31 31 32 33 34 34 35 36 36 35 34 34 36 37 37 39 41 42
21 20 10 7 2 4 7 8 11 24 25 26 25 21 18 17 17 16 17 19 19 20 21 22 23 26 28 29 30 31 32 32 33 34 34 34 33 33 33 34 34 34 35 37 40 42 43 45 45
21 26 13 8 6 4 2 6 10 21 21 28 24 22 20 18 17 18 19 20 21 23 25 26 26 28 29 28 28 28 27 27 26 25 26 27 27 26 26 27 29 30 32 34 36 38 40 40 39
27 24 27 8 6 5 2 4 6 11 20 26 24 22 17 14 15 16 19 21 23 25 26 27 27 26 25 23 23 22 21 20 20 20 20 20 21 21 23 24 25 27 28 29 33 37 39 37 35

GFSSGP_700_spd_072.txt.gz
Wind_Speed
19 18 18 16 11 8 15 17 10 14 18 19 16 13 15 19 21 13 19 20 17 16 12 14 14 13 11 13 12 9 8 7 6 7 8 8 9 10 9 9 8 8 8 8 8 7 5 3 2
21 16 18 17 11 14 17 13 11 16 19 20 17 16 15 16 12 14 18 19 18 17 15 15 15 13 10 10 13 15 12 9 9 9 9 9 9 10 10 10 10 9 8 7 7 7 6 6 5
37 15 19 13 17 22 12 15 13 13 13 18 16 15 15 15 12 13 18 18 17 19 18 16 16 14 11 8 9 12 14 14 12 11 10 10 10 10 10 10 12 12 9 9 8 6 6 6 5
45 22 18 18 17 24 13 12 16 13 13 14 21 19 18 18 15 14 15 19 20 20 20 18 17 14 12 8 7 9 11 14 15 14 12 12 11 11 11 12 12 10 10 11 11 10 9 7 6
45 32 20 21 25 28 19 7 17 14 15 14 17 22 19 20 19 16 16 14 18 20 22 20 18 17 14 9 6 7 7 10 14 17 14 12 12 12 12 12 11 12 12 13 12 11 11 10 10
44 46 21 26 33 30 21 9 16 11 16 14 17 19 18 18 21 18 17 15 16 21 23 23 20 19 17 11 7 4 4 5 8 11 14 15 14 13 12 10 10 11 11 11 10 10 11 11 12
48 49 41 28 33 26 18 8 13 14 13 18 17 18 18 19 20 19 16 19 17 20 24 25 22 19 17 14 10 7 4 2 2 4 9 13 14 13 11 11 11 12 12 12 12 11 11 11 11
42 44 42 36 29 31 23 17 13 19 16 20 17 18 21 18 18 18 18 19 20 19 24 26 24 20 18 16 14 11 8 7 5 0 2 2 5 9 10 11 11 12 12 11 11 11 11 12 12
43 37 41 41 35 29 21 19 17 17 22 21 14 11 15 17 17 18 18 18 17 19 20 23 22 20 18 17 17 15 12 10 9 7 6 5 3 2 2 2 4 5 8 10 9 9 9 10 11
38 37 42 42 39 33 26 16 12 7 19 23 17 14 15 18 17 17 18 15 14 12 14 16 18 19 19 18 18 17 15 15 15 13 12 11 9 8 7 6 7 6 6 5 7 9 10 10 10
45 44 32 37 36 42 31 21 13 4 11 24 24 16 16 17 18 16 16 14 11 12 12 12 13 13 14 15 15 15 17 18 18 17 17 16 14 13 12 12 12 12 12 11 11 10 9 11 12
30 35 35 29 37 34 36 19 14 5 12 19 20 18 16 13 16 18 19 16 15 12 11 11 12 12 12 13 13 14 15 17 18 19 19 18 18 17 16 15 16 16 16 16 16 16 17 15 14
32 30 20 25 18 24 35 23 12 5 13 18 22 21 20 16 14 16 17 17 16 16 14 13 12 11 9 10 12 13 14 16 17 17 19 19 19 18 17 18 19 19 18 19 20 20 21 21 20
28 17 29 28 29 15 15 29 10 14 10 19 19 26 25 18 17 19 17 17 16 17 16 15 15 15 15 13 13 14 14 15 15 17 18 18 18 17 17 18 19 20 20 21 22 23 24 24 24
11 19 18 30 26 28 17 20 24 22 18 18 16 16 18 20 21 19 20 21 20 20 20 20 20 20 19 18 18 17 16 15 17 18 19 19 18 18 19 19 20 20 19 19 21 23 24 25 25
17 27 23 25 30 28 26 31 28 23 26 26 24 22 22 22 21 21 21 24 25 26 25 24 25 25 24 23 21 21 19 20 19 18 18 18 18 20 20 20 21 21 22 24 25 26 27 26 26
23 19 32 23 32 33 34 37 32 33 26 23 27 27 28 27 24 24 25 27 27 29 29 29 29 29 28 26 25 25 25 25 23 22 21 20 22 23 24 25 26 27 27 28 28 29 30 30 30
31 22 35 25 29 34 35 37 29 36 35 34 34 32 31 32 30 29 30 29 28 29 28 29 31 30 31 31 31 29 28 27 26 26 25 25 27 27 29 30 29 30 30 30 30 31 31 30 30
22 26 30 29 22 27 31 29 29 30 26 26 40 37 32 31 29 31 33 32 30 29 30 31 31 31 30 29 30 30 30 29 29 29 29 30 31 31 32 33 33 33 35 34 32 33 33 34 33
20 21 23 24 24 22 24 28 23 30 34 26 21 24 30 33 33 33 33 32 30 31 32 32 33 34 35 34 33 34 33 33 33 33 34 35 36 37 39 39 38 38 37 36 34 34 36 35 34
17 18 21 20 18 21 25 30 28 32 36 39 40 31 26 27 29 30 32 33 33 32 33 34 35 36 37 38 37 36 37 37 37 36 35 36 39 41 41 43 44 44 44 43 40 38 37 38 38
18 16 14 13 15 14 19 8 22 31 33 40 38 38 36 34 32 33 33 34 34 32 31 31 32 34 35 36 37 37 37 36 35 36 36 36 37 37 38 39 40 40 40 39 38 38 37 39 41
20 17 14 11 15 18 16 12 28 23 25 35 40 40 38 38 38 37 38 38 37 35 34 32 32 32 33 33 33 34 35 34 33 33 33 34 35 36 36 36 35 35 36 38 37 37 35 34 36
20 16 10 8 16 8 26 22 20 25 32 25 34 38 40 38 37 37 36 36 36 34 33 32 31 29 29 29 29 29 30 30 30 30 30 29 29 29 28 26 27 28 31 33 34 36 38 37 37
22 17 4 4 6 5 14 18 41 16 19 26 23 36 39 39 39 38 37 35 33 30 29 28 27 25 24 24 25 26 27 28 29 29 29 29 30 29 29 28 28 28 29 30 32 33 34 35 37
27 25 7 5 4 4 10 16 30 25 29 18 23 27 33 36 35 34 31 28 26 25 25 24 24 23 23 24 25 27 28 29 30 31 32 31 31 31 32 31 31 32 32 33 35 35 36 37 38
28 28 21 5 3 1 10 22 34 20 28 23 23 23 28 30 27 24 23 22 23 23 22 22 23 23 24 26 26 27 29 30 31 33 33 34 35 35 34 35 35 35 34 33 34 34 35 36 38
23 30 14 11 3 3 7 14 19 14 22 25 27 23 23 22 22 21 19 19 19 20 20 21 22 24 24 25 27 29 30 31 33 34 35 35 35 35 34 33 32 31 31 31 31 32 33 33 35
25 24 13 10 5 4 3 7 12 22 24 17 26 25 22 19 16 16 18 19 19 21 22 23 25 26 27 28 29 30 30 31 30 30 29 28 26 26 25 26 26 25 26 27 27 28 30 34 36
26 26 22 11 7 9 3 6 7 10 15 19 21 21 19 17 17 19 19 19 20 22 24 26 28 28 28 29 29 28 27 25 24 23 22 22 21 20 20 21 22 23 23 24 25 26 31 32 33

GFSSGP_700_spd_075.txt.gz
Wind_Speed
20 22 20 19 14 11 19 12 16 23 24 22 16 14 13 18 24 17 15 18 13 15 12 12 13 13 15 16 14 11 8 8 8 7 8 8 9 10 11 10 10 10 10 10 9 8 7 6 6
22 20 19 20 14 15 18 15 17 15 18 20 19 15 13 18 25 17 18 19 18 16 12 12 14 12 12 13 16 18 14 11 10 9 8 9 10 10 12 12 11 11 10 10 9 9 9 9 9
32 26 21 14 21 19 11 18 15 18 17 18 20 18 15 17 21 19 21 21 16 18 15 14 15 12 10 10 12 15 18 16 12 11 10 11 11 12 12 13 12 12 11 11 12 11 10 10 10
36 34 27 19 20 26 11 18 14 17 18 16 17 19 18 19 18 20 23 23 17 19 19 17 16 13 9 8 8 11 12 15 18 15 13 13 13 13 13 13 13 13 13 14 14 13 13 14 13
34 37 36 25 28 32 16 9 14 18 16 16 17 20 19 19 18 20 22 22 21 21 20 19 18 15 11 8 6 7 8 10 13 17 18 17 16 15 14 13 13 13 13 14 13 13 14 15 15
35 36 36 34 33 33 24 13 9 19 16 17 18 20 23 23 20 19 19 19 20 21 21 21 19 17 14 10 8 5 5 7 9 12 15 17 17 16 15 15 15 14 14 13 12 13 13 12 12
41 42 42 41 35 33 31 17 13 17 15 17 18 19 23 26 24 22 20 18 18 23 24 23 21 20 17 14 10 7 5 6 4 7 8 12 13 15 16 15 15 16 15 13 12 13 13 13 12
43 38 44 34 47 37 31 21 13 15 15 16 20 18 23 24 24 24 23 22 20 22 25 25 23 21 19 17 13 10 8 7 3 2 2 2 4 8 11 12 10 10 12 14 16 14 13 12 12
40 36 39 44 39 45 31 26 11 15 14 19 18 18 19 20 23 23 24 24 23 22 24 26 27 24 20 18 16 13 11 9 7 5 4 4 2 2 2 3 5 4 4 6 9 11 13 13 12
40 41 44 40 36 52 33 22 14 14 18 16 18 18 19 17 21 21 22 20 22 21 21 24 26 24 20 19 18 16 14 13 12 11 10 9 8 8 8 8 9 10 9 8 7 7 7 7 10
37 45 49 37 36 39 47 27 16 12 19 16 15 17 18 18 20 19 20 15 16 17 17 18 21 21 20 19 19 18 17 16 16 15 15 14 13 13 13 14 14 13 13 12 12 12 13 13 13
33 34 37 30 32 41 56 36 22 15 20 19 17 17 19 18 20 20 20 17 15 13 13 13 12 13 14 15 14 15 15 15 16 17 17 16 16 16 17 18 17 16 16 15 15 16 16 17 17
31 32 36 32 36 37 51 47 28 17 19 20 17 18 18 17 18 19 20 19 17 14 12 11 11 11 12 12 12 12 12 13 15 15 16 16 16 17 18 19 19 18 18 18 18 18 19 19 20
21 12 25 32 31 21 38 38 39 17 20 19 19 18 18 19 17 18 19 20 18 16 14 13 12 12 11 11 10 10 11 13 14 15 16 16 17 17 17 17 18 18 18 18 18 19 19 20 21
10 15 18 16 21 16 13 23 31 16 13 13 19 20 22 20 18 16 15 16 18 18 16 15 15 15 15 14 14 14 14 13 13 14 15 16 17 17 18 18 18 19 19 19 19 20 21 21 21
17 21 20 23 22 26 17 27 24 26 11 15 15 16 21 21 20 20 19 19 20 20 19 20 20 20 19 19 19 19 19 19 17 17 17 17 18 19 19 18 18 20 21 22 23 24 24 25 26
21 23 26 16 26 23 28 21 27 18 20 18 23 21 19 23 25 24 23 22 22 22 24 24 24 25 24 23 23 23 23 22 23 23 22 22 22 22 22 22 23 24 25 25 26 26 26 27 27
27 16 30 22 25 31 34 25 18 17 27 23 25 25 25 25 24 25 25 26 25 24 24 25 27 29 29 27 27 28 28 27 26 25 24 25 26 26 27 27 27 28 29 28 29 30 31 31 29
27 22 21 23 17 32 31 26 25 19 29 33 32 25 27 29 31 31 29 28 28 28 28 28 28 28 28 29 28 28 27 27 28 28 28 28 28 28 29 30 30 32 34 33 32 33 33 32 32
21 26 18 26 14 23 26 28 29 31 32 32 33 34 38 36 33 33 33 32 32 30 30 30 31 30 29 29 30 31 30 30 30 30 31 31 32 33 34 35 36 37 38 38 38 39 39 39 36
15 17 26 16 24 17 17 25 31 35 37 43 37 33 32 35 39 37 34 33 32 31 32 32 32 31 32 33 33 34 33 33 33 33 33 35 37 38 39 38 39 41 43 43 41 40 40 39 37
17 15 15 15 11 11 14 8 25 33 40 41 44 41 31 28 28 28 29 31 32 33 32 31 31 32 33 34 36 36 36 36 35 36 36 35 36 37 39 39 40 40 41 41 39 38 37 37 37
15 12 11 13 11 14 14 9 25 25 28 43 43 46 45 43 39 34 31 31 31 32 33 33 33 34 34 35 36 36 36 35 34 35 34 35 36 36 36 37 37 36 37 36 36 36 37 38 39
20 11 9 9 9 6 21 17 22 28 30 28 34 40 43 44 43 41 38 36 35 36 36 36 36 35 35 35 34 34 34 34 34 34 34 35 35 34 32 31 30 29 29 30 32 32 32 32 32
24 15 4 3 4 5 7 18 36 8 16 18 22 29 35 43 44 41 36 35 35 36 35 35 34 34 33 32 31 31 31 31 31 32 32 32 32 32 31 31 30 30 29 29 30 31 31 31 31
26 21 5 5 4 4 14 16 19 21 22 29 23 27 33 35 38 39 37 35 35 36 35 33 31 28 27 27 28 28 28 29 30 31 31 32 33 33 34 33 33 33 32 33 33 34 35 35 35
27 27 17 1 2 2 9 22 35 32 34 28 22 26 27 26 25 28 30 31 31 30 28 27 26 26 26 25 26 28 29 30 30 31 32 33 34 35 36 36 36 35 34 35 35 35 35 36 35
19 29 16 10 1 4 8 16 21 21 21 21 28 26 23 22 22 24 25 26 25 25 25 25 25 26 26 26 27 27 28 29 30 31 33 34 35 35 35 35 35 34 33 32 32 32 31 31 31
28 22 19 14 17 5 2 8 7 11 15 18 16 21 23 18 17 18 21 22 22 22 22 23 24 25 25 26 27 28 29 30 31 32 33 32 31 29 28 27 26 26 25 24 24 26 26 27 29
21 29 25 15 8 14 5 14 12 18 16 14 17 15 18 16 16 17 18 18 19 20 22 23 25 26 27 28 29 30 30 30 30 30 29 27 25 24 24 23 22 21 21 22 22 23 23 25 27

GFSSGP_700_spd_078.txt.gz
Wind_Speed
22 23 22 20 14 12 18 13 18 19 22 20 15 15 14 15 23 15 11 19 16 12 10 13 15 17 18 19 15 13 11 10 10 11 11 12 13 13 13 13 14 14 14 14 13 13 11 11 9
21 22 23 20 14 17 16 18 15 14 16 18 16 16 15 14 24 17 15 19 18 14 10 10 13 15 17 18 21 20 15 14 12 13 12 12 13 13 14 15 16 15 15 15 15 14 13 12 11
23 22 21 18 18 21 14 20 18 16 15 15 15 17 17 16 18 22 14 19 17 16 13 10 11 12 12 14 17 20 21 18 16 15 14 14 14 14 13 14 15 15 16 16 16 15 15 14 14
24 23 19 19 20 21 18 19 19 16 18 19 17 18 16 16 21 22 20 21 17 17 15 12 12 10 10 9 12 15 17 19 20 19 17 16 14 14 15 15 15 15 15 15 15 15 16 16 16
32 29 28 22 26 25 18 17 20 17 21 18 17 15 16 16 19 23 25 23 22 18 19 15 14 12 9 7 7 10 12 14 16 17 19 18 18 17 17 18 17 15 14 14 13 12 13 14 14
40 32 27 37 32 25 25 15 14 19 18 16 17 15 16 19 18 23 26 25 24 22 20 18 17 15 11 7 5 6 8 9 12 13 15 17 18 18 17 19 20 19 17 16 15 15 14 13 12
40 34 32 36 37 27 30 23 15 18 17 15 16 14 15 20 23 22 26 25 25 25 23 19 19 18 14 10 7 6 7 7 8 9 9 10 12 15 16 15 14 15 16 18 19 18 16 14 13
38 36 36 32 37 36 31 27 19 18 18 18 16 14 15 19 23 26 24 24 24 25 25 23 22 20 18 14 11 8 8 7 6 4 3 4 5 6 9 10 10 10 10 11 12 13 15 17 18
38 31 37 37 37 40 34 29 21 17 17 18 16 13 14 18 23 26 27 24 23 24 25 26 25 22 21 18 14 12 10 9 7 5 3 2 2 2 2 3 4 4 5 6 6 6 6 7 9
39 43 36 37 36 37 41 34 23 17 17 20 19 15 14 17 20 22 23 26 25 23 22 24 25 25 23 20 18 15 14 13 11 10 9 8 7 7 7 7 6 7 7 9 9 10 10 10 9
37 43 38 33 37 39 46 38 23 16 17 20 21 19 17 18 20 20 21 19 22 23 23 23 24 26 24 22 20 19 17 16 15 14 13 12 12 12 12 12 11 11 11 12 13 14 14 13 13
34 36 41 34 34 39 43 42 33 20 17 22 23 22 20 18 20 20 19 16 19 20 21 22 23 24 24 23 20 19 18 18 17 17 15 15 15 15 15 14 14 14 14 14 16 16 16 16 16
26 24 35 40 34 36 36 44 44 26 13 21 22 21 19 20 19 20 20 19 19 18 18 17 16 17 18 18 17 15 14 14 15 15 14 15 16 16 15 15 14 15 16 17 18 18 18 17 17
24 15 21 26 29 38 44 47 49 36 14 17 22 23 22 18 19 19 20 20 19 19 17 17 15 15 15 15 14 14 14 14 13 13 14 14 14 14 15 15 14 15 17 18 18 18 18 18 19
14 17 16 24 27 25 31 41 58 36 21 16 23 23 20 20 18 15 17 21 21 17 16 16 16 16 16 16 15 14 13 12 12 13 15 15 15 15 16 16 16 17 18 19 19 19 20 21 21
17 15 16 16 16 20 26 27 46 50 26 16 24 25 21 21 20 19 18 19 20 19 18 16 16 16 16 15 16 16 15 15 16 16 16 16 16 16 17 17 18 20 21 22 22 23 24 24 24
23 19 21 15 19 17 20 18 27 54 33 23 23 21 20 22 22 20 20 22 21 21 20 18 18 19 20 20 20 19 20 20 20 19 19 20 21 21 21 21 21 24 25 25 26 26 26 26 26
24 15 20 14 24 25 20 19 20 19 32 24 21 23 22 21 22 22 23 24 23 23 22 22 23 23 25 24 24 23 24 23 22 23 23 24 24 24 26 25 26 27 28 28 29 29 30 30 30
21 17 14 22 6 31 24 18 16 16 21 31 26 25 22 20 22 24 23 23 24 23 22 23 24 25 27 26 26 25 25 26 26 25 25 26 26 27 28 28 28 29 31 31 32 33 32 33 33
23 19 10 12 15 14 24 20 28 26 21 23 28 26 21 22 26 26 26 27 28 27 27 27 27 27 27 28 27 27 27 28 27 27 27 27 29 30 31 32 33 34 36 36 36 36 39 40 37
17 22 17 4 14 13 15 26 32 30 30 25 27 28 28 29 32 34 32 29 28 29 29 28 28 29 29 29 29 30 31 31 30 30 31 32 33 34 35 35 37 38 38 38 38 39 40 38 35
12 12 13 18 7 11 17 7 24 31 34 34 32 35 34 30 36 38 40 36 35 33 31 31 30 29 30 30 31 32 32 33 33 33 34 35 36 36 37 37 37 38 39 38 37 39 39 37 34
12 10 8 8 9 12 12 9 24 24 32 41 39 40 40 39 36 34 32 30 30 30 29 29 30 29 30 31 32 33 34 35 35 34 35 36 36 36 37 37 37 37 37 36 35 35 34 33 32
10 10 8 5 6 6 22 20 13 24 27 27 31 39 40 44 39 34 33 32 30 29 29 30 31 32 33 34 35 35 35 36 35 34 33 34 35 35 36 35 33 32 31 31 30 30 30 30 31
19 12 3 1 4 5 6 18 27 11 8 7 19 26 31 41 46 48 45 41 38 35 33 34 35 35 34 34 35 35 35 33 32 32 31 32 32 33 32 32 31 31 31 31 30 31 31 32 33
25 22 5 5 4 4 15 11 7 8 9 11 16 17 23 30 38 42 41 40 37 37 36 36 35 35 36 34 33 32 31 31 30 30 31 32 32 32 33 33 33 34 34 33 34 34 34 35 34
22 26 20 1 3 2 9 14 22 24 24 15 15 20 21 27 31 30 35 37 38 39 37 36 37 34 32 30 29 29 29 30 30 31 31 32 32 33 34 34 35 36 36 36 37 36 36 35 34
16 22 14 13 2 4 7 12 17 17 16 14 17 19 25 22 23 25 27 31 32 32 31 31 31 29 27 27 27 28 30 31 31 31 30 31 32 33 34 35 36 36 36 36 36 34 32 30 29
23 19 17 13 12 4 3 7 7 2 8 20 17 12 17 18 19 20 23 24 26 26 26 25 25 26 27 27 28 29 29 30 30 30 31 32 33 33 32 32 30 30 28 27 26 25 24 24 25
25 26 26 11 7 11 12 22 14 12 24 20 15 13 9 13 14 15 18 21 22 22 21 22 23 24 26 27 28 29 30 31 31 31 32 31 30 29 27 26 25 24 23 21 21 20 21 21 22

GFSSGP_700_spd_081.txt.gz
Wind_Speed
25 24 23 22 16 13 17 13 16 17 21 14 17 14 12 16 17 7 10 18 15 15 14 16 18 19 18 16 15 13 14 14 14 14 14 14 16 17 16 16 16 16 16 16 14 13 12 12 12
26 24 23 22 15 18 17 17 15 18 18 23 17 17 13 15 16 14 9 20 17 13 13 15 17 19 19 22 20 17 16 16 15 15 14 15 17 16 16 17 18 18 17 17 15 14 14 13 13
27 24 24 23 22 21 12 21 15 17 15 19 19 18 17 15 16 19 15 20 17 14 12 14 15 17 18 20 21 22 20 19 18 17 17 17 17 16 16 16 16 17 17 16 16 16 16 15 15
28 25 25 21 24 21 14 19 17 16 15 18 18 17 17 16 15 20 21 22 17 17 11 14 14 14 15 16 18 20 20 22 21 19 19 18 18 17 17 16 16 16 15 15 15 16 15 15 15
28 26 23 23 22 24 17 17 20 15 19 22 21 16 16 17 17 21 23 24 18 18 15 13 12 12 12 13 14 15 16 18 19 20 20 19 19 20 20 20 19 17 17 16 16 14 14 13 13
32 30 24 27 30 21 23 16 18 16 20 24 21 16 16 16 17 24 26 28 25 22 20 14 13 12 11 10 12 12 12 13 15 16 17 16 18 19 18 19 20 20 21 21 20 18 17 15 14
38 40 32 31 29 25 22 21 15 14 18 22 22 19 14 16 17 23 28 29 28 27 24 20 16 14 12 10 11 10 10 9 10 10 11 11 12 14 15 16 14 13 16 16 16 17 18 20 19
42 41 25 24 28 30 25 24 19 12 15 18 20 19 15 15 18 21 27 28 29 27 26 24 19 16 15 12 11 10 9 8 7 6 6 6 5 6 7 9 9 9 7 9 9 10 12 12 11
41 39 39 38 27 31 32 26 24 14 15 16 20 18 18 16 20 22 25 27 28 28 28 26 23 20 18 16 13 11 10 9 8 6 5 4 1 0 1 1 1 2 4 5 5 5 5 5 5
37 41 35 36 30 30 33 31 26 16 14 18 20 20 19 18 20 22 25 26 28 28 29 28 26 23 22 20 17 15 13 12 10 9 8 7 6 6 5 5 5 6 6 7 8 7 8 8 8
39 37 27 31 33 31 30 34 27 20 14 20 22 23 21 21 21 23 22 25 25 27 28 30 29 26 25 24 21 18 16 15 14 13 12 12 11 11 10 10 9 9 10 10 10 10 11 12 12
35 35 35 24 33 33 33 33 36 26 17 21 24 24 20 21 21 20 20 20 22 24 25 28 29 28 27 25 24 23 21 19 18 17 16 15 15 14 14 13 12 12 12 12 13 13 14 15 15
34 28 30 26 31 34 35 35 33 37 22 21 25 26 23 22 20 21 21 19 20 24 26 26 27 27 27 27 25 23 21 20 19 17 16 16 16 16 15 14 14 14 15 14 15 15 15 16 17
27 23 28 31 33 33 36 32 38 41 33 21 21 27 25 24 22 22 20 20 21 21 23 22 22 23 24 24 24 22 19 18 16 15 14 14 15 15 15 15 15 16 16 15 16 16 16 16 18
19 21 16 23 31 34 33 36 37 41 42 29 16 26 26 24 25 21 21 22 21 19 18 19 18 18 19 19 19 19 19 18 16 15 14 15 16 16 16 16 16 17 17 17 17 17 18 20 21
18 21 20 23 23 28 26 36 37 39 48 40 24 28 28 26 25 24 23 24 23 22 20 19 18 18 18 19 19 18 17 17 16 15 15 15 16 16 16 16 17 19 19 20 20 22 22 23 24
21 18 21 16 20 19 20 27 26 30 44 49 30 28 28 28 29 25 22 23 24 25 22 20 19 19 20 19 19 19 18 17 17 17 18 18 18 18 18 19 20 21 22 23 24 25 26 27 27
19 17 18 16 16 19 17 20 16 24 25 49 38 30 31 30 28 26 24 24 24 24 24 22 21 21 21 21 21 20 19 19 20 20 20 21 22 22 22 21 22 24 25 26 27 28 30 30 30
20 16 16 12 8 14 19 19 16 19 27 33 36 32 32 32 27 26 24 25 23 22 22 21 22 23 24 24 24 24 24 24 24 25 26 27 26 25 25 25 25 26 27 28 31 32 33 34 35
18 19 13 16 17 9 11 19 17 18 12 15 39 34 33 33 31 26 25 24 22 20 19 20 22 23 24 24 25 26 26 26 26 27 28 27 27 27 28 28 28 30 32 33 35 36 38 37 36
20 20 15 7 12 14 12 22 25 23 19 17 23 45 35 36 33 27 25 25 24 22 22 23 25 26 27 27 28 27 27 27 29 29 29 29 30 31 32 33 33 35 36 37 38 37 37 38 36
13 18 16 9 13 8 13 6 15 26 25 23 21 35 36 37 35 26 22 26 26 25 25 24 24 26 26 27 27 28 29 30 30 30 31 32 32 33 34 35 35 36 38 38 37 37 36 36 34
8 10 8 14 16 9 9 7 18 22 28 33 30 30 42 39 36 29 24 26 30 32 32 31 30 30 29 28 29 29 29 30 31 31 32 34 34 35 35 36 36 36 37 36 35 34 32 32 30
9 9 7 6 9 6 20 15 12 19 23 23 24 27 32 37 34 35 34 32 33 34 33 31 31 30 29 29 30 31 32 33 34 34 34 35 35 34 35 36 36 35 33 31 31 31 31 30 30
13 13 4 1 3 4 5 11 25 5 7 3 13 22 25 28 33 38 41 37 33 30 28 27 28 29 30 32 33 34 34 34 34 34 34 33 33 32 32 32 31 31 30 30 30 31 31 31 31
22 17 6 6 4 3 12 7 6 7 7 9 11 12 15 23 29 35 40 40 36 33 33 33 34 34 35 36 36 35 35 34 33 32 31 31 31 31 31 30 31 31 31 32 32 32 33 33 33
23 24 16 1 2 1 6 6 10 15 14 6 6 12 17 21 23 24 29 37 40 42 41 39 37 36 36 37 37 36 35 34 33 31 30 31 31 32 31 32 32 33 33 33 34 35 35 35 35
13 22 12 13 2 4 3 6 10 6 7 4 7 10 17 23 22 24 24 30 32 37 39 38 38 37 37 36 35 32 32 32 31 31 31 31 32 31 31 32 32 34 34 35 35 35 34 34 32
22 17 14 11 10 3 1 4 3 5 7 11 18 10 13 17 27 20 21 26 31 32 33 32 32 33 32 30 29 29 30 30 30 31 31 30 31 31 32 33 33 34 33 32 30 29 28 26 24
22 25 21 11 6 10 13 17 14 9 9 20 11 6 9 8 16 17 19 22 23 24 26 28 28 27 27 27 26 27 28 29 30 31 31 32 32 32 32 32 31 30 29 27 26 24 22 21 21

GFSSGP_700_spd_084.txt.gz
Wind_Speed
27 25 23 20 13 12 19 11 20 20 20 18 17 20 12 13 14 6 12 18 16 15 14 15 16 16 15 14 14 15 15 15 15 16 16 16 16 15 16 16 16 15 14 12 11 10 11 10 10
28 26 24 21 14 18 20 16 19 21 21 18 19 17 15 12 16 7 16 20 18 15 13 15 18 20 19 18 18 17 16 16 15 16 16 17 16 16 17 17 16 15 14 13 13 12 12 12 11
29 28 25 16 19 22 19 21 21 21 18 21 19 20 17 16 17 15 15 21 18 16 14 15 18 20 22 22 21 20 19 17 17 17 17 17 16 17 17 17 16 15 14 15 14 14 14 14 13
30 29 27 19 22 17 12 22 22 18 16 19 24 19 19 15 17 20 21 23 19 17 16 16 16 18 19 22 22 23 21 20 19 18 18 18 17 18 17 16 14 14 13 13 13 13 13 12 13
31 30 21 22 21 17 19 19 22 17 19 20 21 21 21 19 16 24 24 26 21 18 17 17 16 15 16 19 19 20 20 21 20 19 18 17 18 18 18 17 17 17 17 16 15 14 14 13 12
32 25 25 28 23 19 21 18 21 17 19 21 21 22 20 19 18 23 29 30 24 20 19 18 16 15 13 15 16 16 15 17 17 16 18 18 18 16 16 18 18 18 19 19 19 19 18 17 16
35 30 30 28 23 18 24 19 18 16 19 25 22 18 22 20 19 25 33 33 30 25 21 19 17 16 14 13 14 13 12 13 13 13 13 13 13 12 13 15 14 13 13 13 13 14 13 12 13
38 28 27 27 24 23 25 23 18 12 18 25 24 22 23 22 19 26 32 34 33 30 27 23 20 19 16 14 14 13 11 10 8 9 8 8 7 7 6 7 7 6 6 6 6 6 6 6 6
43 28 31 28 24 23 28 25 21 15 14 23 25 25 22 22 20 21 28 34 34 32 30 27 24 22 20 17 15 14 12 10 9 9 7 6 5 3 1 1 1 1 1 2 3 3 4 5 5
43 37 31 28 19 18 27 24 21 17 12 18 24 25 24 23 25 22 24 29 32 32 31 30 28 25 23 21 19 17 15 13 11 9 8 7 7 6 6 6 7 7 7 7 6 7 7 8 8
36 46 27 27 24 22 24 24 25 19 17 18 23 25 25 24 28 25 21 23 27 30 32 31 30 29 26 24 22 20 18 16 14 13 12 12 11 11 11 11 11 11 11 11 10 10 10 11 11
35 31 27 27 34 27 29 27 27 22 21 17 21 25 24 24 27 25 24 22 21 26 30 31 31 30 30 28 26 24 22 20 18 17 16 16 16 16 15 15 14 14 14 13 13 13 13 13 13
29 29 24 22 23 29 31 29 28 27 23 19 21 25 25 27 27 28 27 26 22 21 25 31 33 33 32 31 28 27 25 23 21 20 19 19 19 18 17 16 16 15 15 15 15 15 15 16 16
31 20 29 25 24 27 30 33 31 30 30 23 19 25 27 27 29 29 28 27 26 23 25 28 31 33 33 31 29 28 27 24 23 22 21 19 19 18 18 17 17 17 17 17 17 17 16 17 17
21 22 20 26 30 24 30 34 37 30 31 31 24 25 28 28 30 29 28 27 26 24 25 27 29 30 31 31 30 29 26 24 22 20 19 18 18 18 18 18 19 19 19 18 18 18 18 19 20
17 22 19 20 28 31 32 32 22 33 30 33 31 27 28 29 31 30 29 28 29 27 24 22 23 25 27 27 27 25 24 22 21 20 18 16 16 17 17 17 18 19 19 19 20 20 21 22 23
18 18 25 17 25 27 30 21 23 27 32 34 36 35 31 30 31 31 31 32 31 27 24 21 21 22 22 23 23 23 22 21 20 18 17 17 19 20 19 20 21 22 22 22 22 23 24 25 26
17 16 22 19 25 25 25 24 23 25 29 33 34 40 37 34 32 33 33 32 32 31 28 26 23 22 24 23 23 22 21 21 20 19 20 22 23 23 23 23 24 25 25 25 26 27 27 28 30
14 15 16 14 14 15 22 23 24 25 27 32 34 43 48 38 35 35 34 31 31 31 31 30 26 25 23 22 22 22 22 22 23 24 26 27 27 27 28 28 27 28 27 27 28 30 31 33 34
15 14 13 12 14 13 12 21 22 25 26 26 28 34 51 41 37 37 37 34 31 27 29 28 30 24 25 25 25 26 26 26 26 27 28 29 29 29 29 28 29 29 30 31 32 33 35 36 37
15 18 14 7 12 16 12 19 21 24 22 26 25 27 46 45 39 37 36 34 31 26 25 24 27 28 29 27 26 25 26 26 27 28 30 31 31 31 31 31 32 34 35 35 36 37 38 39 36
15 20 13 11 12 9 13 6 10 19 23 23 22 24 45 47 42 39 36 34 32 28 26 24 23 23 25 25 26 27 28 28 29 30 32 32 33 32 33 33 34 35 37 37 37 38 38 37 36
12 19 18 12 10 5 10 9 15 15 21 21 24 25 40 48 47 41 34 33 35 30 29 27 25 25 24 24 25 27 28 29 30 31 32 32 33 33 34 35 36 37 37 37 36 36 36 35 34
10 13 11 10 11 12 19 15 13 12 14 17 16 18 22 52 51 38 34 34 35 31 30 29 28 29 30 30 30 30 30 30 30 31 33 34 35 36 36 36 36 36 36 35 34 33 32 32 31
15 15 6 6 7 7 7 15 23 11 3 8 13 19 18 32 42 40 39 37 37 32 29 29 32 32 33 32 30 31 30 31 32 33 34 35 36 36 35 34 34 34 33 32 32 32 32 33 33
19 19 6 6 5 4 11 9 6 10 17 12 7 10 15 28 30 26 50 37 37 36 33 30 31 32 31 30 29 30 32 34 35 35 35 36 36 35 34 33 33 32 32 32 32 32 33 34 34
20 18 11 0 2 3 6 7 12 9 9 5 8 12 15 16 23 29 29 34 41 43 39 33 32 30 31 33 35 36 36 37 37 37 36 36 35 35 34 34 33 32 32 32 32 33 34 35 35
15 19 10 10 4 5 4 6 7 9 6 6 1 8 10 20 23 25 28 35 39 40 39 40 40 39 40 39 38 38 39 39 38 37 36 35 35 35 34 33 32 32 32 32 33 34 34 35 34
28 17 16 11 10 3 2 3 10 12 14 6 6 6 8 13 18 25 30 32 32 34 39 41 41 41 40 39 39 38 37 37 36 35 34 33 34 34 33 33 33 33 33 33 33 33 31 30 28
21 21 21 12 7 12 9 11 5 10 15 11 2 5 6 7 9 14 29 24 25 29 36 37 37 37 37 36 36 35 34 32 31 31 32 32 33 33 33 33 33 33 33 32 31 29 28 26 24

GFSSGP_700_spd_087.txt.gz
Wind_Speed
28 25 23 21 14 14 23 19 13 14 12 15 18 20 12 11 14 7 11 15 13 11 11 11 12 13 14 14 14 14 14 14 14 15 15 16 15 15 15 14 13 11 10 10 10 9 9 9 10
29 26 23 15 14 22 24 21 19 13 14 19 17 21 15 6 16 6 17 18 16 13 12 13 14 15 16 17 16 15 15 15 15 16 16 16 16 16 15 14 13 13 12 11 11 11 11 12 13
30 28 19 13 21 26 25 22 13 14 22 18 18 17 10 11 18 11 20 20 17 13 13 16 17 18 18 19 18 17 16 16 16 16 17 15 16 15 15 15 14 14 13 13 13 13 13 13 13
30 28 18 21 25 24 18 17 19 11 18 24 16 10 18 13 19 15 24 22 18 17 15 16 18 19 20 20 20 19 18 17 18 17 17 16 16 15 15 14 14 13 13 12 11 11 11 10 11
31 19 23 24 24 23 12 16 18 12 12 19 24 11 16 15 18 19 29 26 23 21 18 17 17 18 19 19 20 20 19 18 18 18 18 18 16 16 16 15 14 14 15 15 14 14 13 13 12
31 23 27 30 28 19 15 12 17 12 12 16 19 12 23 21 18 23 33 30 27 23 22 20 18 17 17 17 18 18 18 17 17 18 18 17 17 17 16 16 15 16 16 16 16 15 15 14 14
35 28 30 32 29 21 16 12 11 16 11 18 19 12 22 23 21 23 33 32 31 25 25 22 18 17 17 17 16 16 14 14 14 13 14 14 15 15 14 13 11 12 12 12 11 11 11 10 10
31 27 32 33 27 21 18 15 20 16 22 20 23 12 22 24 24 25 35 34 31 28 27 25 22 18 16 15 16 15 12 12 10 8 8 9 9 8 8 6 5 5 5 6 5 6 6 7 7
40 24 33 32 29 22 19 16 21 18 18 21 26 20 21 26 26 25 35 37 35 31 29 26 25 22 19 17 15 14 13 11 11 7 5 5 5 4 2 1 1 2 2 3 4 5 6 7 8
46 29 29 27 25 20 15 15 22 16 13 20 25 25 20 24 24 26 32 37 36 32 30 28 27 25 23 20 19 17 15 14 12 10 8 6 6 5 5 6 7 7 7 8 8 8 9 9 10
38 39 25 28 23 21 15 18 18 11 11 19 26 26 25 21 23 24 27 31 33 35 34 31 29 27 25 23 21 21 19 16 14 12 11 10 10 10 10 11 12 12 12 12 11 11 11 12 12
29 30 29 21 27 18 12 11 13 13 14 18 18 23 26 26 24 27 24 27 31 33 33 33 32 30 28 26 25 23 21 19 18 16 14 14 14 14 15 16 16 16 16 15 14 14 13 13 14
29 33 23 33 22 22 17 15 11 16 21 18 17 20 25 27 27 28 27 24 26 28 30 32 32 32 31 30 28 27 25 22 21 19 18 17 18 18 18 18 18 18 17 16 16 16 16 15 16
19 22 26 36 30 28 25 17 21 16 22 23 21 19 21 23 30 31 31 27 25 26 27 30 32 33 33 32 31 30 27 25 24 22 21 21 21 20 19 19 18 18 18 18 17 17 17 17 17
13 21 19 21 21 21 22 19 31 16 22 25 27 21 22 23 29 32 32 29 30 28 26 26 26 31 34 34 34 32 31 28 26 25 23 22 21 18 18 18 18 18 18 18 18 18 18 18 19
21 18 19 23 22 19 23 26 22 26 21 23 21 26 23 25 27 33 34 34 32 29 30 29 28 27 29 33 33 32 31 29 27 25 24 20 18 17 17 18 18 18 18 19 19 20 20 21 22
23 23 25 18 19 17 26 19 19 19 26 25 24 24 25 25 28 33 36 35 35 34 31 28 27 29 29 31 31 29 29 28 27 24 21 18 17 18 19 20 20 21 21 22 22 23 23 24 25
19 22 26 22 13 21 18 23 17 25 24 27 26 26 27 26 31 34 36 35 35 35 33 29 27 27 25 27 28 27 26 26 24 21 19 19 20 21 22 23 23 25 26 26 26 26 27 27 28
19 21 19 22 10 13 22 21 25 23 24 28 27 25 28 31 32 36 36 37 37 35 34 32 28 25 24 23 23 24 23 23 22 21 22 22 23 24 25 26 27 29 29 28 29 29 29 30 31
13 17 15 13 14 12 15 23 24 25 26 24 26 25 24 29 31 43 40 39 38 37 37 34 30 27 26 24 24 25 24 24 23 23 24 26 27 28 28 29 30 30 30 30 31 33 34 35 34
13 15 17 8 12 13 13 22 24 27 26 27 30 31 34 39 34 36 45 41 40 38 38 36 35 30 31 29 27 26 24 23 24 26 27 29 29 30 31 31 31 32 33 33 34 36 37 37 36
15 14 11 11 9 13 17 9 19 21 27 28 29 33 35 37 37 33 47 50 44 40 37 34 35 35 34 30 30 28 23 23 26 26 27 29 31 33 32 33 33 34 34 35 35 37 37 37 37
9 18 10 9 12 12 12 9 21 16 19 24 24 27 30 38 45 34 48 52 49 42 35 35 31 28 29 31 33 38 30 29 33 32 31 32 32 33 34 34 34 35 36 37 37 36 36 36 37
12 11 12 10 11 8 19 16 15 20 15 16 18 20 21 27 36 31 40 46 45 41 37 36 32 29 27 25 25 25 26 28 30 31 32 32 33 33 34 35 36 37 36 36 35 35 34 34 32
11 15 8 7 7 9 5 15 27 7 10 12 10 15 18 24 28 35 37 44 44 42 37 37 33 31 29 27 28 28 29 30 31 31 31 31 32 33 34 35 35 35 35 35 34 33 31 31 31
18 19 7 9 9 11 8 10 15 15 19 22 16 12 21 25 34 33 44 46 41 39 33 33 36 37 34 29 29 32 31 30 30 31 32 33 35 35 35 35 35 34 34 34 33 32 32 33 33
20 22 19 6 4 4 10 12 17 17 9 10 11 14 12 16 22 28 37 54 49 40 35 35 37 37 38 32 35 38 40 35 33 34 36 36 37 37 37 36 36 35 34 33 33 33 33 33 34
11 16 10 8 4 8 8 9 12 8 11 7 4 10 13 16 19 22 30 32 44 46 37 35 37 33 33 35 35 34 34 36 37 38 39 40 40 40 39 37 36 35 34 33 33 33 33 34 34
26 14 11 7 16 4 6 5 8 10 12 8 5 3 8 11 14 21 23 27 33 31 41 44 34 37 41 38 37 38 39 40 40 41 41 40 39 39 38 37 36 35 34 33 34 34 34 34 32
25 26 20 17 9 13 14 7 7 9 14 16 5 3 3 5 9 11 19 27 30 33 38 43 41 40 41 41 42 41 40 41 42 41 39 37 35 35 35 35 36 35 35 35 35 35 33 32 29

GFSSGP_700_spd_090.txt.gz
Wind_Speed
27 25 24 22 15 13 19 18 15 20 21 11 13 13 9 19 11 13 12 12 11 9 9 9 10 11 12 13 12 13 13 14 15 15 15 16 16 15 14 13 12 11 10 10 10 11 11 12 12
30 26 24 23 12 16 20 25 14 16 15 26 21 13 13 20 6 13 16 16 13 11 9 9 12 13 13 14 15 15 14 15 16 16 16 17 17 16 15 13 12 12 12 12 13 13 13 13 13
29 28 24 21 20 22 21 22 22 16 17 16 17 15 6 6 6 13 19 18 15 13 12 13 14 15 16 16 16 16 15 16 16 16 16 17 17 16 16 15 14 14 14 13 14 13 13 13 13
29 28 22 19 21 31 18 19 22 27 21 16 7 18 14 13 15 17 22 20 18 15 15 16 17 18 18 19 18 17 16 16 16 17 15 16 17 17 15 14 15 15 14 13 13 12 11 11 12
31 25 23 19 24 23 14 18 22 21 25 20 19 14 19 16 17 17 24 22 21 17 18 18 19 20 20 20 19 18 17 17 17 17 15 16 17 17 17 16 16 16 14 13 13 14 14 14 15
34 28 22 24 23 21 19 29 17 16 14 15 19 15 17 18 21 19 27 26 23 20 20 20 19 20 20 20 20 20 19 17 17 17 16 16 16 17 18 18 18 17 16 15 15 15 15 14 14
33 31 27 27 25 21 16 18 22 18 17 17 21 18 18 20 18 24 31 28 24 22 22 21 19 20 20 20 19 18 18 17 17 17 18 16 17 16 15 15 14 14 12 12 12 12 12 11 12
37 31 26 29 28 18 18 17 18 22 20 21 24 19 22 21 21 20 32 31 27 27 25 23 21 21 20 19 18 16 14 13 12 12 13 12 11 11 10 10 9 8 6 7 7 7 8 8 9
35 29 30 29 27 25 20 23 23 24 24 23 28 21 20 19 23 21 32 35 29 32 29 26 24 22 21 19 18 16 13 11 9 8 6 7 7 5 4 3 3 3 4 5 6 7 7 8 9
38 32 35 27 15 27 25 19 22 24 21 23 24 21 19 21 24 24 35 35 33 33 32 29 27 23 23 22 20 18 15 12 9 8 5 3 2 1 2 2 4 5 7 8 9 9 9 9 10
32 37 34 26 12 24 23 16 20 18 15 21 27 26 22 20 23 25 30 34 36 32 33 30 28 25 23 23 21 20 17 15 12 10 8 6 5 6 6 7 8 9 10 11 11 11 12 12 12
25 40 28 8 23 23 24 17 19 13 20 21 23 27 22 20 20 26 28 35 37 35 31 30 28 27 25 23 23 21 20 17 15 13 12 10 9 10 11 11 13 13 14 13 13 12 13 14 14
28 34 29 21 11 21 19 18 16 18 18 18 17 21 25 21 19 23 27 30 32 33 30 27 29 27 26 24 25 24 22 20 18 17 15 14 13 14 14 15 15 16 16 15 14 15 15 15 14
34 25 26 30 19 27 13 12 13 16 21 18 19 17 22 21 24 24 27 26 28 31 35 36 34 33 30 27 28 27 25 24 23 20 18 17 17 17 16 16 15 15 15 15 16 15 15 15 15
21 36 27 28 21 19 27 15 22 11 13 18 20 18 17 17 22 27 26 29 26 28 30 31 29 31 30 31 29 31 30 27 26 24 22 21 21 19 16 15 15 15 15 15 15 16 17 17 18
33 15 20 23 20 29 17 31 21 21 16 19 21 23 21 18 21 26 28 32 31 29 28 29 29 30 31 32 32 31 32 31 29 28 26 24 23 19 15 15 15 15 15 16 17 19 19 20 21
20 11 18 12 20 26 21 18 17 17 27 26 22 19 19 25 22 25 28 30 33 32 32 30 27 27 27 27 31 32 32 31 30 29 27 24 22 18 16 16 17 18 18 18 20 22 22 22 23
21 23 17 19 18 25 17 23 12 16 25 25 26 25 22 22 28 26 28 30 33 32 33 33 31 30 29 29 28 28 29 31 31 30 28 24 19 18 17 18 19 21 21 22 24 24 24 25 26
10 19 16 20 19 17 24 15 16 17 23 26 29 26 28 25 26 34 26 30 34 35 35 33 34 32 30 30 31 30 30 30 27 27 24 21 20 19 19 20 22 23 25 26 26 26 27 27 29
14 19 22 9 14 15 9 18 24 23 27 24 20 30 26 23 27 35 35 30 34 34 35 36 35 33 30 30 28 25 25 25 22 21 21 21 19 20 22 25 25 26 27 27 27 29 30 31 32
10 19 16 9 10 9 10 16 22 26 28 27 26 26 27 27 27 34 35 36 34 35 37 37 36 34 33 29 30 27 24 23 22 22 21 20 22 24 25 26 27 28 29 29 30 31 33 34 34
10 7 13 12 4 6 8 5 14 22 30 28 31 31 29 31 29 32 34 37 39 37 39 39 38 38 36 35 32 28 26 25 29 31 29 23 22 24 25 27 29 30 31 31 32 33 35 36 37
9 15 6 8 9 11 9 8 20 5 16 20 22 28 29 30 30 36 40 39 40 43 40 41 42 41 41 38 35 32 29 31 27 30 32 28 25 29 33 31 31 31 32 34 35 35 36 36 36
11 11 9 6 4 4 18 16 9 15 11 16 19 19 20 25 27 30 37 42 41 43 43 45 46 43 40 37 38 38 34 35 34 36 38 33 31 31 37 31 31 32 33 34 34 34 34 34 33
12 13 4 1 4 5 3 14 24 3 5 12 13 19 20 22 25 25 42 52 48 47 41 40 46 44 40 32 32 44 28 26 26 26 29 29 30 31 29 30 31 31 32 33 33 33 33 32 31
19 19 6 4 4 5 18 9 17 14 21 19 17 22 22 25 25 27 27 37 49 47 39 36 38 38 36 33 32 30 29 28 29 29 28 29 30 29 30 31 32 33 33 34 34 34 33 32 32
17 22 17 8 9 4 9 8 13 18 16 16 26 25 17 19 27 27 28 29 32 35 37 36 34 34 34 34 31 32 29 27 28 29 32 33 35 36 36 36 37 36 35 35 36 35 34 32 33
15 23 13 9 2 3 4 13 12 4 16 7 6 12 17 17 18 26 27 26 28 31 39 41 35 35 33 34 35 39 40 43 38 37 37 39 37 38 39 40 39 39 38 37 36 36 35 33 33
28 24 13 8 10 2 1 1 2 12 18 17 12 7 10 13 14 17 19 20 28 25 30 46 48 39 30 33 31 33 31 32 32 36 37 39 39 40 41 41 40 39 38 37 36 35 34 34 33
22 25 21 8 5 13 6 6 3 9 13 12 7 5 6 8 10 10 10 17 22 27 29 33 40 47 29 39 46 35 24 34 39 40 39 40 41 42 40 39 39 38 36 36 36 35 34 34 33

GFSSGP_700_spd_093.txt.gz
Wind_Speed
27 29 29 27 20 13 22 23 16 29 16 15 11 11 23 16 21 9 16 14 14 11 11 10 10 10 11 10 11 12 13 14 14 15 15 16 15 15 14 13 12 11 11 11 12 12 12 13 14
28 31 33 26 17 19 24 26 23 20 17 16 5 13 23 14 4 16 21 18 15 11 10 10 11 11 12 13 13 14 15 15 15 16 16 16 16 16 15 14 13 13 12 13 14 14 14 14 14
31 32 31 32 23 29 29 30 17 13 23 27 17 15 13 17 10 20 23 21 17 14 12 12 12 14 14 15 16 16 16 16 16 16 16 16 16 16 16 15 15 14 14 14 13 13 13 12 12
34 32 29 21 37 36 28 29 18 20 21 21 14 12 11 19 17 17 25 21 18 16 14 14 15 16 17 17 17 17 17 17 16 16 15 16 16 15 14 14 14 14 14 14 14 14 14 15 14
37 34 28 28 36 39 20 11 22 28 20 18 29 23 13 14 17 20 26 23 20 17 17 17 18 18 19 19 18 18 17 17 17 16 15 16 16 16 17 17 17 18 18 18 18 17 17 17 17
37 36 29 31 35 21 23 21 22 20 21 22 21 22 21 18 22 22 27 25 23 19 19 20 20 21 20 20 19 19 17 17 17 17 17 17 18 19 19 19 18 18 18 18 16 15 15 14 14
36 32 36 33 32 20 23 30 14 18 20 25 23 23 18 15 24 21 28 27 26 22 21 21 21 21 22 21 21 20 19 19 19 19 19 18 19 19 18 16 16 16 15 14 13 13 13 13 12
36 31 33 27 28 18 27 33 36 22 24 24 22 22 20 25 22 24 27 28 28 25 23 22 19 20 20 20 20 19 19 18 17 17 16 16 15 14 13 12 11 11 9 9 9 9 10 10 10
37 27 31 33 25 26 23 23 34 29 29 27 25 21 16 16 20 23 29 30 31 29 27 25 21 20 20 19 19 18 18 16 15 14 12 11 11 9 8 8 7 7 6 6 7 8 8 9 10
34 36 34 38 17 22 19 20 28 26 28 28 23 24 24 17 19 23 28 30 34 31 30 28 25 21 20 20 19 18 17 15 13 11 8 7 6 4 4 3 4 5 6 8 8 8 9 9 10
31 36 34 29 19 24 25 19 21 27 27 24 29 26 24 21 22 27 25 29 32 33 32 30 27 23 22 20 18 17 16 14 11 10 7 6 4 2 1 3 5 6 7 8 9 10 10 10 11
37 31 27 19 18 18 27 20 19 25 25 27 26 26 25 25 21 28 29 31 31 28 32 32 30 26 24 22 21 19 17 15 13 11 9 7 6 6 5 6 7 8 9 9 10 10 11 12 12
32 33 21 15 21 25 31 25 23 21 18 22 22 27 27 25 21 26 27 30 32 33 33 34 30 27 26 25 24 22 21 18 17 15 13 10 10 9 9 9 10 10 9 10 9 10 10 11 11
32 31 26 13 21 26 26 27 27 18 21 21 20 18 27 26 22 23 29 29 28 33 31 30 30 28 26 25 26 25 24 23 21 19 18 16 14 14 13 12 12 11 10 10 9 9 10 11 12
18 31 24 21 15 20 24 25 27 17 19 19 21 19 21 26 27 22 25 26 27 29 31 33 33 32 27 28 27 28 27 25 24 22 22 20 19 18 18 16 14 11 11 11 11 11 12 13 14
18 24 21 28 26 11 26 20 24 16 16 16 17 19 18 18 22 27 26 25 25 27 29 29 31 29 30 32 31 30 30 28 28 26 25 25 23 22 21 18 15 13 12 12 13 14 15 16 17
16 13 21 19 21 26 17 15 21 15 16 17 17 20 22 20 21 24 26 31 28 29 27 25 28 32 32 34 32 31 32 32 31 31 30 27 27 25 22 19 17 15 14 14 15 16 18 19 19
16 18 6 11 20 24 31 22 20 20 20 20 22 23 24 26 24 20 22 26 30 28 27 25 26 27 29 29 30 30 31 32 33 33 33 30 28 26 22 20 19 17 17 17 18 19 21 21 22
10 18 13 12 11 14 19 23 23 21 21 19 26 27 25 27 28 27 23 24 29 31 29 27 26 27 31 31 31 31 32 31 32 31 30 28 26 25 23 22 19 19 20 20 21 22 23 23 24
8 14 21 12 17 20 15 19 30 25 22 21 26 27 28 27 28 32 29 26 26 28 31 30 28 28 29 29 30 30 30 30 27 26 24 24 21 19 20 19 18 20 22 23 24 24 26 27 27
9 15 16 17 15 10 5 19 17 24 29 28 27 29 29 30 31 35 34 32 28 28 29 31 30 29 30 30 31 30 28 27 27 26 22 21 21 20 20 19 20 21 24 25 26 27 28 29 29
9 11 13 11 16 10 17 5 17 21 27 35 35 34 32 27 33 36 35 36 36 32 30 29 30 29 31 32 33 30 27 26 24 27 27 30 31 33 33 33 25 19 24 28 28 29 30 31 31
7 7 10 18 15 8 10 7 15 15 17 28 32 35 35 30 33 36 37 35 34 31 31 33 34 33 34 32 35 36 32 28 29 29 29 34 32 30 34 39 31 25 31 31 30 31 32 32 33
12 12 8 11 7 3 15 12 8 16 16 14 14 15 18 21 27 35 39 39 36 37 35 33 34 37 36 36 35 38 37 34 35 32 30 28 28 27 29 33 29 29 32 32 32 32 32 32 31
15 14 3 1 2 5 6 15 26 7 11 5 16 15 17 16 13 25 38 38 44 39 36 36 37 36 38 38 39 39 41 39 36 35 33 31 28 28 30 27 27 28 29 31 32 33 32 31 31
19 19 6 5 4 4 15 11 12 8 18 15 10 14 20 21 23 21 24 29 33 39 37 35 39 41 40 38 40 39 38 37 38 28 26 24 26 28 28 27 26 27 31 33 37 35 34 33 33
18 24 11 2 5 1 6 11 12 11 16 21 22 23 21 18 20 25 26 26 26 31 37 38 39 41 40 36 40 40 37 30 26 28 26 25 25 28 29 29 30 36 38 39 39 38 37 35 35
17 25 16 8 3 3 5 9 9 3 16 21 20 21 26 26 18 27 28 30 26 21 25 32 32 31 33 38 38 34 31 32 31 29 28 27 27 29 32 35 36 37 39 39 39 39 38 36 36
30 19 19 11 8 4 2 4 8 17 16 19 15 11 11 15 19 19 24 29 28 25 25 26 34 36 32 38 40 33 30 33 34 34 32 32 36 36 29 35 38 40 40 40 39 37 36 35 35
28 31 27 15 7 14 3 3 2 6 14 15 12 11 11 10 14 16 17 21 25 22 20 24 24 38 37 39 46 46 27 30 34 40 43 31 28 31 34 38 41 41 40 38 37 36 35 35 34

GFSSGP_700_spd_096.txt.gz
Wind_Speed
34 35 34 32 22 16 27 25 32 19 21 17 15 16 25 19 29 9 18 17 17 14 14 13 12 11 10 10 11 11 12 13 15 14 14 15 15 12 11 11 12 12 12 11 12 13 14 14 15
34 37 36 31 25 24 30 19 25 36 13 14 15 22 24 24 24 14 23 20 18 14 12 12 12 12 12 12 13 13 14 15 16 16 15 16 15 14 13 13 12 12 13 13 12 13 13 13 14
36 38 38 34 26 41 35 28 22 25 22 15 15 15 25 24 11 23 22 21 19 17 14 13 13 13 13 14 15 15 16 16 16 16 16 16 15 14 14 14 13 12 12 12 12 13 14 15 16
39 39 36 28 37 41 31 33 19 17 30 11 15 16 26 38 14 27 25 21 19 17 16 14 14 15 16 16 17 17 17 17 16 16 16 16 15 14 13 13 13 13 14 15 16 17 18 19 19
45 39 32 32 43 35 27 35 25 19 26 23 20 14 22 35 24 24 27 23 20 18 17 17 17 18 18 19 19 18 18 18 17 15 16 16 16 16 16 17 18 18 19 19 19 18 17 16 16
42 41 33 38 46 36 25 18 30 24 22 31 27 18 18 32 27 26 27 25 21 18 19 19 20 20 20 20 20 19 19 19 18 17 17 18 18 18 19 19 19 18 17 17 17 16 15 14 14
32 38 42 41 39 32 29 22 26 27 27 28 34 37 25 17 23 24 26 28 26 23 21 22 22 22 21 21 21 21 20 20 20 20 20 20 20 19 19 18 17 16 15 15 14 13 13 12 12
35 35 39 27 33 26 36 31 18 22 28 25 24 29 30 35 23 32 23 28 28 26 24 23 23 22 21 21 21 21 21 21 20 20 20 19 18 17 15 14 13 12 10 10 10 10 10 10 10
40 28 34 25 32 26 30 50 32 20 24 25 23 20 18 23 24 36 32 31 32 30 26 26 23 23 22 21 20 20 20 20 19 17 17 16 14 13 11 10 8 7 7 6 6 6 7 8 9
37 31 38 26 32 27 27 36 45 32 23 24 24 19 22 22 22 28 40 35 35 33 30 28 25 23 23 22 21 20 18 17 15 14 13 11 10 9 7 5 4 4 4 4 5 6 6 7 8
41 24 33 28 32 34 21 21 33 38 29 24 21 23 20 22 20 25 18 30 33 34 32 30 28 25 24 23 21 20 18 15 13 11 10 7 5 3 2 1 2 3 4 5 5 6 6 6 8
26 24 27 29 25 33 25 23 24 28 31 29 24 21 25 24 22 24 23 30 35 34 33 31 30 27 26 25 22 20 17 14 12 9 8 7 5 4 3 3 5 5 6 7 7 6 6 8 9
25 15 21 28 34 32 28 29 25 26 28 25 25 29 22 24 24 28 25 22 29 29 31 30 29 28 26 25 23 21 19 17 15 11 10 9 8 7 8 7 9 9 8 8 7 8 8 8 8
16 19 25 28 31 30 25 30 30 27 26 23 26 26 28 24 25 28 29 29 25 26 30 30 26 30 27 26 24 22 20 19 17 15 14 14 13 12 12 12 12 12 10 9 8 8 8 8 9
31 4 14 26 30 29 32 27 27 28 24 20 18 23 27 29 22 22 28 30 32 32 32 26 33 31 30 28 26 25 23 22 22 21 19 17 17 17 16 15 15 15 13 11 10 10 10 10 11
29 26 17 16 15 16 31 29 26 25 23 18 20 20 24 30 26 22 24 31 30 28 28 29 30 31 30 28 28 27 26 25 26 26 25 24 23 22 20 20 18 17 16 14 13 12 12 13 14
13 18 15 12 12 9 28 25 29 28 23 14 18 19 20 21 25 27 26 28 29 27 30 29 30 31 32 32 25 25 29 30 30 30 29 28 27 26 25 24 22 20 19 16 15 15 15 16 17
15 18 20 20 12 19 16 19 29 31 25 18 15 18 20 20 19 19 21 26 26 28 28 27 25 26 28 30 27 37 37 32 32 32 33 31 30 30 29 27 24 23 21 18 17 17 18 19 20
7 12 16 13 11 7 18 18 28 24 17 19 22 23 23 24 22 22 21 22 25 27 27 26 25 24 24 26 27 30 30 28 30 30 30 30 31 30 29 29 27 25 21 19 18 18 20 21 22
12 16 17 16 7 11 9 17 11 27 30 27 24 25 26 27 26 25 25 24 23 26 27 28 26 25 25 26 26 26 27 28 29 30 29 30 30 26 25 27 23 19 18 19 19 20 22 24 25
9 12 13 12 12 13 13 17 22 25 29 26 34 29 28 29 30 31 28 27 25 24 23 23 24 25 27 25 27 28 28 29 29 29 29 27 24 24 22 25 27 30 30 30 28 20 22 25 26
8 11 13 15 17 15 12 5 14 18 35 32 35 34 33 32 33 33 35 34 31 29 26 25 24 24 25 26 27 27 27 30 27 27 26 27 28 28 27 29 28 30 35 36 36 23 26 28 29
8 7 10 14 17 13 19 8 13 17 28 31 38 37 36 35 33 31 33 36 35 34 32 31 30 29 27 27 28 29 29 29 28 29 29 29 29 29 31 29 29 28 27 33 26 28 28 30 31
8 11 10 16 18 5 18 22 8 18 22 19 19 29 32 34 33 31 31 33 35 36 37 35 32 32 32 32 32 31 32 30 32 33 33 31 31 31 32 29 24 26 24 29 29 28 29 29 32
14 19 5 3 5 4 23 18 25 9 15 22 17 19 21 23 26 26 27 36 39 38 36 36 35 33 32 32 35 37 34 33 33 33 33 33 32 29 29 27 24 25 26 26 26 28 28 32 36
20 22 4 5 3 4 10 12 17 15 16 19 15 19 19 18 21 23 24 27 39 40 39 39 36 34 35 33 32 32 33 35 36 35 36 36 31 34 33 25 24 27 28 31 27 27 30 36 40
22 23 16 1 1 1 6 15 20 14 15 19 20 17 18 21 21 22 24 22 18 20 28 34 38 38 37 36 35 33 33 34 35 37 38 37 39 48 36 33 33 31 31 33 32 32 31 41 40
21 21 12 10 5 4 5 9 13 19 22 21 19 20 19 19 19 20 21 22 22 23 22 21 25 30 33 34 30 27 29 34 35 35 37 29 27 25 24 27 33 31 32 35 36 33 39 38 38
28 23 18 11 9 4 1 7 15 20 14 19 21 17 17 19 26 27 27 20 25 27 25 24 23 25 25 25 24 26 30 34 36 31 27 26 27 28 32 35 37 39 34 29 32 38 38 38 37
27 33 30 16 8 12 2 4 6 13 13 15 17 13 11 11 13 17 20 20 20 24 25 25 25 25 24 27 31 28 28 31 32 37 44 40 32 36 39 40 43 41 38 34 37 41 40 38 37

GFSSGP_700_spd_099.txt.gz
Wind_Speed
35 38 38 33 25 18 28 30 41 38 32 20 14 17 23 21 23 13 12 21 18 15 14 13 12 11 10 10 11 10 11 12 14 17 16 15 16 14 10 9 10 9 10 12 12 13 13 13 13
34 38 40 34 22 29 27 27 34 29 32 26 21 17 21 28 19 19 18 21 19 16 14 13 12 12 12 12 11 12 14 13 14 16 17 15 11 11 12 11 11 11 12 12 12 13 13 13 14
38 37 42 29 32 40 33 30 34 41 21 20 17 21 22 24 25 15 21 21 21 18 15 15 13 13 13 14 14 14 15 15 16 16 16 15 14 12 12 12 11 12 12 12 13 15 17 17 17
42 43 42 26 40 49 42 28 24 27 37 21 16 21 26 25 24 19 24 23 22 19 16 15 15 15 15 16 17 17 17 18 17 17 16 15 14 13 13 12 12 13 14 16 18 19 20 18 17
51 37 41 30 43 52 46 36 22 23 25 24 14 18 24 29 23 23 26 24 22 20 17 16 16 17 18 18 19 19 19 18 18 18 17 16 15 15 15 15 16 17 18 18 17 16 16 16 15
39 30 31 40 47 41 46 35 27 24 24 30 20 16 25 35 28 27 28 26 23 20 19 18 19 19 20 20 20 20 20 19 18 18 17 17 17 18 19 19 19 18 18 16 15 15 15 14 13
55 54 32 46 51 41 36 26 30 27 26 32 20 19 22 30 29 29 29 28 26 23 20 20 21 21 21 21 20 20 20 20 19 19 19 20 20 20 20 19 18 17 16 14 13 12 12 11 11
37 22 46 48 42 44 34 31 25 28 26 27 33 31 27 31 28 30 29 29 27 25 23 22 23 23 23 23 22 21 21 21 21 21 20 20 19 18 17 15 14 12 11 9 9 8 8 8 9
27 23 41 37 39 43 35 34 34 30 27 27 33 31 33 30 22 21 26 30 26 25 24 25 25 25 24 24 24 24 23 22 21 21 20 19 17 15 14 12 10 8 7 6 5 5 6 7 8
20 28 32 25 36 40 40 35 47 23 33 28 34 29 32 30 26 19 23 27 30 29 29 28 28 26 26 26 25 24 23 22 20 18 17 16 14 12 10 8 6 4 4 4 4 5 6 6 7
14 33 28 29 36 35 39 38 43 25 25 30 29 27 28 29 22 23 25 32 25 29 32 31 30 29 28 27 25 24 22 20 18 16 14 11 9 7 5 3 2 2 3 4 5 5 6 7 7
5 17 30 30 34 30 32 43 38 34 24 20 24 22 21 23 22 25 21 44 30 30 30 32 32 31 29 28 25 24 20 18 16 14 11 8 6 4 2 1 3 4 6 7 6 6 7 7 8
2 6 31 32 36 32 30 30 37 37 28 23 24 23 24 23 19 20 14 15 34 41 31 30 31 32 30 29 26 24 20 17 14 12 11 8 6 5 5 5 7 8 8 9 8 7 7 7 8
6 15 31 28 35 33 28 26 27 32 36 26 26 24 24 24 24 23 27 25 30 34 32 31 31 29 30 29 26 23 21 18 15 14 12 11 10 9 9 9 10 10 11 11 10 9 9 9 9
18 10 31 26 33 36 32 26 24 27 31 29 26 24 27 29 27 23 26 23 23 21 30 30 30 27 28 28 27 25 23 20 17 16 15 15 15 14 14 14 15 14 14 13 13 11 11 11 11
19 21 12 20 27 31 33 26 25 27 27 29 28 29 28 27 28 29 28 26 26 20 28 28 30 29 31 30 30 28 26 23 22 21 20 20 20 19 19 19 20 19 17 17 16 14 13 13 14
9 4 15 11 11 21 28 23 26 28 29 31 27 21 27 28 29 30 35 33 30 28 29 32 32 35 39 31 31 29 28 26 26 26 25 25 25 25 24 25 25 24 22 21 20 17 15 15 16
9 12 10 12 12 10 26 27 26 30 30 32 32 27 20 21 29 28 31 36 32 33 30 29 29 28 27 30 32 32 29 27 30 27 30 30 30 29 29 29 29 29 27 25 22 20 18 18 18
2 8 12 22 17 15 20 22 20 29 29 31 33 31 27 22 16 20 28 28 33 34 35 35 32 27 25 26 27 27 26 30 33 30 32 32 30 30 30 30 31 31 29 27 24 21 20 20 21
7 7 12 11 10 9 22 17 14 29 34 29 28 36 32 25 21 20 18 23 30 30 27 26 25 24 23 24 23 24 24 24 25 26 26 26 27 28 29 30 29 25 19 29 23 19 21 28 26
7 10 11 7 13 12 8 13 18 17 33 32 30 31 36 30 24 22 22 21 20 22 27 27 23 24 23 24 25 24 24 26 26 27 26 25 26 26 27 24 22 25 25 22 22 21 27 35 32
7 6 10 11 12 7 12 4 15 20 20 36 36 34 32 35 30 27 26 26 24 22 22 23 28 27 27 27 26 25 25 26 24 25 26 25 25 26 27 26 26 26 24 22 25 31 26 30 20
9 4 9 10 16 10 17 8 19 16 23 23 38 40 44 38 35 34 33 32 31 28 26 25 26 25 26 25 26 25 25 24 24 25 26 27 28 28 28 30 30 29 26 22 21 21 28 29 25
9 9 8 13 15 6 17 18 10 21 24 23 18 32 32 36 31 33 32 31 30 32 32 31 30 30 29 26 26 26 25 26 26 26 28 29 31 31 31 30 32 31 28 28 24 23 24 23 24
14 12 2 2 4 4 15 16 21 16 17 17 18 23 27 29 31 34 31 31 31 32 33 33 34 34 32 32 32 32 30 30 30 29 29 31 30 31 30 30 29 27 24 22 19 22 25 24 27
22 20 7 6 3 2 6 11 19 19 21 12 22 21 21 23 29 33 32 32 30 28 31 33 34 31 32 33 33 32 34 33 33 31 32 33 32 32 35 35 34 24 32 33 32 29 29 30 30
18 22 21 4 2 1 6 12 12 14 14 15 19 21 22 20 19 23 26 29 28 26 30 35 36 35 33 32 31 32 33 32 30 29 30 33 33 34 35 34 43 36 35 41 43 30 32 35 34
21 19 9 7 4 4 5 9 14 6 17 27 19 23 20 20 21 22 20 22 22 22 23 25 29 35 37 34 36 34 33 33 34 32 31 30 32 33 32 36 36 31 28 30 28 32 35 33 33
26 21 13 7 6 4 2 6 13 16 14 23 20 16 17 17 18 20 19 18 18 24 26 25 25 26 28 31 32 31 28 26 26 25 25 28 32 35 31 28 27 27 29 31 36 37 37 38 39
29 26 25 9 6 11 2 8 6 13 20 13 13 16 14 14 16 20 23 25 24 22 26 30 26 25 24 24 25 24 23 20 20 23 25 26 29 34 32 34 39 40 35 38 41 39 40 37 36

GFSSGP_700_spd_102.txt.gz
Wind_Speed
40 37 35 39 29 22 32 42 41 38 43 33 23 20 24 22 26 17 10 15 20 16 14 13 12 12 10 10 9 10 12 13 15 15 15 14 16 16 11 10 11 10 11 12 12 12 13 13 13
41 38 34 41 28 26 31 35 48 43 42 40 26 19 17 25 18 20 11 21 21 17 15 14 13 13 11 12 11 12 14 16 18 16 16 18 14 12 12 12 11 12 12 12 12 12 15 16 17
42 37 37 34 36 35 37 40 28 39 39 32 32 22 19 29 20 21 15 23 22 19 15 14 14 14 13 13 14 14 16 18 19 18 17 13 13 13 13 14 13 13 13 14 15 17 19 19 19
46 39 33 30 39 53 49 37 24 29 27 35 31 22 23 24 26 21 20 23 23 21 18 16 15 15 16 15 16 16 18 19 20 19 16 15 16 15 15 15 15 16 18 19 19 19 17 17 17
46 45 37 29 40 55 53 32 24 33 33 30 18 20 23 22 24 23 24 25 24 23 20 18 17 17 17 18 18 19 19 20 20 19 19 17 17 16 16 17 19 20 20 19 18 17 15 15 14
45 52 21 26 47 56 53 33 30 29 37 37 19 22 20 22 25 27 26 27 26 22 20 19 19 19 19 20 20 21 20 20 20 19 18 17 17 18 19 20 20 19 18 17 17 15 13 13 12
48 37 14 23 57 46 54 43 30 25 30 30 26 18 21 28 28 26 29 28 27 24 21 21 22 23 22 22 21 22 22 21 20 19 18 19 20 20 20 19 18 17 16 15 14 12 12 11 10
46 14 41 22 33 32 42 48 28 26 24 23 34 25 23 31 30 28 29 29 28 25 23 22 23 24 24 23 22 22 22 21 21 21 21 21 20 19 18 17 15 13 12 10 9 9 8 8 8
34 22 21 38 19 29 33 46 34 26 28 28 33 28 19 27 29 29 30 31 29 27 25 25 25 26 26 26 24 24 23 23 23 23 22 21 20 18 17 14 12 10 9 7 7 6 6 6 6
29 14 25 37 32 27 28 41 50 29 30 30 21 22 21 21 28 23 29 33 31 28 27 26 27 28 27 26 26 26 25 25 25 24 22 21 18 16 14 12 10 8 6 6 5 5 5 5 6
40 10 9 20 37 31 33 31 44 39 32 33 29 31 29 31 29 21 16 24 29 28 27 29 29 30 29 29 28 28 28 26 25 23 21 18 15 12 10 8 6 5 4 4 5 5 5 6 6
29 19 23 27 24 37 43 33 45 43 31 28 26 22 29 26 26 23 20 23 28 27 26 29 30 31 31 31 30 28 27 25 23 20 18 15 12 9 6 4 2 2 3 4 5 6 6 6 6
35 11 9 14 28 38 45 37 35 39 28 30 28 28 28 24 24 19 22 18 31 31 27 29 31 32 33 33 32 29 27 24 21 19 16 13 10 8 5 3 2 3 5 6 6 6 6 6 6
43 18 13 18 22 40 42 41 35 38 28 27 29 26 26 16 21 18 26 25 42 33 31 27 29 32 33 33 32 30 27 24 21 19 15 13 10 8 6 6 6 7 8 9 9 8 8 7 8
37 24 11 12 30 34 40 37 36 35 31 30 26 24 26 22 22 17 22 24 36 39 42 25 26 29 31 32 32 31 28 26 22 20 17 15 13 12 11 11 11 12 13 13 12 12 12 10 10
19 23 28 8 24 32 29 32 31 32 34 34 30 28 27 27 23 23 23 24 15 23 41 31 31 25 27 29 29 30 29 27 25 23 20 19 18 17 16 16 17 17 17 17 16 16 15 14 14
12 12 21 19 8 27 21 29 29 29 31 32 32 32 30 29 28 27 23 23 22 18 22 29 37 28 32 27 30 29 29 28 27 26 25 24 22 21 21 22 23 23 23 22 20 20 19 18 17
11 12 15 19 16 25 18 25 28 30 30 29 31 33 35 32 28 29 29 29 25 26 23 20 38 33 32 30 36 28 29 30 31 27 29 26 26 26 26 27 27 28 28 26 23 23 23 22 20
5 9 9 15 12 8 12 19 26 28 29 29 28 30 33 32 33 33 30 30 31 36 32 31 29 37 39 45 39 35 32 35 34 33 30 26 25 24 28 29 30 30 30 28 23 20 21 21 19
6 9 14 15 9 4 13 14 18 27 31 32 30 29 29 34 36 34 32 31 32 34 32 33 29 25 28 23 23 33 28 28 30 27 26 23 20 19 22 24 25 25 26 23 18 20 27 21 25
4 6 5 2 12 8 3 12 17 19 31 32 33 30 32 33 33 30 29 34 32 32 34 32 27 19 29 30 28 23 30 31 28 22 21 20 19 19 20 22 24 25 20 21 25 19 21 20 23
5 3 6 4 3 1 10 2 8 13 22 36 37 36 32 31 31 30 27 25 25 23 24 27 28 31 31 25 23 23 21 21 20 23 21 22 22 22 24 24 24 27 23 25 28 24 18 27 25
7 2 3 5 8 5 11 5 6 16 17 18 45 37 33 36 31 29 28 26 22 22 21 20 22 29 32 31 30 29 28 29 25 24 24 24 23 23 25 26 28 29 28 30 29 22 15 20 22
9 5 2 7 9 4 12 15 6 21 21 18 17 23 34 33 34 35 33 30 30 31 29 26 25 24 25 26 26 27 27 28 29 24 25 24 25 25 25 25 27 29 31 33 20 22 26 19 22
15 10 2 2 3 3 10 14 23 8 20 15 19 23 22 41 42 41 34 30 29 30 30 32 32 31 30 29 28 27 26 26 25 25 26 25 26 26 26 26 27 29 30 33 31 25 28 20 18
18 19 6 5 3 3 6 10 15 20 20 14 18 18 20 24 28 31 35 32 29 27 26 27 31 34 34 32 32 31 31 30 29 30 29 30 30 29 28 28 28 31 32 31 33 29 24 25 34
14 19 17 2 3 2 7 10 12 11 19 19 12 16 17 16 17 20 26 32 31 30 28 27 29 32 33 32 30 30 31 30 30 30 31 29 28 29 28 28 28 29 28 29 31 32 39 36 35
17 13 8 10 3 4 4 7 9 6 9 13 12 11 15 17 17 16 14 21 29 31 30 27 26 28 32 33 32 30 29 29 30 30 30 30 29 28 27 28 29 27 27 31 32 32 32 30 30
18 18 11 8 6 4 1 4 5 10 14 14 15 18 16 19 16 17 18 17 18 19 24 26 25 23 22 25 28 31 32 31 32 33 33 33 32 28 25 25 26 30 35 35 31 32 32 35 35
15 19 18 9 5 5 2 6 2 5 10 17 10 13 13 16 18 19 19 18 17 18 19 24 23 22 21 20 22 26 28 30 29 28 26 25 22 22 21 21 25 28 33 36 34 36 38 37 41

GFSSGP_700_spd_105.txt.gz
Wind_Speed
41 40 38 38 37 28 33 34 36 37 49 37 36 26 32 27 26 15 10 23 15 18 17 16 16 14 13 11 11 11 12 15 19 19 18 17 16 16 11 12 11 10 11 12 12 13 13 14 15
43 43 39 39 36 30 33 44 42 38 45 50 31 31 22 29 24 23 11 19 20 20 18 17 17 16 15 14 13 13 14 17 20 19 18 20 20 15 14 13 12 12 12 12 13 15 16 18 19
43 44 40 41 41 43 35 47 49 37 39 41 37 28 25 30 26 25 15 18 24 22 19 18 17 17 16 16 16 16 18 19 20 21 22 19 17 17 15 14 14 13 13 15 17 19 19 20 19
42 48 29 37 48 38 50 49 46 43 38 31 47 32 28 28 27 23 20 21 27 24 21 21 18 17 17 17 18 19 20 22 22 25 19 18 17 16 16 15 15 16 17 19 19 19 17 17 16
40 44 48 46 36 45 54 45 43 33 42 41 43 37 25 26 28 25 19 26 27 26 23 21 20 19 18 19 20 20 21 23 23 19 19 18 17 17 15 16 18 20 19 19 17 16 16 15 14
35 44 28 28 45 49 52 40 34 31 32 44 44 45 27 25 28 29 23 30 29 27 25 23 21 21 20 20 21 22 22 22 22 21 21 19 18 17 18 19 20 19 18 17 16 15 13 12 11
37 44 21 34 29 34 50 43 28 31 31 34 29 53 24 23 28 29 28 32 31 28 25 24 24 24 24 23 23 24 24 24 23 22 21 20 21 21 21 20 19 18 17 15 14 13 11 10 9
33 32 27 30 21 38 42 47 31 34 34 31 30 37 35 28 31 34 34 33 33 30 27 25 25 26 26 27 25 25 25 25 24 23 23 23 23 22 21 19 17 15 14 12 11 10 9 8 7
27 30 6 30 25 37 30 46 36 29 36 40 38 38 47 29 31 36 37 36 35 32 29 27 27 28 28 28 28 28 27 26 26 26 25 24 23 21 19 18 15 13 11 9 8 7 6 5 5
24 32 21 9 25 24 24 36 44 31 35 38 41 41 49 26 38 34 38 39 36 34 31 30 30 30 29 29 29 29 28 27 27 27 26 25 23 21 18 16 13 11 9 7 6 5 4 3 3
25 25 26 7 11 31 25 35 42 36 33 34 33 29 45 26 36 40 35 38 37 34 33 32 32 31 31 30 29 30 30 30 30 29 27 24 21 19 16 12 10 8 6 5 5 5 4 3 2
22 28 32 10 8 29 25 27 36 39 32 27 25 18 26 47 30 27 43 35 36 33 32 33 33 32 32 31 31 31 32 32 31 28 25 22 18 15 12 9 6 4 3 2 3 5 4 4 4
22 27 19 26 3 21 38 25 22 44 39 26 27 24 21 41 35 34 16 30 30 28 29 32 32 33 34 33 34 34 34 32 29 27 24 21 17 13 10 8 5 2 1 2 3 4 4 4 4
28 25 4 19 6 18 40 26 21 32 40 35 30 26 16 23 24 18 16 27 27 27 25 32 35 36 35 35 36 36 34 32 29 26 23 20 17 14 12 9 7 6 5 5 6 6 7 7 7
22 35 7 6 11 12 37 36 30 32 35 36 35 32 25 22 26 26 9 35 29 27 25 30 35 36 36 36 36 36 34 32 30 27 24 21 18 15 13 11 10 9 9 9 10 10 11 11 10
24 22 20 24 25 12 30 36 33 35 35 33 34 32 28 25 23 26 33 25 24 34 25 29 35 34 35 35 35 35 34 32 29 27 25 22 20 18 16 14 14 13 14 14 15 15 15 15 15
10 17 22 31 34 14 19 32 36 36 34 32 34 30 30 30 25 24 27 22 27 47 28 31 38 30 33 34 33 33 34 33 30 28 26 24 23 21 19 18 18 18 19 19 19 19 19 18 18
14 15 19 23 27 13 18 31 35 36 35 34 34 31 28 28 26 22 25 23 24 38 31 36 41 40 36 34 30 30 33 32 31 30 29 27 25 25 23 21 22 23 24 23 23 21 20 19 18
8 18 10 10 12 12 16 16 29 33 35 36 35 35 32 30 28 29 29 25 25 36 29 24 53 51 49 40 31 30 29 31 31 31 30 25 26 27 24 24 25 25 25 26 27 24 19 17 17
3 5 4 6 6 6 9 8 24 27 32 34 36 35 33 31 29 27 26 29 33 31 28 23 21 33 46 48 34 29 34 30 31 31 33 30 30 27 24 25 22 22 24 23 23 22 21 19 20
4 4 4 3 8 2 5 12 24 21 26 30 32 34 35 34 33 32 31 31 34 32 29 31 29 29 34 47 39 38 45 42 38 37 29 27 27 25 23 21 19 19 19 20 19 20 22 19 18
3 2 3 1 7 2 3 2 17 20 22 25 28 30 32 34 34 34 33 33 31 27 30 31 32 33 32 17 25 26 28 31 42 35 37 27 22 21 23 20 21 19 22 24 25 26 28 25 25
6 4 3 6 8 2 10 2 14 21 31 21 22 25 32 32 33 33 31 30 29 29 28 28 31 34 26 22 25 28 22 17 20 19 16 21 21 20 25 23 23 23 25 26 25 29 33 11 11
7 6 4 7 7 2 10 13 9 24 24 24 20 17 40 36 34 32 30 28 27 26 24 23 22 24 27 29 27 27 24 26 28 27 22 21 25 25 26 23 23 23 25 26 28 30 25 39 24
13 10 2 3 3 3 7 12 16 9 14 18 16 16 38 38 35 35 32 31 31 30 29 28 27 24 23 25 26 27 28 28 26 25 23 25 26 24 25 24 25 25 25 24 26 26 26 28 18
18 18 5 5 4 3 7 8 7 9 18 17 14 24 27 26 29 36 37 37 36 33 33 32 30 29 30 28 28 28 28 27 26 26 26 26 26 27 27 27 27 28 27 25 24 23 23 21 17
11 19 17 3 3 2 5 5 9 9 9 14 11 10 18 23 22 27 43 38 39 36 34 30 33 34 35 34 33 32 31 29 29 29 30 30 30 30 30 29 29 29 28 29 26 25 23 24 29
15 9 7 8 4 3 4 6 10 3 6 11 8 11 12 15 15 17 20 23 34 39 35 32 31 31 33 32 33 34 33 33 33 33 32 31 31 31 29 28 28 28 27 26 26 27 28 30 26
9 12 11 5 6 3 2 4 2 8 6 9 11 13 10 15 14 13 15 13 20 33 33 32 31 30 30 29 31 33 34 33 32 32 31 31 31 31 31 32 31 29 26 22 24 26 28 31 33
13 9 6 9 6 8 3 3 2 2 1 8 13 10 13 14 15 13 12 12 12 17 22 26 28 29 28 24 24 25 27 30 32 32 31 31 31 32 31 29 26 25 22 21 23 26 32 32 35

GFSSGP_700_spd_108.txt.gz
Wind_Speed
42 38 40 34 36 36 47 51 36 41 42 35 26 27 33 23 29 17 11 25 20 16 19 18 19 18 16 15 14 13 14 15 18 22 20 18 16 15 11 11 10 10 11 10 11 12 13 13 15
42 43 44 35 41 41 51 53 49 38 36 34 42 37 31 29 31 28 10 20 23 19 21 20 20 19 18 16 16 15 17 18 22 22 21 20 18 16 13 12 11 11 11 11 12 13 16 17 17
35 48 38 40 48 51 52 51 46 35 32 34 43 38 27 24 38 31 19 14 25 22 23 22 21 20 19 17 17 18 20 22 23 23 22 21 20 15 14 12 12 12 11 13 15 17 18 18 17
33 43 41 44 41 48 55 42 42 35 32 32 39 37 38 31 37 29 27 16 24 26 25 23 22 21 20 19 19 21 23 25 24 23 23 22 18 17 15 13 12 12 14 17 17 17 16 16 14
31 33 49 30 61 40 44 42 35 41 35 35 36 43 40 37 30 31 29 21 26 30 28 26 24 22 21 21 22 23 25 25 25 25 22 20 20 18 16 14 14 16 17 17 15 14 14 13 12
31 35 32 43 21 51 39 37 39 43 39 32 40 42 47 38 33 34 29 24 31 33 30 28 26 24 23 23 23 25 25 25 27 22 21 21 20 18 17 17 18 18 16 15 14 13 12 11 9
31 30 29 46 29 35 36 36 32 37 39 40 36 41 50 45 34 35 32 26 36 35 32 30 28 28 26 26 26 26 27 28 24 22 22 21 20 19 20 20 19 17 16 14 13 11 9 8 7
29 28 31 40 22 31 27 40 32 27 38 35 34 43 46 54 29 33 36 32 40 37 34 32 30 30 30 30 29 29 28 27 25 25 24 22 23 23 22 20 18 16 15 12 11 9 7 6 5
24 27 29 23 21 26 24 30 42 21 26 32 35 28 37 40 46 34 40 43 44 40 37 33 32 32 32 32 32 32 31 29 28 26 25 26 26 25 23 20 17 15 13 10 8 7 5 4 3
24 26 25 17 21 28 22 23 44 25 26 27 31 32 31 30 48 49 44 45 43 40 39 35 34 34 34 34 34 34 34 33 31 30 29 28 27 25 22 20 17 14 12 10 8 6 4 3 1
22 21 27 21 12 19 29 26 25 38 24 32 38 34 35 36 55 34 44 44 42 39 37 37 37 37 36 35 35 35 35 34 34 33 32 30 27 25 22 18 16 13 10 8 6 5 3 2 1
16 20 22 26 22 8 15 16 27 42 23 24 32 33 35 35 44 20 45 44 41 38 37 38 37 38 37 36 35 35 35 35 35 35 33 31 28 24 20 16 13 10 8 5 4 3 2 1 1
21 20 22 16 25 17 24 31 23 31 31 30 28 33 35 29 36 52 32 41 41 35 35 37 38 38 38 37 37 36 37 37 37 35 33 30 26 22 18 14 11 9 6 4 2 2 2 2 3
19 17 14 18 28 29 17 34 22 28 34 29 34 30 34 22 25 40 29 25 42 35 33 37 38 39 38 37 36 37 38 38 37 34 31 28 24 20 17 14 11 9 6 5 3 4 5 6 7
14 18 13 14 11 7 13 31 34 27 30 35 29 31 29 14 11 23 44 28 32 39 32 35 37 38 39 39 39 39 39 38 36 33 30 27 24 21 18 16 13 11 9 7 7 7 9 10 10
16 18 22 15 8 28 21 28 24 29 28 31 34 30 27 19 12 14 19 18 38 36 32 31 35 37 39 40 41 41 42 40 37 34 31 28 25 22 20 17 15 13 12 11 11 12 12 13 14
17 8 28 23 15 32 13 10 29 27 26 29 35 36 29 24 21 19 17 31 50 39 32 29 29 34 37 40 41 42 42 40 37 35 32 29 26 23 21 19 18 16 15 15 16 16 17 16 17
7 15 21 24 19 18 22 9 11 29 23 28 32 34 31 27 24 21 20 28 49 38 35 27 26 31 34 38 40 41 41 39 38 34 31 29 27 24 22 21 20 20 20 20 21 22 21 20 19
4 8 15 16 15 13 13 11 10 25 27 29 31 32 35 29 27 23 25 25 29 46 34 34 31 29 33 35 37 38 37 35 35 34 32 31 29 27 25 23 23 23 25 25 25 23 24 23 22
3 5 4 7 7 4 7 13 8 25 23 33 30 30 25 23 21 21 26 30 31 35 47 35 30 28 30 37 38 37 36 34 33 33 33 33 32 27 22 23 25 26 27 26 24 22 21 22 22
3 3 3 1 1 4 6 8 12 24 30 32 32 30 29 26 22 22 25 22 28 29 43 38 26 28 35 39 46 39 39 39 32 31 32 32 28 27 25 28 26 25 25 23 21 16 15 19 21
1 3 1 3 5 2 1 1 16 18 31 32 32 33 33 32 30 30 27 28 23 17 47 32 28 33 45 46 48 48 42 52 40 33 29 29 27 30 33 34 35 24 25 21 19 17 18 25 29
4 3 2 4 3 4 5 5 9 23 28 30 30 32 33 33 34 34 31 30 24 25 25 26 25 27 33 49 60 53 66 40 35 52 42 29 36 35 33 42 17 25 26 22 20 23 27 22 16
5 5 4 5 4 5 7 7 5 14 22 28 30 27 26 27 27 27 28 28 26 26 25 26 30 28 20 25 23 20 16 23 28 19 42 32 31 35 37 20 26 27 26 25 25 24 24 27 22
10 8 4 4 4 3 4 7 9 4 12 23 25 28 29 26 30 31 30 29 31 29 30 31 31 29 27 29 27 26 24 25 19 19 21 15 20 21 22 24 24 22 22 25 25 24 23 23 22
13 11 5 5 4 2 3 5 2 2 12 12 21 29 34 35 40 37 33 31 28 26 26 28 28 27 25 23 23 25 25 24 22 22 24 22 23 24 23 24 25 25 25 26 27 26 24 24 21
7 17 11 0 1 3 3 7 11 7 5 5 16 20 30 25 41 40 37 32 31 31 30 29 29 28 25 23 22 22 21 22 21 19 20 22 24 25 25 26 27 28 29 29 29 28 28 23 21
10 9 6 11 5 5 4 5 8 4 1 4 14 10 15 25 33 31 35 30 38 35 32 34 32 31 29 27 28 28 27 27 27 26 26 27 28 28 29 30 31 30 30 29 28 27 25 22 24
5 5 6 3 2 2 3 3 3 4 4 3 6 7 12 15 19 24 24 26 32 36 34 36 35 33 31 30 29 29 31 32 33 33 32 32 32 32 32 31 31 31 32 33 30 25 22 22 23
5 7 8 5 3 3 7 4 4 9 9 2 2 6 10 16 16 14 16 19 22 29 38 41 38 34 32 30 28 28 29 30 31 32 31 31 31 31 31 31 32 33 32 30 26 25 24 26 27

GFSSGP_700_spd_111.txt.gz
Wind_Speed
36 37 36 40 30 36 49 68 45 50 46 42 34 34 34 32 33 22 19 25 30 19 20 20 19 20 18 17 16 16 17 16 17 19 18 17 16 14 10 10 8 7 9 8 9 10 10 12 14
34 39 39 38 31 41 58 65 55 45 42 34 38 36 31 33 30 35 18 16 27 28 19 22 20 21 20 18 17 17 18 18 20 21 20 18 16 14 11 10 8 8 8 9 10 11 13 15 16
28 36 32 44 44 48 71 49 44 40 33 37 40 34 28 27 33 38 25 15 24 28 22 23 22 21 20 20 18 18 20 21 24 23 21 20 18 15 13 10 10 9 8 9 11 14 14 16 15
26 38 42 32 48 56 59 42 33 40 37 36 42 31 32 32 29 41 32 19 19 27 24 24 23 22 21 20 20 20 22 24 26 24 23 20 18 16 15 13 11 10 11 13 14 15 14 13 13
24 30 35 45 38 49 45 47 39 38 43 37 42 37 37 33 39 39 35 30 19 26 27 27 25 24 22 22 21 22 24 26 25 25 23 21 17 15 14 13 12 13 15 16 14 13 13 12 11
21 28 31 44 53 41 54 43 42 39 43 43 40 40 31 38 34 37 38 35 24 25 30 30 28 26 24 23 23 25 25 26 26 25 25 21 18 16 15 14 15 17 17 15 14 13 12 11 9
26 27 36 36 40 54 42 43 37 33 39 44 43 39 38 35 41 34 37 36 29 27 33 32 30 29 27 26 26 26 27 27 26 27 24 22 20 17 16 18 19 17 16 14 12 11 10 9 8
25 27 34 38 39 40 45 34 41 30 43 40 38 49 44 40 36 40 37 34 30 31 36 34 32 31 30 29 30 30 30 29 30 26 24 23 21 20 20 22 20 18 16 13 11 10 8 7 6
19 24 29 35 35 32 30 30 39 41 36 37 45 39 41 40 41 42 41 34 31 32 38 36 34 33 33 33 33 33 31 33 28 27 26 25 23 24 24 22 20 18 16 12 10 8 6 5 5
22 24 26 21 30 19 36 33 29 39 38 23 38 35 39 40 42 49 50 34 37 37 39 38 36 35 35 35 35 34 34 32 29 29 28 27 28 27 25 23 20 17 14 11 9 7 5 4 4
18 24 17 24 29 14 19 32 31 29 35 30 39 45 45 32 43 44 50 36 41 43 38 39 37 37 38 37 38 36 36 34 33 32 31 32 32 29 26 23 20 17 14 11 9 7 5 4 3
18 16 19 22 27 25 18 12 27 29 49 34 47 37 38 35 34 49 45 52 50 39 39 40 40 41 39 38 40 38 38 38 37 34 35 34 32 29 26 23 19 16 13 10 8 6 4 3 1
18 14 15 19 22 27 30 31 22 33 36 26 31 24 39 34 32 36 42 43 47 42 38 38 42 40 40 39 40 39 39 38 37 38 36 34 32 29 25 22 18 14 11 9 6 4 3 2 2
7 18 17 17 28 27 34 31 23 27 36 33 25 28 34 30 31 30 36 47 41 36 39 37 40 38 37 39 39 39 39 38 38 38 36 34 32 28 24 20 17 14 11 9 7 5 4 4 5
11 8 13 14 17 26 27 35 29 25 20 18 22 19 22 21 29 27 32 36 32 18 43 37 38 43 38 40 39 40 40 39 40 39 37 34 31 27 24 20 17 14 11 9 7 6 5 6 8
9 11 13 16 13 19 26 32 11 30 23 21 22 23 23 28 23 20 26 24 49 29 38 40 38 41 42 38 41 40 41 42 42 40 38 35 31 27 23 20 16 14 11 10 9 9 9 10 11
12 10 21 13 20 15 11 19 17 23 17 25 18 23 25 28 21 18 9 12 34 27 36 38 38 40 42 42 42 43 43 43 43 41 38 34 31 27 23 20 17 15 13 12 12 12 14 14 15
8 19 15 21 17 24 24 21 15 17 26 24 30 24 27 23 23 18 13 15 32 26 36 39 37 38 41 43 43 43 44 45 43 41 38 34 31 28 25 22 20 17 16 15 16 17 18 19 19
11 10 15 9 20 19 13 17 15 16 20 18 34 33 31 26 19 18 15 13 18 28 35 42 39 34 36 40 42 43 44 44 43 41 39 36 33 30 27 24 22 20 18 19 20 21 21 21 20
7 8 8 8 15 16 10 12 14 16 16 15 25 31 31 29 25 22 18 19 16 41 36 45 44 36 33 33 36 38 41 43 42 41 39 36 34 32 29 27 23 23 20 21 23 24 24 21 19
6 8 6 8 8 9 11 12 16 26 16 19 21 26 28 28 27 22 16 20 25 42 35 48 50 36 30 31 33 36 38 40 41 39 38 35 33 33 29 25 25 25 25 23 23 21 20 15 13
13 4 6 7 5 4 5 5 15 20 20 22 22 25 28 30 25 30 17 10 11 25 40 39 33 34 32 27 29 33 34 37 37 39 34 32 28 28 29 29 30 28 26 25 21 21 17 15 11
8 7 8 9 9 11 3 5 8 16 24 21 20 26 26 26 22 18 15 11 15 15 14 16 53 31 32 29 30 30 30 33 38 39 35 31 31 29 25 26 30 30 31 35 27 26 22 26 23
11 7 7 6 6 5 1 2 10 9 16 19 20 17 26 26 26 24 22 18 20 23 14 12 30 45 31 24 31 41 39 34 33 40 42 38 39 34 30 30 30 30 36 41 30 26 18 23 24
10 10 3 3 3 2 5 3 6 3 4 17 19 18 16 26 26 25 27 27 26 25 20 14 21 17 18 17 13 46 34 36 38 44 58 57 47 54 30 29 27 36 26 22 20 20 22 22 23
9 11 7 4 2 1 3 1 4 5 5 8 15 17 19 23 21 21 22 24 27 30 23 17 23 25 24 29 29 17 36 50 40 32 19 42 14 10 24 26 23 21 22 19 19 19 21 23 24
6 6 8 7 5 3 4 2 10 13 4 7 13 21 23 24 25 25 28 27 27 27 27 27 28 27 27 23 22 22 26 29 26 19 22 20 19 17 23 27 27 26 26 22 21 23 24 25 26
6 10 3 4 3 4 6 1 11 12 7 2 2 14 17 19 25 29 33 29 28 25 23 22 24 23 23 22 20 18 18 19 18 19 20 20 21 23 25 27 26 25 24 23 25 26 25 26 23
7 4 5 6 4 3 2 8 10 10 6 1 5 9 11 13 17 15 34 35 29 25 27 24 27 26 26 25 22 21 21 21 21 21 20 22 23 23 23 24 25 25 25 25 27 27 27 26 23
4 7 8 4 6 3 4 7 13 15 8 5 4 4 8 10 12 19 25 28 31 34 39 27 26 30 30 29 27 24 23 22 23 24 26 27 26 25 26 25 26 27 28 29 29 29 28 27 21

GFSSGP_700_spd_114.txt.gz
Wind_Speed
32 33 35 28 21 26 62 76 48 38 51 39 36 28 38 30 31 32 33 27 26 28 15 20 20 19 20 18 17 16 17 17 18 20 17 16 15 13 11 10 8 6 7 7 8 9 10 12 14
20 32 33 32 28 31 78 63 54 42 29 35 35 35 36 34 30 32 36 35 31 34 24 19 22 20 21 20 19 18 18 18 19 21 18 16 15 13 12 12 9 7 7 7 8 10 12 14 16
15 29 29 26 37 58 83 28 48 37 26 22 34 37 37 33 33 36 33 29 23 24 33 21 22 21 22 21 20 19 19 20 20 22 20 18 16 13 12 12 11 10 8 9 11 13 14 15 15
13 23 27 33 44 72 60 29 25 23 26 30 30 36 35 36 38 44 39 39 25 25 33 26 23 22 22 22 21 21 21 21 23 23 21 20 16 12 11 10 11 11 9 12 14 15 14 14 13
16 20 30 36 56 61 55 47 32 38 32 33 31 37 44 44 38 41 36 40 23 25 29 28 25 24 24 23 22 21 22 23 25 23 22 20 17 13 11 10 11 13 14 16 15 14 13 13 12
13 21 18 40 49 53 59 49 37 42 44 34 37 34 41 44 46 37 38 48 36 25 27 30 28 27 26 24 23 23 24 26 26 25 23 21 18 16 13 11 13 16 18 16 14 14 13 11 11
20 22 29 34 34 40 48 42 46 50 52 44 31 30 44 40 52 48 33 45 41 31 27 32 31 29 28 26 25 25 25 27 27 26 24 23 20 18 15 14 16 19 18 16 14 13 11 11 10
24 24 32 31 35 40 33 34 47 48 58 51 41 33 41 46 46 51 46 37 45 38 30 33 34 31 30 28 27 27 27 28 29 27 26 23 21 19 18 18 19 18 17 15 14 12 11 9 8
17 25 31 35 33 36 29 35 28 40 55 51 48 43 33 26 41 45 49 43 44 42 34 36 36 34 32 31 30 30 31 31 30 28 28 25 23 22 21 22 21 18 16 15 13 12 9 8 7
22 26 31 26 21 29 29 31 32 32 44 51 49 45 32 34 47 46 54 45 43 42 39 39 38 36 35 34 34 34 33 32 31 31 28 27 25 23 24 23 21 19 17 14 12 10 9 7 6
16 26 22 18 24 26 24 28 26 27 41 33 36 44 26 32 49 44 37 37 38 44 40 41 40 38 37 37 36 36 35 34 34 30 30 28 27 27 26 24 21 19 16 13 11 9 8 6 5
21 19 19 19 20 21 25 31 16 19 43 25 49 42 35 36 52 56 45 43 44 44 33 39 40 40 39 39 39 38 37 36 34 33 32 31 30 29 27 24 21 18 16 13 11 9 8 6 5
23 16 17 20 19 20 20 30 29 25 22 40 42 41 39 38 37 52 50 50 45 46 44 47 40 42 43 42 42 40 36 36 34 35 34 32 32 30 28 24 22 19 16 13 11 9 7 6 4
12 14 20 20 15 19 24 28 34 20 35 25 46 52 40 36 43 47 46 46 42 40 48 36 41 43 44 42 43 43 40 44 38 39 36 34 33 31 28 25 22 18 15 12 10 7 5 3 2
17 12 16 22 18 18 14 24 36 35 40 31 43 40 35 39 43 28 33 42 42 40 41 33 41 39 43 44 44 45 46 42 42 40 36 34 34 32 29 25 21 17 14 11 9 7 5 3 4
12 15 18 16 17 20 14 28 21 28 25 19 29 30 32 37 53 42 33 33 31 35 45 17 38 37 42 46 44 43 41 41 40 37 36 36 35 32 29 25 20 17 14 11 10 8 6 6 6
9 12 17 14 18 21 19 21 9 19 18 23 24 12 30 25 25 36 29 27 24 31 27 27 37 39 38 41 42 44 43 41 40 39 39 39 37 33 29 25 22 18 15 12 10 9 9 10 10
12 19 18 21 16 19 25 30 25 18 16 25 27 14 20 22 23 23 21 16 14 24 30 41 37 35 39 36 42 43 43 44 43 43 42 40 37 34 30 26 22 19 16 14 13 12 12 13 14
20 19 20 18 18 20 24 25 20 11 16 19 23 19 23 22 22 21 18 14 7 20 40 50 34 41 42 40 40 44 44 43 42 43 42 41 38 34 30 27 24 21 18 17 15 15 15 16 17
17 21 18 8 12 16 19 23 15 13 21 15 23 29 23 22 21 17 16 12 9 23 19 31 39 37 40 43 37 41 41 43 44 46 45 42 39 34 31 28 26 23 20 19 18 16 18 18 17
16 15 13 10 12 16 16 16 13 10 14 13 21 33 28 23 20 21 14 15 12 24 24 27 32 38 48 35 37 38 38 40 44 44 43 41 37 34 32 29 26 24 22 20 22 19 20 21 10
14 13 13 11 13 7 7 7 10 5 14 14 18 22 30 26 22 17 16 14 11 15 24 39 33 36 37 32 34 35 37 39 39 40 40 39 38 36 34 31 28 23 22 19 20 21 19 19 12
14 14 12 12 11 13 6 6 10 5 11 14 16 14 21 22 21 16 16 14 12 14 33 21 29 37 33 38 33 34 33 33 35 37 38 39 37 36 34 33 27 26 25 24 24 21 23 22 21
14 14 13 11 7 2 4 4 17 5 8 10 10 13 15 18 21 17 8 7 14 9 3 17 27 22 37 36 34 38 34 34 30 29 33 35 38 38 37 36 33 32 31 27 27 27 29 32 35
5 11 4 1 1 3 2 5 9 12 10 9 6 14 10 16 18 19 14 7 10 7 5 6 8 19 38 40 30 31 39 35 38 28 23 23 22 31 41 43 43 40 31 33 27 36 39 34 21
12 8 5 2 3 2 3 7 16 10 8 8 9 9 8 14 17 20 20 18 16 11 12 13 6 6 12 48 30 25 41 26 28 34 39 31 29 36 44 47 44 51 47 29 14 14 14 14 19
10 8 10 6 4 4 12 18 9 13 14 11 10 5 12 8 12 14 16 18 20 20 16 17 16 14 8 13 12 19 18 41 45 39 39 35 30 26 40 44 49 48 24 23 24 20 19 21 22
11 11 7 4 5 3 13 13 15 18 12 8 4 3 6 15 7 13 15 13 13 13 18 24 24 19 15 18 22 17 18 18 28 39 59 31 34 30 16 19 14 14 17 25 26 19 20 23 21
12 14 6 4 4 3 2 3 17 15 14 8 6 3 2 3 8 12 17 17 16 13 13 14 16 17 20 20 19 16 17 15 13 15 11 32 22 15 17 20 20 21 21 22 23 21 24 23 23
11 14 13 5 5 5 3 6 16 20 14 9 11 8 4 3 1 6 8 12 18 16 16 15 13 14 17 17 16 15 14 13 14 15 16 17 16 17 20 21 20 22 24 24 24 25 25 25 23

GFSSGP_700_spd_117.txt.gz
Wind_Speed
30 36 33 28 21 26 59 49 44 15 32 44 43 35 27 30 28 28 31 31 25 23 24 21 19 19 18 19 18 17 17 18 19 18 16 16 16 13 11 11 9 9 9 10 11 11 11 12 13
20 30 30 29 27 35 44 53 40 33 14 14 28 22 36 34 38 32 33 34 30 19 23 26 18 21 20 21 19 18 18 19 19 21 18 17 16 12 9 11 10 10 10 11 12 13 13 15 15
12 20 27 27 34 54 36 10 10 37 34 24 17 28 28 34 40 38 39 30 33 24 24 25 21 23 21 21 21 20 19 20 20 22 20 18 16 13 11 9 6 10 11 12 13 15 15 15 15
14 19 23 31 48 60 44 17 15 20 37 26 30 27 23 34 39 47 38 37 36 20 25 31 32 25 24 22 22 21 21 21 21 23 22 20 18 14 12 9 7 9 12 14 15 16 16 16 14
18 22 26 38 50 51 50 52 34 26 26 35 38 33 30 25 38 46 45 40 32 32 24 29 35 27 26 24 24 23 22 22 22 25 23 21 19 16 14 10 9 10 13 17 17 15 15 14 13
17 22 18 40 46 41 44 45 45 48 32 34 39 32 33 22 28 45 45 42 32 30 32 37 36 32 28 26 25 24 24 24 25 26 24 22 20 18 15 13 11 13 15 18 17 15 14 13 12
17 19 32 36 40 42 35 33 39 44 51 49 44 38 33 27 26 37 45 51 39 38 29 35 38 35 30 28 26 26 25 26 28 28 26 24 21 19 17 14 14 16 17 17 16 15 13 12 11
17 20 29 35 39 45 28 33 32 32 47 40 52 49 41 36 34 33 37 48 46 42 42 28 37 36 33 31 29 27 27 28 31 30 29 26 23 22 19 17 17 19 17 16 16 15 14 12 10
13 27 35 36 34 34 28 31 25 31 32 43 49 58 51 38 32 40 39 46 47 44 51 39 35 37 35 33 31 30 30 32 34 33 29 27 25 24 21 20 20 21 19 17 16 15 13 12 10
16 27 33 34 26 31 26 23 28 34 35 43 47 59 57 45 38 43 42 47 49 46 48 42 39 39 36 35 34 33 34 35 36 33 31 28 27 25 22 22 22 21 20 18 16 14 12 11 9
12 23 20 25 26 20 28 28 28 37 37 34 38 48 55 52 47 41 58 41 51 53 44 49 42 41 38 37 36 36 36 37 36 33 28 31 29 25 24 24 23 22 20 18 16 14 12 10 8
22 19 14 12 14 26 29 28 28 31 35 33 23 33 50 57 51 46 41 33 56 54 55 46 43 43 41 40 39 38 39 39 38 34 36 33 30 27 26 25 23 22 20 17 16 13 11 9 7
23 23 22 20 19 23 22 24 23 29 26 20 17 24 40 65 50 44 47 31 58 54 57 53 47 43 42 41 40 40 40 39 38 37 36 33 31 27 28 27 25 22 20 18 15 13 11 10 8
21 20 20 19 22 25 26 27 30 23 16 25 26 24 30 55 55 38 41 26 42 54 51 52 49 46 41 40 40 41 41 40 38 39 37 34 31 30 29 28 26 23 20 17 14 13 10 9 7
15 20 22 24 21 26 22 32 27 12 20 29 36 26 28 42 42 42 41 38 41 45 44 42 38 50 44 40 40 41 41 43 43 41 37 36 33 33 31 29 27 23 19 17 15 13 11 9 7
14 15 18 10 13 19 21 29 16 17 18 26 25 15 24 44 40 36 41 28 46 50 41 34 34 47 45 43 40 41 43 43 40 39 37 36 34 35 33 30 27 23 21 18 16 13 10 8 6
10 14 21 22 15 21 22 30 21 18 26 26 12 11 21 32 42 33 35 35 22 40 34 29 33 34 48 42 43 43 43 43 42 41 37 36 36 37 33 30 27 24 21 17 15 13 11 9 7
16 22 26 28 31 26 25 32 26 19 26 18 7 14 10 25 33 34 44 41 27 29 28 28 27 31 37 54 48 50 48 40 45 40 37 37 38 38 35 32 29 24 21 18 15 13 10 8 8
15 24 24 27 13 12 22 30 30 20 20 8 16 18 7 21 18 28 20 25 23 19 27 33 34 43 42 52 47 52 50 51 45 42 41 40 40 38 37 34 29 26 22 18 15 13 11 13 12
17 20 22 11 15 16 20 30 19 17 15 6 10 14 11 16 21 24 25 22 20 25 31 41 40 36 38 47 44 46 50 47 43 44 44 43 43 41 38 34 30 26 22 19 17 15 14 13 13
17 16 16 18 16 14 19 12 23 15 4 5 12 14 19 17 21 20 12 14 16 18 22 27 40 34 36 50 43 39 42 47 46 47 45 46 44 41 38 35 31 27 23 20 19 17 16 12 12
17 9 15 17 14 12 19 6 21 12 6 6 8 8 15 18 17 21 16 15 18 24 29 22 36 42 32 48 36 37 41 42 47 46 45 47 45 41 38 35 31 29 26 23 20 20 18 15 15
19 18 18 15 10 15 7 2 26 15 7 3 3 5 14 20 23 12 19 17 16 16 28 31 30 46 40 43 46 35 37 34 36 40 44 44 41 39 37 34 31 30 29 25 26 24 19 17 18
12 12 10 10 8 2 7 3 22 31 20 5 5 5 12 18 20 23 19 6 5 12 19 27 24 35 29 35 42 41 34 35 34 36 38 39 39 37 34 32 30 30 30 30 34 32 30 31 23
12 10 5 3 2 4 7 18 22 27 17 23 3 9 6 18 20 22 14 6 3 4 8 3 18 22 34 21 45 40 35 35 35 34 34 34 33 32 30 30 31 29 29 31 36 37 40 41 39
12 8 6 4 1 3 11 8 21 21 23 22 6 14 9 10 17 17 14 7 10 5 11 6 12 9 28 22 36 46 42 38 38 35 33 32 29 25 23 22 25 25 28 31 34 39 44 47 54
10 11 3 5 4 5 7 12 6 20 17 23 18 9 14 9 11 8 13 14 12 1 8 9 8 10 12 27 36 44 40 44 40 41 37 32 30 27 23 25 30 36 38 44 44 43 43 29 24
14 9 5 5 4 4 4 10 18 26 23 18 14 18 16 1 3 5 6 4 9 9 10 8 8 11 4 4 30 19 30 36 45 40 45 43 36 29 25 29 27 34 39 43 44 41 36 34 24
18 21 7 6 6 4 1 6 21 22 21 21 18 13 10 6 4 5 4 4 5 3 2 10 15 11 11 16 19 27 15 17 22 29 53 42 43 57 45 37 38 32 27 27 20 21 31 18 17
13 18 14 4 4 5 4 9 17 19 18 16 17 15 12 12 9 7 3 7 8 6 7 6 6 5 7 10 16 20 15 17 16 13 18 18 26 46 41 37 30 26 20 21 22 21 20 19 20